[[{"header":{"parameterUnit":"m.s-1","parameterCategory":1,"la1":30.6,"la2":29.2853,"lo1":-89.7004,"lo2":-87.6739,"dy":0.0162,"dx":0.0183,"nx":112,"ny":82,"refTime":"2023-10-02T06:00:00:Z","depth":0,"parameterNumber":2,"parameterNumberName":"U-component_of_WINDS"},"data":[0.0,0.0,0.0,0.0,0.0,0.0,0.0,0.0,0.0,0.0,0.0,0.0,0.0,0.0,0.0,0.0,0.0,0.0,0.0,0.0,0.0,0.0,0.0,0.0,0.0,0.0,0.0,0.0,0.0,0.0,0.0,0.0,0.0,0.0,0.0,0.0,0.0,0.0,0.0,0.0,0.0,0.0,0.0,0.0,0.0,0.0,0.0,0.0,0.0,0.0,0.0,0.0,0.0,0.0,0.0,0.0,0.0,0.0,0.0,0.0,0.0,0.0,0.0,0.0,0.0,0.0,0.0,0.0,0.0,0.0,0.0,0.0,0.0,0.0,0.0,0.0,0.0,0.0,0.0,0.0,0.0,0.0,0.0,0.0,0.0,0.0,0.0,0.0,0.0,0.0,0.0,1.6838,1.5674,1.535,1.6281,1.6748,1.7147,1.7423,0.0,0.0,0.0,0.0,0.0,0.0,0.0,0.0,0.0,0.0,0.0,0.0,0.0,0.0,0.0,0.0,0.0,0.0,0.0,0.0,0.0,0.0,0.0,0.0,0.0,0.0,0.0,0.0,0.0,0.0,0.0,0.0,0.0,0.0,0.0,0.0,0.0,0.0,0.0,0.0,0.0,0.0,0.0,0.0,0.0,0.0,0.0,0.0,0.0,0.0,0.0,0.0,0.0,0.0,0.0,0.0,0.0,0.0,0.0,0.0,0.0,0.0,0.0,0.0,0.0,0.0,0.0,0.0,0.0,0.0,0.0,0.0,0.0,0.0,0.0,0.0,0.0,0.0,0.0,0.0,0.0,0.0,0.0,0.0,0.0,0.0,0.0,0.0,0.0,0.0,0.0,0.0,0.0,0.0,0.0,0.0,0.0,0.0,0.0,0.0,0.0,0.0,0.0,0.0,1.6116,1.5462,1.5039,1.4789,1.472,1.5365,1.5448,1.497,0.0,0.0,0.0,0.0,0.0,0.0,0.0,0.0,0.0,0.0,0.0,0.0,0.0,0.0,0.0,0.0,0.0,0.0,0.0,0.0,0.0,0.0,0.0,0.0,0.0,0.0,0.0,0.0,0.0,0.0,0.0,0.0,0.0,0.0,0.0,0.0,0.0,0.0,0.0,0.0,0.0,0.0,0.0,0.0,0.0,0.0,0.0,0.0,0.0,0.0,0.0,0.0,0.0,0.0,0.0,0.0,0.0,0.0,0.0,0.0,0.0,0.0,0.0,0.0,0.0,0.0,0.0,0.0,0.0,0.0,0.0,0.0,0.0,0.0,0.0,0.0,0.0,0.0,0.0,0.0,0.0,0.0,0.0,0.0,0.0,0.0,0.0,0.0,0.0,0.0,0.0,0.0,0.0,0.0,0.0,0.0,0.0,0.0,0.0,0.0,0.0,0.0,0.0,1.5074,1.396,1.4161,1.3367,1.3015,1.3548,1.4409,1.477,1.4623,1.5885,0.0,0.0,0.0,0.0,0.0,0.0,0.0,0.0,0.0,0.0,0.0,0.0,0.0,0.0,0.0,0.0,0.0,0.0,0.0,0.0,0.0,0.0,0.0,0.0,0.0,0.0,0.0,0.0,0.0,0.0,0.0,0.0,0.0,0.0,0.0,0.0,0.0,0.0,0.0,0.0,0.0,0.0,0.0,0.0,0.0,0.0,0.0,0.0,0.0,0.0,0.0,0.0,0.0,0.0,0.0,0.0,0.0,0.0,0.0,0.0,0.0,0.0,0.0,0.0,0.0,0.0,0.0,0.0,0.0,0.0,0.0,0.0,0.0,0.0,0.0,0.0,0.0,0.0,0.0,0.0,0.0,0.0,0.0,0.0,0.0,0.0,0.0,0.0,0.0,0.0,0.0,0.0,0.0,0.0,0.0,0.0,0.0,0.0,0.0,0.0,0.0,0.0,1.3363,1.2649,1.3115,1.2032,1.1666,1.2564,1.3375,1.3923,1.4032,1.4255,0.0,0.0,0.0,0.0,0.0,0.0,0.0,0.0,0.0,0.0,0.0,0.0,0.0,0.0,0.0,0.0,0.0,0.0,0.0,0.0,0.0,0.0,0.0,0.0,0.0,0.0,0.0,0.0,0.0,0.0,0.0,0.0,0.0,0.0,0.0,0.0,0.0,0.0,0.0,0.0,0.0,0.0,0.0,0.0,0.0,0.0,0.0,0.0,0.0,0.0,0.0,0.0,0.0,0.0,0.0,0.0,0.0,0.0,0.0,0.0,0.0,0.0,0.0,0.0,0.0,0.0,0.0,0.0,0.0,0.0,0.0,0.0,0.0,0.0,0.0,0.0,0.0,0.0,0.0,0.0,0.0,0.0,0.0,0.0,0.0,0.0,0.0,0.0,0.0,0.0,0.0,0.0,0.0,0.0,0.0,0.0,0.0,0.0,0.0,0.0,0.0,0.0,1.3024,1.3115,1.2398,1.1763,1.1395,1.1666,1.2221,1.2312,1.1849,1.2016,0.0,0.0,0.0,0.0,0.0,0.0,0.0,0.0,0.0,0.0,0.0,0.0,0.0,0.0,0.0,0.0,0.0,0.0,0.0,0.0,0.0,0.0,0.0,0.0,0.0,0.0,0.0,0.0,0.0,0.0,0.0,0.0,0.0,0.0,0.0,0.0,0.0,0.0,0.0,0.0,0.0,0.0,0.0,0.0,0.0,0.0,0.0,0.0,0.0,0.0,0.0,0.0,0.0,0.0,0.0,0.0,0.0,0.0,0.0,0.0,0.0,0.0,0.0,0.0,0.0,0.0,0.0,0.0,0.0,0.0,0.0,0.0,0.0,0.0,0.0,0.0,0.0,0.0,0.0,0.0,0.0,0.0,0.0,0.0,0.0,0.0,0.0,0.0,0.0,0.0,0.0,0.0,0.0,0.0,0.0,0.0,0.0,0.0,0.0,0.0,0.0,0.0,1.2083,1.2268,0.0,1.1622,1.1436,1.1818,1.2585,1.2775,1.1913,0.0,0.0,0.0,0.0,0.0,0.0,0.0,0.0,0.0,0.0,0.0,0.0,0.0,0.0,0.0,0.0,0.0,0.0,0.0,0.0,0.0,0.0,0.0,0.0,0.0,0.0,0.0,0.0,0.0,0.0,0.0,0.0,0.0,0.0,0.0,0.0,0.0,0.0,0.0,0.0,0.0,0.0,0.0,0.0,0.0,0.0,0.0,0.0,0.0,0.0,0.0,0.0,0.0,0.0,0.0,0.0,0.0,0.0,0.0,0.0,0.0,0.0,0.0,0.0,0.0,0.0,0.0,0.0,0.0,0.0,0.0,0.0,0.0,0.0,0.0,0.0,0.0,0.0,0.0,0.0,0.0,0.0,0.0,0.0,0.0,0.0,0.0,0.0,0.0,0.0,0.0,0.0,0.0,0.0,0.0,0.0,0.0,0.0,0.0,0.0,0.0,0.0,1.193,1.2047,1.2242,0.0,1.1678,1.1394,1.198,1.2856,1.2953,1.1975,0.0,0.0,0.0,0.0,0.0,0.0,0.0,0.0,0.0,0.0,0.0,0.0,0.0,0.0,0.0,0.0,0.0,0.0,0.0,0.0,0.0,0.0,0.0,0.0,0.0,0.0,0.0,0.0,0.0,0.0,0.0,0.0,0.0,0.0,0.0,0.0,0.0,0.0,0.0,0.0,0.0,0.0,0.0,0.0,0.0,0.0,0.0,0.0,0.0,0.0,0.0,0.0,0.0,0.0,0.0,0.0,0.0,0.0,0.0,0.0,0.0,0.0,0.0,0.0,0.0,0.0,0.0,0.0,0.0,0.0,0.0,0.0,0.0,0.0,0.0,0.0,0.0,0.0,0.0,0.0,0.0,0.0,0.0,0.0,0.0,0.0,0.0,0.0,0.0,0.0,0.0,0.0,0.0,0.0,0.0,0.0,0.0,0.0,0.0,0.0,0.0,0.0,1.215,1.2909,1.3301,1.2754,1.178,1.1389,1.198,1.2662,1.2657,0.0,0.0,0.0,0.0,0.0,0.0,0.0,0.0,0.0,0.0,0.0,0.0,0.0,0.0,0.0,0.0,0.0,0.0,0.0,0.0,0.0,0.0,0.0,0.0,0.0,0.0,0.0,0.0,0.0,0.0,0.0,0.0,0.0,0.0,0.0,0.0,0.0,0.0,0.0,0.0,0.0,0.0,0.0,0.0,0.0,0.0,0.0,0.0,0.0,0.0,0.0,0.0,0.0,0.0,0.0,0.0,0.0,0.0,0.0,0.0,0.0,0.0,0.0,0.0,0.0,0.0,0.0,0.0,0.0,0.0,0.0,0.0,0.0,0.0,0.0,0.0,0.0,0.0,0.0,0.0,0.0,0.0,0.0,0.0,0.0,0.0,0.0,0.0,0.0,0.0,0.0,0.0,0.0,0.0,0.0,0.0,0.0,0.0,0.0,0.0,0.0,0.0,0.0,1.0596,1.2528,1.3403,1.1775,1.1683,1.1975,1.2565,1.2856,1.2657,1.1683,0.0,0.0,0.0,0.0,0.0,0.0,0.0,0.0,0.0,0.0,0.0,0.0,0.0,0.0,0.0,0.0,0.0,0.0,0.0,0.0,0.0,0.0,0.0,0.0,0.0,0.0,0.0,0.0,0.0,0.0,0.0,0.0,0.0,0.0,0.0,0.0,0.0,0.0,0.0,0.0,0.0,0.0,0.0,0.0,0.0,0.0,0.0,0.0,0.0,0.0,0.0,0.0,0.0,0.0,0.0,0.0,0.0,0.0,0.0,0.0,0.0,0.0,0.0,0.0,0.0,0.0,0.0,0.0,0.0,0.0,0.0,0.0,0.0,0.0,0.0,0.0,0.0,0.0,0.0,0.0,0.0,0.0,0.0,0.0,0.0,0.0,0.0,0.0,0.0,0.0,0.0,0.0,0.0,0.0,0.0,0.0,0.0,0.0,0.0,0.0,0.0,0.0,1.0792,1.2436,1.3409,1.2268,1.2073,1.2175,1.2764,1.2953,1.2856,1.2268,0.0,0.0,0.0,0.0,0.0,0.0,0.0,0.0,0.0,0.0,0.0,0.0,0.0,0.0,0.0,0.0,0.0,0.0,0.0,0.0,0.0,0.0,0.0,0.0,0.0,0.0,0.0,0.0,0.0,0.0,0.0,0.0,0.0,0.0,0.0,0.0,0.0,0.0,0.0,0.0,0.0,0.0,0.0,0.0,0.0,0.0,0.0,0.0,0.0,0.0,0.0,0.0,0.0,0.0,0.0,0.0,0.0,0.0,0.0,0.0,0.0,0.0,0.0,0.0,0.0,0.0,0.0,0.0,0.0,0.0,0.0,0.0,0.0,0.0,0.0,0.0,0.0,0.0,0.0,0.0,0.0,0.0,0.0,0.0,0.0,0.0,0.0,0.0,0.0,0.0,0.0,0.0,0.0,0.0,0.0,0.0,0.0,0.0,0.0,0.0,0.0,0.0,1.1955,1.2732,1.3323,1.3437,1.2662,1.2273,1.2764,1.2953,1.305,1.3147,0.0,0.0,0.0,0.0,0.0,0.0,0.0,0.0,0.0,0.0,0.0,0.0,0.0,0.0,0.0,0.0,0.0,0.0,0.0,0.0,0.0,0.0,0.0,0.0,0.0,0.0,0.0,0.0,0.0,0.0,0.0,0.0,0.0,0.0,0.0,0.0,0.0,0.0,0.0,0.0,0.0,0.0,0.0,0.0,0.0,0.0,0.0,0.0,0.0,0.0,0.0,0.0,0.0,0.0,0.0,0.0,0.0,0.0,0.0,0.0,3.3185,0.0,0.0,0.0,0.0,0.0,0.0,0.0,0.0,0.0,0.0,0.0,0.0,0.0,0.0,0.0,0.0,0.0,0.0,0.0,0.0,0.0,0.0,0.0,0.0,0.0,0.0,0.0,0.0,0.0,0.0,0.0,0.0,0.0,0.0,0.0,0.0,0.0,0.0,0.0,0.0,0.0,1.1853,1.3403,1.428,1.3323,1.2851,1.2667,1.2764,1.2861,1.2958,1.305,1.3443,0.0,0.0,0.0,0.0,0.0,0.0,0.0,0.0,0.0,0.0,0.0,0.0,0.0,0.0,0.0,0.0,0.0,0.0,0.0,0.0,0.0,0.0,0.0,0.0,0.0,0.0,0.0,0.0,0.0,0.0,0.0,0.0,0.0,0.0,0.0,0.0,0.0,0.0,0.0,0.0,0.0,0.0,0.0,0.0,0.0,0.0,0.0,0.0,0.0,0.0,0.0,0.0,0.0,0.0,0.0,0.0,0.0,0.0,0.0,0.0,3.2605,0.0,0.0,0.0,0.0,0.0,0.0,0.0,0.0,0.0,0.0,0.0,0.0,0.0,0.0,0.0,0.0,0.0,0.0,0.0,0.0,0.0,0.0,0.0,0.0,0.0,0.0,0.0,0.0,0.0,0.0,0.0,0.0,0.0,0.0,0.0,0.0,0.0,0.0,0.0,0.0,1.1184,1.2737,1.3619,1.2646,1.2759,1.2764,1.2764,1.2764,1.2861,1.305,1.3346,0.0,0.0,0.0,0.0,0.0,0.0,0.0,0.0,0.0,0.0,0.0,0.0,0.0,0.0,0.0,0.0,0.0,0.0,0.0,0.0,0.0,0.0,0.0,0.0,0.0,0.0,0.0,0.0,0.0,0.0,0.0,0.0,0.0,0.0,0.0,0.0,0.0,0.0,0.0,0.0,0.0,0.0,0.0,0.0,0.0,0.0,0.0,0.0,0.0,0.0,0.0,0.0,0.0,3.4562,3.3991,3.3812,3.3195,3.3134,3.34,3.3212,3.3394,3.3673,0.0,0.0,0.0,0.0,0.0,0.0,0.0,0.0,0.0,0.0,0.0,0.0,0.0,0.0,0.0,0.0,0.0,0.0,0.0,0.0,0.0,0.0,0.0,0.0,0.0,2.2466,2.2293,0.0,0.0,0.0,0.0,0.0,0.0,0.0,0.0,0.0,0.0,0.0,0.0,1.0797,1.1975,1.2759,1.2365,1.2565,1.2764,1.2764,1.2764,1.2861,1.305,1.3346,1.3636,0.0,0.0,0.0,0.0,0.0,0.0,0.0,0.0,0.0,0.0,0.0,0.0,0.0,0.0,0.0,0.0,0.0,0.0,0.0,0.0,0.0,0.0,0.0,0.0,0.0,0.0,0.0,0.0,0.0,0.0,0.0,0.0,4.1026,4.1043,0.0,0.0,0.0,0.0,0.0,0.0,0.0,0.0,0.0,0.0,0.0,0.0,0.0,3.6245,3.5095,3.6061,3.5902,3.4534,3.5382,3.5667,3.5489,3.516,3.5015,3.504,3.4281,0.0,3.3591,3.3072,0.0,0.0,0.0,0.0,0.0,0.0,0.0,0.0,0.0,0.0,0.0,0.0,0.0,0.0,0.0,0.0,0.0,0.0,0.0,0.0,0.0,0.0,2.53,2.4409,2.3543,2.2675,0.0,1.9879,1.83,1.7357,1.6154,0.0,0.0,0.0,0.0,0.0,0.0,0.0,1.2047,1.2635,1.3221,1.3613,1.3141,1.2764,1.2764,1.2764,1.2861,1.305,1.3346,1.3636,1.3931,1.4112,0.0,0.0,0.0,0.0,0.0,0.0,0.0,0.0,0.0,0.0,0.0,0.0,0.0,0.0,0.0,0.0,0.0,0.0,0.0,0.0,0.0,0.0,0.0,0.0,0.0,0.0,0.0,0.0,0.0,4.0692,4.0412,4.0466,3.99,3.9172,0.0,0.0,0.0,0.0,0.0,0.0,0.0,0.0,0.0,3.7308,3.7369,3.7157,3.6832,3.6862,3.6602,3.5852,3.5549,3.535,3.5126,3.4587,3.4336,3.4211,3.379,3.3602,3.3382,3.2975,3.2552,3.2051,0.0,0.0,0.0,0.0,3.0136,3.0316,3.0983,3.1048,0.0,0.0,0.0,0.0,0.0,0.0,0.0,0.0,0.0,0.0,0.0,0.0,0.0,2.3975,2.2697,2.1264,2.0619,1.8846,1.725,0.0,1.6462,1.51,1.3431,0.0,0.0,0.0,0.0,0.0,1.2145,1.2349,1.2554,1.2845,1.2851,1.2764,1.2764,1.2764,1.2861,1.2958,1.3147,1.3346,1.3443,1.3534,1.3335,0.0,0.0,0.0,0.0,0.0,0.0,0.0,0.0,0.0,0.0,0.0,0.0,0.0,0.0,0.0,0.0,0.0,0.0,0.0,0.0,0.0,0.0,0.0,0.0,0.0,0.0,0.0,0.0,4.047,4.0139,4.0138,3.9463,3.8718,0.0,0.0,0.0,0.0,0.0,0.0,3.7125,3.7107,3.7353,3.7857,3.767,3.7665,3.7883,3.7002,3.6481,3.6295,3.5131,3.4496,3.4242,3.3762,3.3466,3.3326,3.3354,3.3354,3.3312,3.2947,3.2779,3.261,3.1709,3.1258,3.1164,3.0972,3.095,3.1074,3.1656,3.1683,3.1607,3.1492,0.0,2.9877,2.9856,0.0,0.0,0.0,0.0,2.4493,2.4237,2.3767,2.3329,2.2987,2.1401,1.9927,1.9532,1.7841,1.664,0.0,1.6605,1.5464,1.3838,0.0,0.0,0.0,0.0,1.1755,1.158,1.1683,1.1883,1.198,1.2467,1.2764,1.2764,1.2764,1.2764,1.2764,1.2958,1.3147,1.3147,1.3147,1.3147,1.3147,0.0,0.0,0.0,0.0,0.0,0.0,0.0,0.0,0.0,0.0,0.0,0.0,0.0,0.0,0.0,0.0,0.0,0.0,0.0,0.0,0.0,0.0,0.0,0.0,0.0,0.0,0.0,0.0,0.0,4.0037,3.981,0.0,0.0,0.0,0.0,3.7422,3.7062,3.7109,3.7616,3.7673,3.7874,3.8343,3.7584,3.6949,3.6485,3.5518,3.4667,3.4044,3.3776,3.3522,3.3354,3.334,3.3326,3.3326,3.3494,3.348,3.3326,3.3312,3.3045,3.2639,3.2011,3.1527,3.1263,3.1642,3.1837,3.2179,3.3152,3.3071,3.2502,3.1719,3.0296,2.8688,2.7878,2.7494,0.0,0.0,2.6157,2.4985,2.577,2.4563,2.2804,2.1655,2.043,1.9309,1.8348,1.7122,1.6353,0.0,1.6574,1.6147,1.4884,0.0,1.3883,1.1512,1.122,1.1072,1.0542,1.0918,1.1487,1.198,1.2467,1.2764,1.2764,1.2764,1.2764,1.2764,1.2958,1.3147,1.3147,1.3346,1.3346,1.3147,1.3147,0.0,0.0,0.0,0.0,0.0,0.0,0.0,0.0,0.0,0.0,0.0,0.0,0.0,0.0,0.0,0.0,0.0,0.0,0.0,0.0,0.0,0.0,0.0,0.0,0.0,0.0,0.0,0.0,3.9598,3.9384,0.0,3.8456,3.8254,3.806,3.788,3.7745,3.7713,3.7834,3.7633,3.7448,3.7279,3.7038,3.6648,3.6009,3.5379,3.4883,3.4539,3.4058,3.3663,3.3494,3.3635,3.3522,3.3326,3.3494,3.3479,3.3306,3.3283,3.3213,3.3059,3.2877,3.2666,3.2607,3.2712,3.2809,3.2766,3.2088,3.1734,3.1375,3.0134,2.9743,2.9547,2.8627,2.8263,2.7989,2.6759,2.5844,2.502,2.4167,2.331,2.2397,2.1325,2.0124,1.8939,1.8048,1.6809,1.5947,1.6048,1.6218,1.5974,1.4905,1.4746,1.4148,1.241,1.1628,1.1263,1.1404,1.1301,1.1389,1.1975,1.2467,1.2764,1.2764,1.2764,1.2764,1.2764,1.2861,1.2953,1.2953,1.2958,1.2958,1.2953,1.2953,1.2662,0.0,0.0,0.0,0.0,0.0,0.0,0.0,0.0,0.0,0.0,0.0,0.0,0.0,0.0,0.0,0.0,0.0,0.0,0.0,0.0,0.0,0.0,0.0,0.0,0.0,0.0,3.988,3.9345,3.9239,3.9024,3.8578,3.8513,3.8482,3.8327,3.827,3.81,3.7727,3.7526,3.7155,3.6542,3.6409,3.6095,3.5642,3.5024,3.4683,3.4562,3.4111,3.3801,3.3632,3.3804,3.3747,3.3394,3.3663,3.3619,3.3417,3.3536,3.3368,3.3087,3.3227,3.3326,3.3326,3.3326,3.3157,3.2736,3.1342,3.0711,3.0329,2.9427,2.9408,2.9561,2.8906,2.8662,2.8383,2.6747,2.5961,2.5279,2.3693,2.2631,2.1642,2.0576,1.9358,1.824,1.7246,1.6374,1.5832,1.5832,1.594,1.5832,1.519,1.4766,1.4118,1.2889,1.1991,1.1477,1.1482,1.1487,1.159,1.198,1.2467,1.2764,1.2764,1.2764,1.2764,1.2764,1.2764,1.2764,1.2764,1.2764,1.2764,1.2764,1.2764,1.257,1.198,0.0,0.0,0.0,0.0,0.0,0.0,0.0,0.0,0.0,0.0,0.0,0.0,0.0,0.0,0.0,0.0,0.0,0.0,0.0,0.0,0.0,0.0,0.0,4.0486,4.0234,3.9935,3.9396,3.9558,3.9545,3.9053,3.902,3.892,3.8804,3.8683,3.8216,3.7421,3.7344,3.7049,3.6383,3.5539,3.5172,3.536,3.4364,3.3899,3.3854,3.3854,3.3729,3.3561,3.3787,3.373,3.3561,3.3872,3.3804,3.3579,3.3889,3.3466,3.2723,3.3157,3.3312,3.3213,3.3227,3.2708,3.1891,3.1151,3.0348,2.9677,2.9677,2.9151,2.851,2.851,2.8443,2.8247,2.7357,2.6457,2.5497,2.4355,2.2544,2.0683,1.9353,1.8193,1.7028,1.6042,1.5832,1.5832,1.5832,1.5832,1.5832,1.5832,1.4975,1.3951,1.2833,1.2283,0.0,1.0493,1.138,1.198,1.198,1.2467,1.2764,1.2764,1.2764,1.2764,1.2764,1.2764,1.2764,1.2764,1.2764,1.2764,1.2764,1.2759,1.2565,1.198,0.0,0.0,0.0,0.0,0.0,0.0,0.0,0.0,0.0,0.0,0.0,0.0,0.0,0.0,0.0,0.0,0.0,0.0,0.0,0.0,0.0,0.0,4.1047,4.059,4.0453,4.0222,3.98,3.9692,3.9611,3.9392,3.9156,3.8966,3.8821,3.801,3.7342,3.707,3.6379,3.5681,3.5185,3.5019,3.4787,3.4303,3.3733,3.3343,3.3239,3.2833,3.2512,3.2283,3.2495,3.2438,3.2117,3.2305,3.2291,3.2053,3.2178,3.2039,3.1943,3.3087,3.2779,3.1803,3.2234,3.1542,3.0368,3.0124,2.9536,2.879,2.879,2.8662,2.851,2.851,2.8046,2.7379,2.6398,2.5409,2.4273,2.3202,2.1825,2.038,1.9201,1.8044,1.7028,1.6042,1.5832,1.5832,1.5832,1.5832,1.5832,1.5832,1.4975,1.3951,1.2833,1.2335,0.0,1.0583,1.138,1.198,1.198,1.2467,1.2764,1.2764,1.2764,1.2764,1.2764,1.2764,1.2764,1.2764,1.2764,1.2764,1.2764,1.237,1.2175,0.0,0.0,0.0,0.0,0.0,0.0,0.0,0.0,0.0,0.0,0.0,0.0,0.0,0.0,0.0,0.0,0.0,0.0,0.0,0.0,0.0,0.0,4.1398,4.1011,4.0452,4.0217,4.0003,3.9632,3.9259,3.893,3.8735,3.8513,3.8311,3.8093,3.7429,3.6838,3.6429,3.5779,3.5175,3.4583,3.4303,3.3994,3.3643,3.3058,3.2638,3.2475,3.2223,3.2028,3.1789,3.2027,3.1915,0.0,3.1829,3.1788,3.1622,3.1748,3.151,0.0,0.0,0.0,0.0,0.0,3.0726,2.9806,2.9432,2.893,2.851,2.851,2.851,2.851,2.851,2.7871,2.7026,2.6097,2.5099,2.3987,2.2713,2.132,1.9887,1.8968,1.7695,1.6483,1.594,1.5832,1.5832,1.5832,1.5832,0.0,1.5832,1.462,1.3488,1.3068,1.2294,1.1541,1.1082,1.1775,1.237,1.237,1.257,1.2764,1.2764,1.2764,0.0,0.0,0.0,1.2764,1.2764,1.2764,0.0,0.0,0.0,1.2657,1.237,0.0,0.0,0.0,1.1,1.0157,0.0,0.0,0.0,0.0,0.0,0.0,0.0,0.0,0.0,0.0,0.0,0.0,0.0,0.0,0.0,0.0,4.1155,4.0858,4.013,3.9731,3.9429,3.9191,3.8517,3.7956,3.7709,3.7633,3.7442,3.7177,3.6942,3.6473,3.5762,0.0,0.0,0.0,0.0,3.3132,3.3083,3.2373,3.1888,3.1694,3.1824,3.1798,3.1565,3.1798,3.1707,3.1565,3.1798,3.1707,3.1565,3.1798,3.141,3.0842,3.1139,3.129,3.1231,3.0431,3.0015,2.9769,2.9114,0.0,0.0,2.8522,2.8522,2.8443,2.8378,2.774,2.6874,2.5883,2.5047,2.4025,2.2792,2.0979,1.9405,1.8972,1.7311,1.5832,1.5832,1.5832,1.5832,1.5832,1.5825,1.5832,1.5832,1.428,1.3136,1.3465,1.2365,1.157,1.1975,1.2467,1.2764,1.2764,0.0,0.0,1.2764,1.2764,1.2764,1.2764,1.2764,1.2764,1.2764,1.2764,1.2764,1.2764,1.3431,1.3426,1.2764,1.4166,1.3446,1.0872,1.0469,0.9888,0.0,0.0,0.0,0.0,0.0,0.0,0.0,0.0,0.0,0.0,0.0,0.0,0.0,0.0,0.0,4.1469,4.0926,4.0476,4.0201,3.945,3.8934,3.885,3.8448,3.8062,3.7989,3.7779,3.7514,3.7343,3.672,3.6224,3.5881,3.4738,0.0,3.3951,3.3211,3.2723,3.256,3.1902,3.1431,3.11,0.0,0.0,3.0188,3.02,3.02,3.0188,3.02,3.02,3.0188,3.02,3.0175,3.0035,2.9894,3.01,3.0394,2.9639,2.9303,2.9238,2.912,2.8906,2.8766,2.8766,2.8638,2.839,2.7674,2.6841,0.0,2.5034,2.4092,2.3291,2.2813,2.115,1.9405,1.9139,1.7397,1.5832,1.5832,1.5832,1.5832,1.5832,1.5933,1.6123,1.6123,1.5267,1.4412,1.3562,1.3255,1.2754,1.2073,1.2467,1.2764,1.2764,1.2764,1.2764,1.2764,1.2764,1.2764,1.2764,1.2764,1.2764,1.2764,1.2764,1.2764,1.2764,1.2953,1.2953,1.2764,1.2857,1.2252,1.0868,1.1253,1.0504,0.0,0.0,0.0,0.0,0.0,0.0,0.0,0.0,0.0,0.0,0.0,4.2216,0.0,0.0,4.1361,4.0822,4.0443,4.0034,3.9644,3.9106,3.8631,3.8449,3.7951,3.7452,3.7173,3.6984,3.6853,3.6732,3.5814,3.5234,3.5104,3.3914,3.3229,3.3239,3.2536,3.2023,3.1985,3.0714,3.0011,2.9821,2.9235,2.8889,2.8774,2.9118,2.9142,2.9118,2.9118,2.9015,2.8991,2.9257,2.9524,2.9792,2.9651,2.9779,3.0035,2.9639,2.9384,2.9204,2.916,2.9003,2.8797,2.8681,2.8268,2.7752,2.7314,2.626,2.506,2.46,2.3847,2.296,2.2246,2.0881,1.9513,1.8788,1.7412,1.6204,1.6204,1.6204,1.6204,1.6204,1.6305,1.6407,1.6407,1.5832,1.5172,1.4226,1.3346,1.2662,1.2467,1.2662,1.2764,1.2764,1.2764,1.2764,1.2764,1.2861,1.2953,1.2953,1.2953,1.2861,1.2764,1.2764,1.2764,1.2764,1.3147,1.3086,1.2587,1.2847,1.228,1.0939,1.1,1.0257,0.0,0.0,0.0,0.0,0.0,0.0,0.0,0.0,4.2542,4.2471,4.2287,4.1996,4.1558,4.1343,4.092,4.0132,3.9934,3.9644,3.9069,3.8788,3.8529,3.7986,3.7436,3.694,3.643,3.6198,3.6056,3.5918,3.4912,3.4221,3.4037,3.3064,3.2417,3.2278,3.1382,3.0859,3.0833,2.9251,2.842,2.8325,2.7922,2.7645,2.7627,2.81,2.8225,2.8112,2.8098,2.811,2.8047,2.8464,2.8991,2.9524,2.9512,2.9384,2.9269,2.9651,2.9651,2.9422,2.9269,2.9077,2.879,2.8438,2.7862,2.7107,2.6758,2.5662,2.4456,2.4317,2.372,2.2862,2.1695,2.061,1.9621,1.8442,1.7333,1.6588,1.6588,1.6588,1.6588,1.6588,1.6683,1.6683,1.6683,1.6156,1.5569,1.4777,1.3335,1.2462,1.2764,1.2764,1.2764,1.2861,1.2861,1.2861,1.2958,1.305,1.3147,1.3147,1.3147,1.305,1.2861,1.2861,1.2743,1.2694,1.3358,1.3239,1.2344,1.2944,1.2437,1.0985,1.0573,0.9835,4.3603,4.3196,4.2882,4.2882,4.2846,4.2792,0.0,0.0,4.2471,4.2364,4.1943,4.1558,4.1505,4.078,4.0132,4.0037,3.9628,3.9272,3.9036,3.8966,3.8607,3.7622,3.7567,3.7452,3.6971,3.6322,3.5829,3.5505,3.4783,3.3988,3.3115,3.2314,3.1487,3.0693,2.939,2.8625,2.8487,2.7951,2.7532,2.7188,2.7274,2.7297,2.7088,2.7182,2.7182,2.7126,2.7189,2.7405,2.7812,2.7702,2.7992,2.8509,2.8358,2.7854,2.7466,2.9142,2.9779,2.9767,2.9767,2.944,2.896,2.8168,2.7554,2.6863,2.5322,2.4682,2.4328,2.3495,2.3154,2.2872,2.1882,2.0791,1.9621,1.8619,1.7419,1.6588,1.6588,1.6588,1.6588,1.6588,1.6784,1.6979,1.6979,1.6264,1.5511,1.4841,1.41,1.3426,1.2856,1.2764,1.2861,1.305,1.305,1.3152,1.3443,1.3443,1.3443,1.3443,1.3249,1.305,1.305,1.2861,1.2662,1.2457,1.2547,1.2427,1.2086,1.1972,1.1573,1.098,1.068,1.0067,4.3287,4.3029,0.0,0.0,4.2864,4.2828,4.2755,4.2681,4.2542,4.2162,4.1813,4.1449,4.0853,4.0341,3.9934,0.0,3.9458,3.9375,3.9206,3.8884,3.848,3.7892,3.7559,3.7048,3.6322,3.5753,3.5281,3.4706,3.3868,3.3038,3.2205,3.0993,3.0134,2.9737,2.8755,2.8273,2.8174,2.7226,2.6517,2.6033,2.5683,2.5362,2.5001,2.5344,2.5451,2.5286,2.5217,2.5432,2.5993,2.6186,2.6478,2.6723,2.6723,2.6287,2.5937,2.7521,2.8106,2.8106,2.798,2.7777,2.7632,2.7392,2.6472,2.5389,2.4864,2.4169,2.3612,2.3164,2.3135,2.2775,2.123,2.0421,1.9695,1.8149,1.7279,1.6778,1.6778,1.6634,1.6497,1.6497,1.6595,1.6693,1.6693,1.6389,1.5972,1.546,1.4284,1.3461,1.3548,1.345,1.3689,1.4678,1.4233,1.4111,1.4549,1.4106,1.4016,1.4567,1.3913,1.3727,1.419,1.3945,1.3443,1.2609,1.3008,1.2711,1.1844,1.1747,1.154,1.1144,1.0773,1.0376,4.3047,0.0,0.0,4.2882,4.2882,4.2864,4.2828,4.2688,4.249,4.2016,4.1587,4.1105,4.0404,4.0051,3.9797,3.9458,3.9458,3.9495,3.9418,3.8941,3.8433,3.8004,3.7157,3.6252,3.5375,3.5109,3.4676,3.3888,3.2736,3.1776,3.1061,2.9683,2.8798,2.8462,2.778,2.7334,2.6989,2.5841,2.4989,2.451,2.3943,2.3583,2.3444,2.3886,2.3991,2.377,2.3653,2.3875,2.4354,2.4658,2.4896,2.514,2.5165,2.4786,2.4357,2.5274,2.5861,2.6193,2.6071,2.5961,2.591,2.5824,2.4876,2.374,2.3804,2.3143,2.2432,2.2432,2.2339,2.1806,2.0122,1.9669,1.9118,1.7423,1.6887,1.6718,1.6718,1.6535,1.6367,1.6367,1.6455,1.6551,1.6551,1.6557,1.6585,1.6301,1.4906,1.3945,1.4443,1.4372,1.4714,1.5833,1.5322,1.5134,1.5617,1.491,1.4822,1.5545,1.491,1.4546,1.4816,1.4791,1.4191,1.3038,1.3471,1.3147,1.2031,1.1778,1.1515,1.1262,1.0992,1.0722,4.29,4.2882,4.2882,4.2882,4.2882,4.2864,4.2828,4.2427,4.2082,4.1917,4.1103,4.046,4.0414,4.0017,3.9731,3.9714,3.9714,3.9687,3.9699,3.9187,3.852,3.7728,3.636,3.515,0.0,3.4376,3.3973,3.2835,3.1636,3.0486,2.9345,2.8581,2.7668,2.6503,2.5966,2.5087,2.3908,2.3336,2.2711,2.2223,2.218,2.2536,2.3235,2.3247,2.3135,2.2935,2.2935,2.3147,2.3548,2.3323,2.3616,2.4092,2.3904,2.3345,2.2608,2.235,2.3171,2.4461,2.4496,2.4321,2.4041,2.3194,2.2791,2.2391,2.1486,2.1033,2.0888,2.0888,2.0451,1.9779,1.878,1.8201,1.7597,1.6654,1.6389,1.6382,1.6382,1.6374,1.6367,1.6367,1.6727,1.7007,1.7007,1.7079,1.7194,1.7194,1.6293,1.5529,1.5348,1.5602,1.5793,1.58,1.5991,1.6183,1.619,1.619,1.6102,1.619,1.5917,1.5383,1.4514,1.5102,1.4858,1.3711,1.3698,1.3467,1.2942,1.2123,1.1532,1.1262,1.1262,1.0997,4.3029,4.2992,4.2882,4.2882,4.2882,4.281,4.2482,4.2282,4.1974,4.1321,4.0834,4.0426,4.012,3.9849,3.968,3.968,3.9782,3.9648,3.9143,3.8639,3.7824,3.6631,3.5703,0.0,0.0,0.0,0.0,3.1545,3.0931,3.0043,2.8652,2.793,2.7023,2.5859,2.4874,2.3873,2.2801,2.2213,2.1611,2.1096,2.1076,2.1202,2.1483,2.1972,2.2169,2.2094,2.2111,2.2119,2.2131,2.2341,2.2375,2.2173,2.2186,2.1789,2.1206,2.0899,2.0941,2.1311,2.2196,2.2465,2.2467,2.2435,2.1933,2.1393,2.1334,2.1185,2.1091,2.139,2.1014,2.0451,1.971,1.9118,1.8456,1.7517,1.7085,1.6915,1.6915,1.6738,1.6576,1.6576,1.6752,1.6836,1.6836,1.6826,1.6996,1.7326,1.6802,1.6299,1.6072,1.6545,1.7067,1.7621,1.7149,1.6898,1.7208,1.661,1.6514,1.7136,1.6514,1.6242,1.661,1.6568,1.5957,1.4809,1.4617,1.4382,1.4112,1.2619,1.2203,1.2699,1.1946,1.144,4.3084,4.301,4.2882,4.2882,4.2774,4.2573,4.2264,4.1944,4.1552,4.0927,4.0612,4.0358,4.002,3.9885,3.9783,3.9564,3.9598,3.9413,3.869,3.7953,3.7094,3.6107,3.5002,3.3849,0.0,0.0,0.0,3.0675,2.9964,2.9137,2.8127,2.7132,2.6116,2.5083,2.41,2.2933,2.1662,2.1221,2.0744,2.0154,2.0413,2.0516,2.0449,2.1187,2.149,2.1416,2.1651,2.1647,2.1549,2.1863,2.1713,2.1256,2.1354,2.1146,2.0767,2.0389,2.0158,2.0074,2.0676,2.0775,2.0729,2.1059,2.0726,2.0227,2.0524,2.0571,2.0616,2.0898,2.0508,1.9921,1.9516,1.888,1.8077,1.7499,1.7154,1.6988,1.6988,1.6806,1.673,1.673,1.682,1.6984,1.6984,1.7057,1.7302,1.7554,1.7383,1.7139,1.6952,1.7375,1.7801,1.8365,1.7813,1.757,1.779,1.7203,1.7118,1.7815,1.7211,1.7032,1.7288,1.7427,1.6956,1.5841,1.5725,1.5372,1.4789,1.3288,1.2705,1.2869,1.2118,1.1785,4.3123,4.3029,4.29,4.2882,4.2555,4.219,4.2168,4.1463,4.0798,4.0781,4.0425,4.0087,0.0,0.0,3.9935,3.9278,3.9244,3.8974,3.832,3.7211,3.6306,0.0,0.0,0.0,0.0,0.0,0.0,3.0308,0.0,2.7933,2.7655,2.6362,2.5196,2.4238,2.3523,2.2274,2.0432,2.0332,1.9954,1.9281,1.9975,2.0237,2.0081,2.0745,2.0989,2.0919,2.1587,2.1794,2.1634,2.1682,2.1602,2.1406,2.1418,2.1331,2.1146,2.0767,2.0647,2.0478,1.9856,1.9414,1.9142,1.9131,1.9152,1.9173,1.9173,1.9359,1.9522,1.9553,1.8976,1.8371,1.8389,1.7581,1.6738,1.6738,1.6738,1.6738,1.6738,1.6738,1.6738,1.6738,1.7147,1.7392,1.7392,1.7716,1.804,1.804,1.804,1.804,1.804,1.804,1.804,1.804,1.804,1.804,1.804,1.804,1.804,1.804,1.804,1.7619,1.678,1.7538,1.7619,1.678,1.6698,1.6198,1.5123,1.4203,1.3203,1.2209,1.2037,1.2043,4.3177,4.3101,4.3047,4.29,4.2555,4.2099,4.1765,4.1229,4.0679,4.0375,4.0256,4.0239,0.0,0.0,0.0,3.9446,3.9456,0.0,3.7385,3.7093,0.0,3.4925,0.0,3.3106,3.2413,3.1116,0.0,0.0,2.9518,2.8425,2.6706,2.6257,2.5065,2.2884,2.2306,2.1504,2.0232,1.9727,1.9178,1.871,1.9474,1.9807,1.9719,2.0389,2.0629,2.0545,2.1222,2.1393,2.1125,2.1608,2.1741,2.1643,2.1434,2.1354,2.1331,2.1135,2.0853,2.0606,2.0388,2.0151,1.9781,1.9528,1.9716,1.9933,1.9719,1.9903,2.0256,2.0607,1.9885,1.9068,1.9434,1.8576,1.7708,1.7708,1.7708,1.7708,1.7708,1.7708,1.7708,1.7708,1.7797,1.7878,1.7878,1.7951,1.804,1.804,1.804,1.804,1.804,1.804,1.804,1.804,1.804,1.804,1.804,1.804,1.804,1.804,1.804,1.787,1.77,1.787,1.787,1.77,1.7033,1.687,1.7204,1.5039,1.4132,1.4468,1.296,1.2283,4.3287,4.3232,4.3119,4.3047,4.2663,4.2199,4.1785,4.1273,4.0815,4.0375,4.0358,0.0,4.0419,0.0,0.0,0.0,0.0,0.0,3.6899,3.6506,3.5935,0.0,3.3535,0.0,3.2152,3.1071,3.015,0.0,2.8803,2.7746,2.6505,2.5612,2.4275,2.2419,2.1876,2.1124,2.0161,1.9756,1.9425,1.9142,1.9328,1.9412,1.9401,1.9952,2.0149,2.007,0.0,2.091,2.0811,2.1113,2.1125,2.1028,2.1128,2.1112,2.1112,2.1313,2.125,2.1066,2.0955,2.1009,2.0951,2.0324,2.0374,2.0554,2.061,2.0854,2.1278,2.1543,2.0941,2.0234,2.0139,1.9283,1.8362,1.804,1.804,1.804,1.804,1.804,1.804,1.804,1.8201,1.8282,1.8201,1.8282,1.829,1.829,1.829,1.829,1.829,1.8121,1.804,1.804,1.804,1.804,1.804,1.804,1.804,1.804,1.8112,1.8201,1.8201,1.8282,1.829,1.829,1.7861,1.761,1.77,1.6198,1.5289,1.4963,1.3789,1.3033,4.3406,4.3341,4.3213,4.3194,4.2848,4.2393,4.2073,4.1521,4.0983,4.0661,0.0,4.0523,4.0504,4.0397,3.9987,3.916,0.0,3.8081,3.6556,3.5764,3.5085,3.428,3.3155,3.2248,3.1753,3.107,3.0194,2.9142,2.7449,2.6469,2.6436,2.476,2.3401,2.2428,2.1736,2.1037,2.0195,2.0172,2.0072,1.9952,1.9581,1.9351,1.9239,1.9523,1.9621,1.9621,0.0,0.0,2.0631,2.0557,2.0495,2.0495,2.0795,2.0908,2.0857,2.1506,2.1686,2.1698,2.1607,2.1864,2.2108,2.1219,2.1083,2.1191,2.1585,2.2056,2.2368,2.2368,2.1914,2.1298,2.0663,1.9747,1.8843,1.8201,1.8121,1.8121,1.8121,1.8121,1.8121,1.8121,1.8451,1.8612,1.8442,1.8612,1.87,1.87,1.87,1.87,1.87,1.8362,1.8121,1.8121,1.8121,1.8121,1.8121,1.8121,1.8121,1.8121,1.8282,1.8442,1.8442,1.8612,1.87,1.87,1.87,1.8362,1.7602,1.744,1.6445,1.4615,1.4531,1.3866,4.3513,4.3463,4.3428,4.3246,4.2864,4.2484,4.2413,4.1732,0.0,0.0,4.0827,4.0689,4.0668,4.038,3.9918,3.9294,0.0,0.0,0.0,0.0,3.4855,0.0,0.0,0.0,0.0,0.0,0.0,0.0,0.0,2.5489,2.5135,2.4416,2.333,2.191,2.1539,2.1158,2.0767,2.0587,2.0351,2.007,1.9984,1.9966,1.9905,1.9993,1.9796,1.9425,2.072,0.0,2.0621,2.1194,2.1752,2.2191,2.1371,2.1404,2.1904,2.1741,2.1678,2.1749,2.2168,2.2403,2.229,2.1585,2.1866,2.2406,2.227,2.2488,2.287,2.287,2.1931,2.0914,2.076,1.9766,1.8692,1.862,1.8612,1.8612,1.8612,1.8612,1.8612,1.8612,1.8612,1.87,1.862,1.87,1.87,1.87,1.87,1.87,1.87,1.862,1.8612,1.8612,1.8612,1.8612,1.8612,1.8612,1.8612,1.8612,1.8612,1.862,1.862,1.87,1.87,1.87,1.87,1.862,1.8451,1.7772,1.6854,1.5703,1.4949,1.4126,4.3675,4.3667,4.3642,4.3516,4.3351,4.3114,4.286,0.0,0.0,0.0,4.1276,4.1108,4.1004,0.0,0.0,0.0,0.0,0.0,0.0,0.0,0.0,0.0,0.0,0.0,0.0,0.0,0.0,0.0,0.0,2.523,2.4684,2.3616,2.2688,2.1957,2.1675,2.1463,2.1331,2.1233,2.1049,2.0767,2.0572,2.0448,2.0357,2.0172,1.9976,1.9738,2.0721,0.0,2.0665,2.1152,2.1486,2.1678,2.146,2.1568,2.1933,2.2151,2.2318,2.2531,2.2691,2.3078,2.3329,2.29,2.3087,2.3395,2.3455,2.3632,2.3751,2.3666,2.2681,2.1538,2.1221,2.0148,1.9073,1.8772,1.87,1.87,1.87,1.8772,1.8851,1.87,1.8851,1.9002,1.8843,1.8922,1.9002,1.9002,1.9002,1.9002,1.9002,1.9082,1.9011,1.87,1.87,1.87,1.87,1.87,1.87,1.87,1.8772,1.8851,1.8851,1.8922,1.9002,1.9002,1.9002,1.9002,1.9002,1.8576,1.7836,1.6846,1.6026,1.5039,4.3844,4.3814,4.38,4.3781,4.3781,4.3708,4.3343,4.3015,0.0,4.2044,4.1789,4.1608,4.1337,4.1331,4.1026,0.0,3.9166,0.0,0.0,0.0,0.0,0.0,0.0,0.0,0.0,0.0,0.0,0.0,0.0,0.0,2.421,2.2984,2.2297,2.2296,2.199,2.1827,2.1816,2.1729,2.1619,2.1434,2.1308,2.1158,2.1037,2.0744,2.0561,2.0497,2.1014,0.0,0.0,2.1248,2.1425,2.1397,2.1655,2.185,2.2007,2.2641,2.3058,2.3247,2.3438,2.3857,2.4417,2.4386,2.4283,2.4225,2.4517,2.4574,2.4502,2.4345,2.3372,2.2306,2.1745,2.075,1.9835,1.9311,1.9082,1.8931,1.8931,1.9082,1.9161,1.9011,1.9231,1.9381,1.9231,1.9311,1.946,1.946,1.946,1.946,1.946,1.9548,1.9478,1.9011,1.8931,1.8931,1.894,1.8931,1.8931,1.894,1.9002,1.9161,1.9152,1.9222,1.9301,1.946,1.9301,1.9301,1.9381,1.9381,1.8816,1.7819,1.7009,1.5988,4.3931,4.3899,4.3868,4.3812,4.3794,4.3794,4.3757,0.0,4.2975,4.2669,4.2246,4.1893,4.1598,4.1328,4.076,3.9578,3.8533,3.7396,0.0,0.0,0.0,0.0,0.0,0.0,0.0,0.0,0.0,0.0,0.0,0.0,2.3248,2.2882,2.2677,2.2665,2.2308,2.2123,2.2135,2.1842,2.1658,2.1658,2.2186,2.2428,2.2428,2.2242,2.2009,2.1649,2.2091,0.0,0.0,2.2259,2.2808,2.3267,2.2561,2.2623,2.303,2.3455,2.3566,2.3624,2.4541,2.481,2.482,2.5305,2.5122,2.4731,2.4778,2.479,2.479,2.4718,2.3582,2.236,2.236,2.1669,2.0981,2.0904,2.0313,1.9784,1.9784,1.9784,1.9784,1.9784,1.9784,1.9863,1.9784,1.9863,1.9863,1.9863,1.9863,1.9863,1.9863,1.9863,1.9863,1.9784,1.9784,1.9715,1.9566,1.9706,1.9715,1.9566,1.9557,1.9636,1.9784,1.946,1.946,1.9863,1.946,1.939,1.9557,1.9557,1.9134,1.8221,1.7577,1.6597,4.3999,4.3968,4.3949,4.3931,4.3931,4.3931,4.3931,0.0,4.3259,4.286,4.2663,4.2395,4.1991,4.1961,4.1586,4.036,3.9145,3.7925,3.6686,0.0,0.0,0.0,0.0,0.0,0.0,0.0,0.0,0.0,0.0,0.0,2.3577,2.3195,2.2919,2.2812,2.2604,2.2519,2.2492,2.2271,2.2087,2.2002,2.2539,2.2739,2.2635,2.2936,2.299,2.2814,2.3096,0.0,0.0,2.3262,2.3487,2.3556,2.3251,2.3217,2.3416,2.3571,2.369,2.3778,2.4213,2.4378,2.4487,2.4707,2.4645,2.4494,2.4862,2.4992,2.4992,2.4861,2.3644,2.251,2.2936,2.2113,2.1135,2.1135,2.0469,1.9863,1.9863,1.9863,1.9863,1.9863,1.9863,1.9863,1.9863,1.9863,1.9863,1.9863,1.9863,1.9863,1.9863,2.002,2.0108,2.0108,2.002,1.9863,1.9794,1.9863,1.9863,1.9794,1.9794,1.9794,1.9863,1.9784,1.9706,1.9863,1.9706,1.9706,1.9794,1.9794,1.9496,1.8857,1.8057,1.7058,4.4258,4.4188,4.4153,4.4147,4.4135,4.4135,0.0,0.0,4.3732,4.3256,4.3124,4.2951,4.249,4.2382,4.1916,4.0684,3.9244,3.7878,3.6683,0.0,0.0,0.0,0.0,0.0,0.0,0.0,0.0,0.0,0.0,0.0,0.0,2.3628,2.333,2.3053,2.287,2.2798,2.2788,2.2592,2.2457,2.2382,2.3009,2.3251,2.3108,2.3648,2.3883,2.387,0.0,0.0,0.0,2.4124,2.4073,2.3839,2.3839,2.3793,2.3713,2.388,2.4007,2.4041,2.4267,2.4392,2.4459,2.4394,2.4329,2.4345,2.4695,2.4905,2.4991,2.5016,2.4009,2.3021,2.3526,2.2702,2.1745,2.1962,2.1211,2.0479,2.0479,2.0245,2.0098,2.0098,2.0186,2.0186,2.0186,2.0186,2.0186,2.0186,2.0186,2.0186,2.0186,2.042,2.0576,2.0576,2.042,2.0177,2.002,2.0098,2.0098,2.002,2.002,2.002,2.0098,1.9942,1.9942,2.0098,1.9942,1.9875,1.9839,1.9839,1.963,1.9221,1.8361,1.7369,4.4695,4.4616,4.4483,4.4488,4.4482,4.4482,0.0,4.4482,4.4389,4.4061,4.3725,4.3396,4.3134,4.2336,4.1301,4.0088,3.8456,3.6844,3.5511,0.0,0.0,0.0,0.0,0.0,0.0,0.0,0.0,0.0,0.0,0.0,0.0,2.4262,2.4027,2.3432,2.3175,2.304,2.2882,2.276,2.2677,2.2701,2.3928,2.4406,2.4273,2.4682,2.4805,0.0,0.0,0.0,0.0,2.4815,2.4784,2.4509,2.4509,2.4261,2.3955,2.4464,2.4535,2.4476,2.5102,2.518,2.5,2.482,2.4678,2.4471,2.4275,2.4523,2.4925,2.546,2.4862,2.4108,2.412,2.3537,2.3169,2.3902,2.2872,2.1756,2.1756,2.1165,2.0566,2.0566,2.0741,2.0906,2.0906,2.0906,2.0906,2.0906,2.0906,2.0906,2.0906,2.1061,2.1205,2.1205,2.1205,2.0974,2.0342,2.0489,2.0489,2.0342,2.0264,2.042,2.0566,2.0177,2.0098,2.0566,2.0177,1.982,1.963,1.963,1.9418,1.9014,1.8304,1.7476,4.487,4.472,4.4631,4.4625,4.457,4.4508,4.4508,4.4508,4.4388,4.406,4.3999,4.3751,4.2923,4.1991,4.0871,3.9392,3.7667,3.6137,0.0,0.0,0.0,0.0,0.0,0.0,0.0,0.0,0.0,0.0,0.0,0.0,0.0,2.4784,2.4413,2.3539,2.3501,2.3371,2.3248,2.3053,2.2932,2.2848,2.3981,2.4495,2.4484,2.5448,0.0,0.0,0.0,0.0,0.0,2.5009,2.4921,2.4821,2.4821,2.4593,2.4332,2.4516,2.436,2.4056,2.4296,2.4227,2.4045,2.3984,2.3923,2.3925,2.423,2.435,2.4347,2.3966,2.4345,2.4632,2.412,2.4082,2.4204,2.442,2.3745,2.2787,2.236,2.1983,2.169,2.1118,2.1051,2.1138,2.1138,2.1138,2.1138,2.1138,2.0791,2.0601,2.0601,2.0406,2.0216,2.0216,2.0216,2.0466,2.0847,2.0964,2.0964,2.0896,2.0896,2.0834,2.0526,2.0365,2.0216,2.0068,1.991,1.9767,1.9713,1.9713,1.9558,1.9132,1.8085,1.7446,4.4658,4.4322,4.398,4.398,4.3928,0.0,0.0,4.3875,4.3799,4.3591,4.3453,4.3119,4.2142,4.1143,4.0025,3.8649,3.6872,3.5471,0.0,0.0,0.0,0.0,0.0,0.0,0.0,0.0,0.0,0.0,0.0,0.0,0.0,2.5271,2.4875,2.4142,2.3982,2.3816,2.3646,2.3394,2.3261,2.3163,2.4223,2.4713,2.4735,2.5841,0.0,0.0,0.0,0.0,0.0,2.5522,2.5342,2.5286,2.5188,2.5005,2.4694,2.4694,2.4536,2.4345,2.4345,2.4157,2.3956,2.3897,2.3734,2.3633,2.3991,2.4318,2.4394,2.3779,2.4244,2.4713,2.4138,2.4241,2.4479,2.4479,2.391,2.318,2.24,2.2037,2.1544,2.0842,2.0702,2.0842,2.1141,2.1215,2.128,2.1629,2.1178,2.0855,2.098,2.073,2.0492,2.0431,2.0492,2.072,2.1238,2.0917,2.0702,2.0702,2.0702,2.0571,2.0216,2.0206,2.0076,1.9795,1.9929,1.9848,1.9544,1.9384,1.9223,1.9158,1.8368,1.8162,0.0,4.3502,4.2844,4.2844,4.2882,4.2901,4.2928,4.2853,0.0,4.2796,4.2451,4.1874,4.1014,3.9977,3.8916,3.7848,3.6118,0.0,0.0,0.0,0.0,0.0,0.0,0.0,0.0,0.0,0.0,0.0,0.0,0.0,0.0,2.5879,2.5465,2.5135,2.4667,2.4366,2.4138,2.3829,2.3641,2.3713,2.4706,2.5189,2.5156,2.6074,0.0,0.0,0.0,0.0,0.0,2.6179,2.5948,2.5729,2.5592,2.5369,2.5061,2.5061,2.5005,2.5005,2.5005,2.4821,2.4523,2.4408,2.4015,2.3675,2.3675,2.4236,2.4823,2.4553,2.4449,2.4474,2.4267,2.4226,2.4263,2.4263,2.3779,2.3021,2.2321,2.1563,2.0825,2.0135,2.0206,2.0492,2.1199,2.1339,2.1596,2.2309,2.1771,2.1413,2.1865,2.1774,2.1636,2.145,2.1578,2.1578,2.1381,2.0461,1.9867,1.9929,1.9929,1.9919,1.9889,1.9889,1.9869,1.9838,2.0185,1.999,1.9233,1.8819,1.8808,1.9198,1.9198,1.9462,4.2669,0.0,4.3104,4.3104,4.3046,4.297,0.0,0.0,0.0,0.0,0.0,4.2104,4.0652,3.9521,3.8328,3.6752,3.5233,3.4153,0.0,0.0,0.0,0.0,0.0,0.0,0.0,0.0,0.0,0.0,0.0,0.0,0.0,2.7176,2.6826,2.6463,2.6272,2.5644,2.4654,2.4269,2.4295,2.4616,2.5076,2.5601,2.5979,2.6625,0.0,0.0,0.0,0.0,2.6322,2.6258,2.6233,2.6179,2.6016,2.5798,2.5508,2.5425,2.5244,2.5005,2.5005,2.4948,2.4878,2.4835,2.4593,2.4292,2.4292,2.4151,2.3905,2.3831,2.4088,2.4405,2.4343,2.4722,2.5039,2.5039,2.4898,2.4564,2.3808,2.3466,2.3132,2.2389,2.2321,2.2389,2.2536,2.2604,2.2672,2.2863,2.2393,2.2073,2.2205,2.1892,2.1468,2.1079,2.1079,2.0884,2.0445,2.0594,2.0807,2.1069,2.1069,2.0968,2.0604,2.0593,2.0411,2.0047,2.0103,2.006,1.9886,1.9768,1.9781,1.9835,1.9835,1.9911,4.1714,4.191,4.2131,4.2131,4.2112,4.2081,4.2071,0.0,0.0,0.0,0.0,4.0787,3.9503,3.8501,3.7409,3.5982,3.5096,0.0,0.0,0.0,0.0,0.0,0.0,0.0,0.0,0.0,0.0,0.0,0.0,0.0,0.0,2.7875,2.758,2.7366,2.7161,2.6537,2.5406,2.5281,2.526,2.5522,2.5855,2.6162,2.6491,2.6931,2.7041,0.0,0.0,0.0,2.6606,2.6433,2.6365,2.6379,2.6218,2.6056,2.5893,2.5798,2.5633,2.5397,2.5397,2.5355,2.5188,2.5061,2.4878,2.4708,2.4708,2.4478,2.4144,2.3806,2.3919,2.415,2.409,2.4307,2.4525,2.4525,2.4525,2.434,2.354,2.3413,2.3211,2.2504,2.2374,2.2439,2.275,2.2815,2.2955,2.335,2.2841,2.2522,2.2785,2.2406,2.1978,2.1428,2.1604,2.153,2.0985,2.1303,2.1353,2.0893,2.1084,2.103,2.05,2.0688,2.0817,2.0688,2.0549,2.042,2.0302,2.0172,2.0172,2.0302,2.0302,2.0431,4.111,4.1019,4.0928,4.0935,4.0974,4.1013,4.1013,4.0961,0.0,0.0,0.0,0.0,0.0,3.7495,0.0,0.0,0.0,0.0,0.0,0.0,0.0,0.0,0.0,0.0,0.0,0.0,0.0,0.0,0.0,0.0,0.0,2.8455,2.8147,2.8074,2.7874,2.7307,2.6465,2.634,2.6325,2.6411,2.6634,2.6817,2.692,2.7155,2.7276,0.0,0.0,0.0,2.7001,2.6803,2.6654,2.6592,2.6539,2.6418,2.6258,2.6165,2.6111,2.6042,2.5948,2.5798,2.5592,2.5244,2.5118,2.5075,2.5075,2.5061,2.4892,2.4229,2.4054,2.4054,2.3865,2.3793,2.3793,2.3793,2.3793,2.3662,2.3088,2.2955,2.2774,2.2224,2.2101,2.2286,2.2895,2.2955,2.322,2.3936,2.3412,2.3148,2.3569,2.3339,2.2882,2.2298,2.2713,2.2774,2.2175,2.2298,2.1916,2.0719,2.0974,2.091,2.042,2.0921,2.1302,2.1388,2.1239,2.106,2.0775,2.0495,2.0506,2.0775,2.0775,2.0967,4.111,4.1091,4.1074,4.1064,4.1091,4.1091,4.1091,4.0994,4.0898,0.0,0.0,0.0,0.0,0.0,0.0,0.0,0.0,0.0,0.0,0.0,0.0,0.0,0.0,0.0,0.0,0.0,0.0,0.0,0.0,0.0,0.0,2.9636,2.9251,2.8854,2.8862,2.8638,2.8164,2.7115,2.6862,2.74,2.7169,2.7304,2.778,2.764,2.756,0.0,0.0,2.7152,2.7179,2.753,2.7363,2.6957,2.7203,2.7261,2.7056,2.6472,2.6472,2.6654,2.6096,2.6096,2.6312,2.5893,2.5633,2.5439,2.5439,2.5257,2.5005,2.4835,2.4835,2.4835,2.4778,2.4778,2.4778,2.4778,2.4778,2.4778,2.4637,2.4637,2.458,2.4523,2.4465,2.4523,2.458,2.4637,2.465,2.4835,2.4708,2.465,2.4721,2.4708,2.4465,2.3989,2.3989,2.3859,2.3301,2.3669,2.3669,2.3037,2.2579,2.2101,2.1628,2.2359,2.2347,2.1388,2.2051,2.2063,2.1509,2.1498,2.1498,2.1509,2.1509,2.1572,4.1042,4.1055,4.0929,4.0461,4.0374,4.0394,4.0355,3.9923,3.9566,0.0,0.0,0.0,0.0,0.0,0.0,0.0,0.0,0.0,0.0,0.0,0.0,0.0,0.0,0.0,0.0,0.0,0.0,0.0,0.0,0.0,0.0,0.0,2.9854,2.9653,2.9512,2.9323,2.9136,2.8372,2.8062,2.8176,2.788,2.7844,2.8134,2.8164,2.8171,2.8173,0.0,2.8197,2.815,2.829,2.8158,2.789,2.767,2.77,2.7799,2.7312,2.7261,2.7348,2.6759,2.6654,2.6811,2.6616,2.6258,2.5976,2.6258,2.5988,2.5619,2.5674,2.5342,2.5005,2.5005,2.5005,2.5005,2.5005,2.5005,2.5005,2.5005,2.5005,2.5005,2.5005,2.5005,2.5005,2.5005,2.5005,2.5005,2.5005,2.5005,2.5005,2.5005,2.5005,2.4821,2.435,2.4536,2.4465,2.3975,2.4408,2.4465,2.3975,2.342,2.3135,2.3207,2.3564,2.3505,2.2955,2.3327,2.3267,2.2677,2.2677,2.2506,2.2211,2.2211,2.2037,4.0742,4.0703,4.0488,3.9589,3.959,3.9707,3.9453,3.8887,3.8418,0.0,0.0,0.0,0.0,0.0,0.0,0.0,0.0,0.0,0.0,0.0,0.0,0.0,0.0,0.0,0.0,0.0,0.0,0.0,0.0,0.0,0.0,0.0,3.0533,3.0533,3.0158,2.9957,2.9918,2.9479,2.9069,2.8788,2.8568,2.8506,2.8506,2.8678,2.8805,2.8918,2.8934,2.8948,2.9057,2.9046,2.89,2.8717,2.8311,2.8229,2.8338,2.8181,2.8115,2.7997,2.749,2.7369,2.7414,2.7312,2.6916,2.6578,2.6982,2.6669,2.6179,2.6286,2.5839,2.5286,2.5286,2.523,2.523,2.523,2.523,2.523,2.523,2.523,2.523,2.523,2.523,2.523,2.523,2.523,2.523,2.523,2.523,2.523,2.523,2.523,2.5118,2.4751,2.5048,2.5104,2.4808,2.5104,2.516,2.4808,2.4208,2.3975,2.4292,2.4465,2.4478,2.4163,2.435,2.415,2.3598,2.3598,2.3361,2.2955,2.2955,2.2677,4.001,3.9788,3.9576,3.8623,3.9054,3.9485,3.8673,3.8441,0.0,3.8404,0.0,0.0,0.0,0.0,0.0,0.0,0.0,0.0,0.0,0.0,0.0,0.0,0.0,0.0,0.0,0.0,0.0,0.0,0.0,0.0,0.0,0.0,0.0,3.1416,3.0958,3.0681,3.0533,2.9951,2.946,2.9071,2.9228,2.9323,2.9308,2.904,2.913,2.9506,2.8966,2.8895,2.9235,2.973,2.9508,2.8916,2.9326,2.9066,2.8545,2.8828,2.8819,2.856,2.8011,2.8104,2.8367,2.7947,2.7464,2.7071,2.7071,2.6721,2.6286,2.6286,2.6233,2.6179,2.6056,2.5948,2.5839,2.5839,2.5839,2.5839,2.5839,2.5839,2.5839,2.5839,2.5839,2.5839,2.5839,2.5839,2.5839,2.5839,2.5839,2.5893,2.6002,2.5893,2.5893,2.5948,2.6002,2.6056,2.6165,2.6179,2.6179,2.6165,2.5384,2.4708,2.4292,2.5018,2.4892,2.3859,2.458,2.4637,2.3962,2.3962,2.3962,2.3904,2.3904,2.3904,3.9079,3.8828,3.8606,3.7649,3.7702,0.0,0.0,3.7073,3.6674,3.6712,3.6423,0.0,0.0,0.0,0.0,0.0,0.0,0.0,0.0,0.0,0.0,0.0,0.0,0.0,0.0,0.0,0.0,0.0,0.0,0.0,0.0,0.0,0.0,3.1689,3.1374,3.1227,3.1156,3.0773,3.0482,3.0357,2.9806,2.9621,2.9858,2.9907,3.0038,3.0235,3.017,3.0202,3.0356,3.0402,3.0278,3.0013,3.0087,2.9669,2.9108,2.9589,2.9633,2.9425,2.8942,2.8862,2.8987,2.8826,2.8415,2.8012,2.8367,2.7963,2.7348,2.7122,2.693,2.6736,2.6326,2.6179,2.6165,2.6165,2.6165,2.6165,2.6165,2.6165,2.6165,2.6165,2.6165,2.6165,2.6165,2.6165,2.6165,2.6165,2.6165,2.6179,2.6233,2.6179,2.6179,2.6233,2.6233,2.6233,2.6286,2.6286,2.6286,2.6286,2.6002,2.5729,2.5536,2.5853,2.5784,2.5356,2.566,2.566,2.5412,2.5412,2.5245,2.4881,2.4881,2.4654,3.8133,3.7862,3.7633,3.6712,0.0,0.0,3.6559,3.6049,3.5615,3.5659,3.5628,0.0,0.0,0.0,0.0,0.0,0.0,0.0,0.0,0.0,0.0,0.0,0.0,0.0,0.0,0.0,0.0,0.0,0.0,0.0,0.0,0.0,0.0,0.0,3.1906,3.1757,3.1684,3.1393,3.1254,3.1266,3.0559,3.0325,3.0441,3.0598,3.0725,3.0814,3.0866,3.0909,3.0977,3.0855,3.0775,3.0684,3.0526,3.0152,2.9756,3.0136,3.0158,3.0022,2.9713,2.9583,2.9578,2.9569,2.9212,2.8826,2.9227,2.8826,2.824,2.7947,2.7765,2.7515,2.7159,2.6669,2.634,2.6525,2.6433,2.6286,2.6286,2.6286,2.6286,2.6286,2.6286,2.6286,2.6286,2.6286,2.6286,2.6286,2.6286,2.634,2.6379,2.6486,2.663,2.6864,2.6721,2.6721,2.6916,2.6916,2.6916,2.6916,2.6916,2.6721,2.634,2.6286,2.6286,2.6286,2.6286,2.6286,2.6286,2.6286,2.6111,2.5687,2.5687,2.5453,3.7226,3.6945,3.6674,3.582,0.0,0.0,3.5603,3.5591,3.5593,3.5592,0.0,3.5526,0.0,0.0,0.0,0.0,0.0,0.0,0.0,0.0,0.0,0.0,0.0,0.0,0.0,0.0,0.0,0.0,0.0,0.0,0.0,0.0,0.0,0.0,3.2602,3.2289,3.2097,3.1696,3.1528,3.1608,3.1608,3.145,3.1188,3.0945,3.1001,3.1297,3.0825,3.0752,3.0999,3.0999,3.0861,3.0701,3.0559,3.0452,3.0402,3.0402,3.0309,3.0205,3.0196,3.0179,3.0228,3.0182,2.9848,2.9406,2.9406,2.9088,2.8732,2.8685,2.8685,2.8732,2.8685,2.7515,2.6486,2.6967,2.6736,2.634,2.634,2.634,2.634,2.6326,2.6326,2.6286,2.6286,2.6286,2.6286,2.6286,2.6286,2.6379,2.651,2.6864,2.7363,2.803,2.7635,2.76,2.824,2.8288,2.8288,2.8288,2.8288,2.77,2.6379,2.634,2.634,2.634,2.634,2.634,2.634,2.634,2.634,2.6286,2.6286,2.6286,3.6256,3.6043,0.0,3.5618,0.0,0.0,0.0,3.5534,0.0,0.0,0.0,0.0,0.0,0.0,0.0,0.0,0.0,0.0,0.0,0.0,0.0,0.0,0.0,0.0,0.0,0.0,0.0,0.0,0.0,0.0,0.0,0.0,0.0,0.0,3.2836,3.2987,3.2741,3.2428,3.2296,3.2294,3.2037,3.1834,3.1625,3.145,3.1411,3.149,3.1223,3.1157,3.119,3.105,3.0952,3.0842,3.0701,3.0609,3.0593,3.0526,3.041,3.0351,3.0359,3.0359,3.0342,3.0316,3.0241,3.0107,3.0113,2.993,2.9681,2.9287,2.9201,2.9195,2.9213,2.8607,2.801,2.8064,2.7963,2.7879,2.7879,2.7765,2.76,2.7348,2.721,2.7159,2.7159,2.7159,2.7159,2.7159,2.7159,2.7174,2.721,2.765,2.7997,2.824,2.8094,2.8094,2.8288,2.8288,2.8288,2.8288,2.8288,2.8094,2.77,2.7715,2.7715,2.7715,2.7715,2.7715,2.7715,2.7715,2.7515,2.7159,2.7159,2.6997,3.5781,3.5651,0.0,3.5451,3.5489,3.5545,3.5435,0.0,0.0,0.0,0.0,0.0,0.0,0.0,0.0,0.0,0.0,0.0,0.0,0.0,0.0,0.0,0.0,0.0,0.0,0.0,0.0,0.0,0.0,0.0,0.0,0.0,0.0,0.0,3.2832,3.3113,3.3162,3.2952,3.2759,3.2602,3.2332,3.2073,3.1923,3.1765,3.1642,3.1571,3.1402,3.1314,3.1297,3.1067,3.0982,3.0914,3.0807,3.0775,3.075,3.0609,3.0559,3.0526,3.0452,3.0435,3.0435,3.0459,3.0443,3.0435,3.0443,3.0375,3.0264,2.9941,2.9821,2.9825,2.9858,2.9657,2.9331,2.8973,2.8716,2.8606,2.8606,2.8496,2.84,2.8128,2.8046,2.7997,2.7997,2.7997,2.7997,2.7997,2.7997,2.8046,2.8225,2.8384,2.8638,2.8996,2.8857,2.881,2.9058,2.9058,2.9058,2.9058,2.9058,2.9058,2.9058,2.8575,2.8288,2.8288,2.8288,2.8288,2.8288,2.8352,2.8207,2.7913,2.7947,2.7815,3.5684,0.0,0.0,3.5369,3.5386,0.0,0.0,0.0,0.0,0.0,0.0,0.0,0.0,0.0,0.0,0.0,0.0,0.0,0.0,0.0,0.0,0.0,0.0,0.0,0.0,0.0,0.0,0.0,0.0,0.0,0.0,0.0,0.0,3.2676,3.2668,3.29,3.3445,3.3315,3.3041,3.2638,3.2446,3.2296,3.215,3.1923,3.1748,3.1571,3.144,3.1353,3.1297,3.1123,3.1016,3.1016,3.0926,3.0918,3.0883,3.0759,3.0726,3.0701,3.0576,3.0543,3.0543,3.0543,3.0543,3.0526,3.0543,3.0526,3.0526,3.0526,3.0526,3.0526,3.0526,3.0526,3.0344,2.9655,2.9166,2.8873,2.8873,2.8826,2.8826,2.8779,2.8779,2.8779,2.8779,2.8779,2.8779,2.8779,2.8779,2.8919,2.9361,2.9058,2.9212,3.0103,2.975,2.9645,3.0146,3.0189,3.0189,3.0189,3.0189,3.0189,3.0189,2.9104,2.848,2.848,2.848,2.848,2.848,2.8606,2.8654,2.8606,2.8685,2.8732,3.5588,3.5604,0.0,0.0,3.5328,3.5185,0.0,0.0,0.0,0.0,0.0,0.0,0.0,0.0,0.0,0.0,0.0,0.0,0.0,0.0,0.0,0.0,0.0,0.0,0.0,0.0,0.0,0.0,0.0,0.0,0.0,0.0,0.0,3.1946,3.2673,3.3291,3.3799,3.3653,3.3409,0.0,3.2934,3.282,3.2693,3.2081,3.1748,3.1625,3.1901,3.1726,3.1314,3.1224,3.119,3.1157,3.1033,3.0993,3.0965,3.0914,3.0848,3.0858,3.0825,3.0825,3.0825,3.0825,3.0734,3.0684,3.0767,3.0684,3.0526,3.0609,3.0576,3.0526,3.0526,3.0526,3.0452,3.0311,3.0149,3.0027,3.0027,2.9957,2.9766,2.9451,2.9316,2.9225,2.9225,2.9225,2.9225,2.9225,2.9225,2.9271,2.9406,2.9661,2.9957,3.0189,3.0103,3.0087,3.0189,3.0189,3.0189,3.0189,3.0189,3.0189,3.0189,2.9957,2.981,2.981,2.981,2.981,2.981,2.9826,2.9633,2.9225,2.9225,2.9042,3.5287,0.0,0.0,3.5226,0.0,3.4764,0.0,0.0,0.0,0.0,0.0,0.0,0.0,0.0,0.0,0.0,0.0,0.0,0.0,0.0,0.0,0.0,0.0,0.0,0.0,0.0,0.0,0.0,0.0,0.0,0.0,3.0538,3.1035,3.1542,3.1937,3.2389,3.2876,3.3099,3.3084,3.2819,3.3045,3.3059,3.2905,3.2494,3.2249,3.219,3.2371,3.2179,3.1743,3.1832,3.1754,3.1523,3.163,3.1647,3.1613,3.1331,3.1246,3.1204,3.0955,3.0905,3.0905,3.0905,3.0871,3.0831,3.0867,3.0792,3.0714,3.0781,3.0757,3.0716,3.0716,3.0675,3.0692,3.0692,3.0568,3.0443,3.0443,3.0401,3.03,3.0054,2.9951,2.9924,2.9924,2.9924,2.9924,2.9924,2.9924,2.9924,2.9924,3.0156,3.0359,3.0359,3.0359,3.0359,3.0359,3.0359,3.0359,3.0359,3.0359,3.0359,3.0359,3.0359,3.0316,3.0189,3.0189,3.0189,3.0189,3.0274,3.013,2.9881,2.9924,2.9793,3.4982,0.0,3.4859,3.4657,3.4439,0.0,0.0,0.0,0.0,0.0,0.0,0.0,0.0,0.0,0.0,0.0,0.0,0.0,0.0,0.0,0.0,0.0,0.0,0.0,0.0,0.0,0.0,0.0,0.0,0.0,3.0427,3.0348,3.0651,3.1386,3.1216,3.1337,3.1883,3.2396,3.2482,3.2262,3.2744,3.2857,3.2637,3.2613,3.266,3.2803,3.2793,3.2617,3.2301,3.2452,3.2286,3.2007,3.2283,3.2352,3.2245,3.186,3.1671,3.1557,3.1224,3.105,3.0982,3.1016,3.0982,3.092,3.0924,3.0929,3.0892,3.0926,3.0931,3.0918,3.0895,3.0895,3.0912,3.0912,3.0733,3.0568,3.0568,3.0568,3.0526,3.0551,3.0568,3.0526,3.051,3.0526,3.0526,3.0526,3.0526,3.0526,3.0526,3.0526,3.051,3.0593,3.0593,3.0593,3.0593,3.0675,3.0658,3.0593,3.0675,3.0699,3.0699,3.0699,3.0617,3.0468,3.0384,3.0316,3.0231,3.0443,3.0485,3.0401,3.0485,3.0526,0.0,0.0,3.4641,0.0,3.3194,3.2753,0.0,0.0,0.0,0.0,0.0,0.0,0.0,0.0,0.0,0.0,0.0,0.0,0.0,0.0,0.0,0.0,0.0,0.0,0.0,0.0,0.0,0.0,0.0,0.0,3.0492,3.0365,3.0655,3.1467,3.146,3.1692,3.2233,3.2323,3.211,3.1617,3.1629,3.1629,3.1605,3.1665,3.2083,3.2811,3.3113,3.2993,3.2643,3.2599,3.2472,3.2332,3.2331,3.2299,3.2281,3.2228,3.1986,3.1715,3.1998,3.1681,3.1207,3.1506,3.1331,3.1016,3.1112,3.1027,3.0926,3.0982,3.0935,3.0912,3.0881,3.0905,3.0912,3.0912,3.0871,3.0871,3.0871,3.0749,3.0692,3.0814,3.0733,3.0651,3.0526,3.0526,3.0526,3.0526,3.0526,3.0526,3.0526,3.0526,3.0634,3.0965,3.1004,3.1004,3.1004,3.1338,3.1376,3.1044,3.1355,3.1528,3.1528,3.1528,3.1528,3.149,3.1162,3.0821,3.0485,3.0821,3.0821,3.0485,3.0485,3.0526,3.2926,3.2736,3.2606,0.0,3.1865,3.1511,0.0,0.0,0.0,0.0,0.0,0.0,0.0,0.0,0.0,0.0,0.0,0.0,0.0,0.0,0.0,0.0,0.0,0.0,0.0,0.0,0.0,0.0,0.0,3.0661,3.0674,3.0578,3.0656,3.0936,3.0868,3.0906,3.1064,3.145,3.1752,3.1939,3.192,3.1883,3.1864,3.1881,3.1961,3.2074,3.2192,3.2037,3.1738,3.2361,3.2415,3.218,3.2803,3.299,3.2871,3.2642,3.2451,3.23,3.229,3.2098,3.186,3.1983,3.1737,3.1455,3.1715,3.1613,3.1348,3.1393,3.1529,3.1613,3.1398,3.1506,3.1613,3.1404,3.1529,3.1562,3.1139,3.0952,3.0814,3.0895,3.0857,3.0784,3.0717,3.0709,3.0717,3.0717,3.0875,3.1,3.1,3.1191,3.1422,3.1577,3.1585,3.1593,3.1585,3.1787,3.1787,3.164,3.1787,3.186,3.186,3.186,3.186,3.186,3.1603,3.1338,3.1162,3.1338,3.1355,3.1162,3.1162,3.1044,0.0,0.0,3.0921,3.0659,3.0559,3.0273,0.0,0.0,0.0,0.0,0.0,0.0,0.0,0.0,0.0,0.0,0.0,0.0,0.0,0.0,0.0,0.0,0.0,0.0,0.0,0.0,0.0,0.0,0.0,3.0714,3.0762,3.0729,3.0653,3.054,3.0443,3.0298,3.0144,3.0582,3.1092,3.1675,3.1675,3.1657,3.16,3.1581,3.1368,3.1052,3.1352,3.1323,3.1151,3.195,3.2083,3.1921,3.2929,3.3219,3.3128,3.3008,3.2918,3.2769,3.2634,3.2453,3.2324,3.2397,3.2181,3.1921,3.2205,3.2102,3.1871,3.1871,3.2068,3.2247,3.1947,3.208,3.2221,3.1906,3.2097,3.2122,3.1455,3.1145,3.1009,3.1002,3.0989,3.0957,3.1039,3.1024,3.1049,3.1049,3.1349,3.1573,3.1567,3.1816,3.2032,3.2127,3.2161,3.2142,3.216,3.223,3.2248,3.2144,3.2248,3.2283,3.2283,3.2283,3.2283,3.2283,3.2144,3.1967,3.1787,3.186,3.186,3.1787,3.1787,3.1603,0.0,3.0998,0.0,2.9739,0.0,0.0,0.0,0.0,0.0,0.0,0.0,0.0,0.0,0.0,0.0,0.0,0.0,0.0,0.0,0.0,0.0,0.0,0.0,0.0,0.0,0.0,0.0,0.0,0.0,3.0696,3.0702,3.0702,3.0707,3.0684,3.0617,3.0501,3.0279,3.0067,2.9985,3.0023,3.0023,3.0023,3.0023,2.9889,2.9832,2.9874,3.1136,3.1668,3.1649,3.1459,3.1464,3.1656,3.2249,3.2415,3.2433,3.3201,3.3183,3.2852,3.3214,3.2895,3.236,3.2661,3.2529,3.2273,3.2265,3.2288,3.2266,3.2266,3.2273,3.2298,3.2281,3.2266,3.229,3.229,3.2284,3.2156,3.1681,3.1365,3.1219,3.1335,3.1173,3.1095,3.1335,3.1385,3.1345,3.1345,3.1719,3.1981,3.1963,3.1984,3.216,3.2546,3.2563,3.2583,3.2576,3.2875,3.2912,3.2588,3.2848,3.3037,3.3037,3.3037,3.3037,3.3037,3.3037,3.2702,3.2003,3.2369,3.2369,3.1986,3.1986,3.1967,0.0,0.0,0.0,2.8041,2.8006,0.0,0.0,0.0,0.0,0.0,0.0,0.0,0.0,0.0,0.0,0.0,0.0,0.0,0.0,0.0,0.0,0.0,0.0,0.0,0.0,0.0,0.0,0.0,0.0,0.0,3.0703,3.0742,3.0739,3.0707,3.0715,3.0646,3.0486,3.0344,3.0263,3.0225,3.0225,3.0244,3.0283,3.0148,3.0037,2.998,3.0373,3.047,3.0378,3.081,3.0917,3.0889,3.1623,3.1754,3.1691,3.2502,3.2642,3.257,3.3237,3.3255,3.3027,3.3164,3.2936,3.2673,3.2941,3.2834,3.2621,3.2621,3.2816,3.2953,3.2707,3.28,3.3008,3.3008,3.2626,3.229,3.2376,3.2121,3.1907,3.197,3.1896,3.1847,3.1974,3.197,3.197,3.1967,3.2276,3.2515,3.2513,3.2737,3.2948,3.3104,3.3113,3.3099,3.3123,3.3232,3.3226,3.3135,3.3226,3.3286,3.3286,3.3286,3.3286,3.3286,3.3473,3.3262,3.2702,3.2848,3.2848,3.2702,3.2702,3.2603,2.7476,0.0,0.0,0.0,0.0,0.0,0.0,0.0,0.0,0.0,0.0,0.0,0.0,0.0,0.0,0.0,0.0,0.0,0.0,0.0,0.0,0.0,0.0,0.0,0.0,0.0,0.0,0.0,0.0,0.0,3.0664,3.0726,3.0745,3.0703,3.0743,3.071,3.0623,3.0565,3.0506,3.0467,3.0467,3.0487,3.0525,3.0443,3.0355,3.0253,3.0122,2.9924,2.9755,3.0193,3.0338,3.0314,3.1032,3.1207,3.1122,3.1937,3.2328,3.2506,3.3038,3.3339,3.3429,3.3429,3.3237,3.3045,3.3339,3.3201,3.3008,3.3008,3.3201,3.3357,3.3063,3.3201,3.3393,3.3393,3.3027,3.2744,3.2954,3.2636,3.2334,3.2438,3.2385,3.2335,3.2441,3.2492,3.2458,3.2469,3.278,3.3008,3.3008,3.3219,3.3393,3.3393,3.3465,3.3549,3.3549,3.3629,3.3678,3.3678,3.3585,3.3577,3.3671,3.3577,3.3577,3.3671,3.3842,3.377,3.3465,3.3368,3.3298,3.3196,3.3196,3.3086,0.0,0.0,0.0,0.0,0.0,0.0,0.0,0.0,0.0,0.0,0.0,0.0,0.0,0.0,0.0,0.0,0.0,0.0,0.0,0.0,0.0,0.0,0.0,0.0,0.0,0.0,0.0,0.0,0.0,3.0598,3.0598,3.0656,3.0698,3.0703,3.0703,3.0701,3.0704,3.0632,3.0606,3.0606,3.0606,3.0606,3.0598,3.0589,3.0592,3.0595,3.0452,3.0213,2.9898,2.9693,2.9732,2.9975,3.0536,3.0715,3.0775,3.1566,3.2201,3.2629,3.2716,3.3056,3.3495,3.3531,3.3465,3.3411,3.3411,3.3411,3.3411,3.3393,3.3393,3.3393,3.3393,3.3393,3.3393,3.3393,3.3393,3.3393,3.3393,3.2834,3.2433,3.2762,3.257,3.2433,3.2762,3.2816,3.2816,3.2816,3.3164,3.3393,3.3411,3.3393,3.3393,3.3411,3.364,3.3796,3.3807,3.4045,3.4194,3.4212,3.396,3.3921,3.4197,3.3947,3.3921,3.4197,3.4197,3.4197,3.4197,3.3947,3.3671,3.3393,3.3393,3.3393,2.6749,0.0,0.0,0.0,0.0,0.0,0.0,0.0,0.0,0.0,0.0,0.0,0.0,0.0,0.0,0.0,0.0,0.0,0.0,0.0,0.0,0.0,0.0,0.0,0.0,0.0,0.0,0.0,3.0442,3.0559,3.0598,3.0617,3.0678,3.0762,3.0762,3.076,3.0704,3.0685,3.0658,3.0599,3.0599,3.0638,3.0677,3.0629,3.0625,3.0677,3.0584,3.0455,3.033,3.0112,2.9994,2.9909,3.0067,3.0059,3.0002,3.081,3.1174,3.1431,3.2643,3.2985,3.3012,3.3644,3.3712,3.3549,3.3549,3.3549,3.3549,3.3484,3.3465,3.3447,3.3411,3.3393,3.3393,3.3393,3.3393,3.3393,3.3393,3.3237,3.3128,3.3219,3.3164,3.3146,3.3219,3.3219,3.3291,3.3484,3.3447,3.3465,3.3658,3.3531,3.3465,3.3658,3.3778,3.3872,3.4057,3.4151,3.4217,3.4185,3.4128,3.4123,3.419,3.4129,3.4124,3.4197,3.4386,3.4386,3.4197,3.4124,3.3947,3.3671,3.3509,3.3393,0.0,0.0,0.0,0.0,0.0,0.0,2.6037,2.6073,0.0,0.0,0.0,0.0,0.0,0.0,0.0,0.0,0.0,0.0,0.0,0.0,0.0,0.0,0.0,0.0,0.0,0.0,0.0,3.0186,3.0308,3.0443,3.0598,3.0598,3.0634,3.0704,3.0736,3.074,3.0704,3.0704,3.0684,3.0684,3.0684,3.0704,3.0743,3.0704,3.0704,3.0743,3.0665,3.0624,3.0567,3.0434,3.0256,3.007,3.007,2.9994,2.9904,3.039,3.0691,3.1054,3.239,3.2873,3.3055,3.389,3.3998,3.3788,3.386,3.3842,3.3788,3.3824,3.3811,3.3796,3.3796,3.376,3.3712,3.3712,3.3712,3.3712,3.3712,3.3712,3.3658,3.3429,3.3484,3.3586,3.3586,3.3658,3.3796,3.3923,3.3817,3.3802,3.3957,3.3833,3.3796,3.3971,3.4072,3.4204,3.4339,3.4453,3.4489,3.4483,3.4417,3.4392,3.4498,3.4399,3.4409,3.448,3.4649,3.4649,3.448,3.4409,3.4221,3.3972,3.3807,3.3726,0.0,0.0,0.0,0.0,0.0,0.0,2.5838,2.583,2.5821,0.0,0.0,0.0,0.0,0.0,0.0,0.0,0.0,0.0,0.0,0.0,0.0,0.0,0.0,0.0,0.0,2.9613,2.9774,3.0136,3.0192,3.0318,3.0559,3.0598,3.0598,3.0598,3.0669,3.0703,3.0699,3.0717,3.0736,3.0795,3.0806,3.0801,3.0801,3.0801,3.0801,3.0801,3.0743,3.0707,3.0711,3.0648,3.0502,3.0318,3.0308,3.0294,3.0223,3.0223,3.0543,3.1125,3.201,3.2664,3.3235,3.4064,3.4201,3.4102,3.4255,3.4215,3.4109,3.4257,3.4246,3.4219,3.4292,3.4256,3.4229,3.4229,3.4219,3.4209,3.4209,3.4209,3.4071,3.3595,3.3691,3.3826,3.386,3.4035,3.4209,3.4246,3.4213,3.421,3.4229,3.4227,3.4209,3.4246,3.4469,3.4605,3.4624,3.4813,3.4927,3.4927,3.4775,3.4756,3.4927,3.4749,3.4745,3.4908,3.4908,3.4908,3.4908,3.4689,3.4473,3.4245,3.4221,3.4197,0.0,0.0,0.0,0.0,0.0,0.0,2.5227,2.5185,2.5261,0.0,0.0,0.0,0.0,0.0,0.0,0.0,0.0,0.0,0.0,0.0,0.0,0.0,0.0,0.0,0.0,2.9595,2.9732,2.987,3.0139,3.0298,3.0366,3.052,3.0598,3.0598,3.0668,3.0695,3.071,3.0742,3.0789,3.0789,3.0801,3.0801,3.0801,3.0801,3.0801,3.0801,3.0782,3.0777,3.0771,3.0778,3.0637,3.045,3.0463,3.0447,3.0428,3.0333,3.0371,3.0562,3.1388,3.2061,3.2678,3.3504,3.4055,3.4415,3.4451,3.4423,3.4395,3.4376,3.432,3.4283,3.4312,3.4279,3.4264,3.4264,3.4279,3.4269,3.4269,3.4269,3.425,3.4137,3.4109,3.4128,3.412,3.4175,3.4269,3.4496,3.4337,3.4282,3.448,3.4346,3.4269,3.4496,3.4564,3.4661,3.4832,3.4984,3.5078,3.5078,3.5135,3.5135,3.5078,3.502,3.4963,3.4908,3.4908,3.4908,3.4908,3.4689,3.4561,3.4517,3.4293,3.4197,0.0,0.0,0.0,2.5068,0.0,0.0,0.0,2.5128,2.5212,0.0,0.0,0.0,0.0,0.0,0.0,0.0,0.0,0.0,0.0,0.0,0.0,0.0,0.0,0.0,0.0,2.9414,2.9624,2.9793,3.0051,3.0228,3.0289,3.0404,3.0501,3.0598,3.0636,3.0645,3.0649,3.0676,3.071,3.0756,3.0751,3.0762,3.0801,3.0801,3.08,3.0801,3.0801,3.0801,3.0799,3.0804,3.0735,3.065,3.0607,3.0559,3.0501,3.0424,3.0394,3.0505,3.1278,3.2029,3.2768,3.3557,3.4206,3.4725,3.4824,3.4851,3.4849,3.4811,3.4773,3.474,3.475,3.4745,3.4754,3.4754,3.4764,3.4732,3.4713,3.4694,3.4694,3.4694,3.473,3.4689,3.4471,3.4567,3.468,3.4832,3.4718,3.4699,3.4832,3.4794,3.4813,3.4927,3.4984,3.504,3.5135,3.5211,3.5264,3.5243,3.5277,3.5277,3.52,3.5205,3.5173,3.5116,3.5116,3.5078,3.5003,3.4905,3.4807,3.4751,3.4628,3.4792,0.0,0.0,0.0,0.0,0.0,2.465,0.0,0.0,0.0,2.5243,0.0,0.0,0.0,0.0,0.0,0.0,0.0,0.0,0.0,0.0,0.0,0.0,0.0,0.0,0.0,2.9288,2.9551,2.9758,2.9945,3.0113,3.021,3.0259,3.0337,3.054,3.0559,3.0576,3.0591,3.061,3.0656,3.069,3.069,3.0729,3.0775,3.0775,3.0778,3.078,3.08,3.08,3.08,3.08,3.0795,3.0799,3.0743,3.0643,3.0546,3.0526,3.0529,3.0605,3.1186,3.2052,3.302,3.3611,3.4339,3.5021,3.5171,3.5209,3.5209,3.5209,3.5209,3.5209,3.5209,3.5209,3.5209,3.5229,3.5248,3.5229,3.5209,3.5209,3.5209,3.5209,3.5286,3.5236,3.4868,3.5002,3.5172,3.5172,3.5172,3.5172,3.5172,3.5248,3.5322,3.5327,3.5362,3.54,3.54,3.542,3.5445,3.543,3.5414,3.5375,3.5356,3.532,3.5318,3.5318,3.5318,3.528,3.5166,3.5324,3.5306,3.5154,3.5154,3.5609,0.0,0.0,0.0,0.0,2.4744,0.0,0.0,0.0,2.5037,2.5037,0.0,0.0,0.0,0.0,0.0,0.0,0.0,0.0,0.0,0.0,0.0,0.0,0.0,0.0,0.0,0.0,2.9683,2.9701,2.9851,2.9926,2.994,3.0061,3.0182,3.0318,3.0385,3.0482,3.0597,3.0655,3.0699,3.069,3.069,3.069,3.071,3.071,3.0711,3.0703,3.0781,3.08,3.08,3.08,3.0796,3.0799,3.0782,3.0779,3.074,3.0624,3.0589,3.0586,3.0625,3.1661,3.3001,3.3099,3.4129,3.5324,3.5229,3.5209,3.5209,3.5209,3.5209,3.5209,3.5209,3.5209,3.5229,3.5343,3.5381,3.54,3.5531,3.5551,3.5551,3.5551,3.557,3.5496,3.5253,3.531,3.5384,3.5384,3.5384,3.5384,3.5384,3.5384,3.5388,3.5395,3.5405,3.5405,3.5405,3.5502,3.5585,3.5579,3.5684,3.5684,3.5568,3.5446,3.5384,3.5384,3.5384,3.5384,3.5365,3.6143,3.635,3.6046,3.6046,3.6502,0.0,0.0,0.0,0.0,0.0,0.0,2.4887,0.0,2.5005,0.0,0.0,0.0,0.0,0.0,0.0,0.0,0.0,0.0,0.0,0.0,0.0,0.0,0.0,0.0,0.0,0.0,0.0,0.0,2.9739,2.9833,2.9908,2.994,3.0056,3.017,3.0213,3.024,3.0298,3.0419,3.0459,3.0477,3.0515,3.0574,3.0632,3.0632,3.0651,3.069,3.0729,3.0729,3.0729,3.0729,3.0739,3.0752,3.0782,3.0799,3.0779,3.074,3.0721,3.076,3.1174,3.2111,3.3275,3.4207,3.4969,3.5512,3.5439,3.542,3.542,3.542,3.542,3.542,3.542,3.542,3.5439,3.5512,3.5528,3.5524,3.5582,3.5601,3.5601,3.5601,3.5621,3.5621,3.5543,3.5524,3.5524,3.5524,3.5524,3.5524,3.5524,3.5543,3.5571,3.5566,3.5636,3.5694,3.5694,3.5733,3.5768,3.5764,3.5784,3.5764,3.5725,3.5667,3.5621,3.5621,3.6134,3.6347,3.627,3.7162,3.7688,3.7936,3.7467,3.7635,2.4548,0.0,0.0,0.0,0.0,0.0,0.0,0.0,0.0,0.0,0.0,0.0,0.0,0.0,0.0,0.0,0.0,0.0,0.0,0.0,0.0,0.0,0.0,0.0,0.0,0.0,0.0,2.9608,2.9626,2.9683,2.9851,2.9851,2.9908,3.0039,3.0042,3.0079,3.0136,3.0246,3.0298,3.0296,3.0373,3.0451,3.0548,3.0545,3.0574,3.0613,3.0651,3.0671,3.0671,3.069,3.069,3.069,3.0749,3.0778,3.0769,3.0786,3.0799,3.0916,3.168,3.2679,3.3809,3.5187,3.5639,3.563,3.5611,3.5611,3.5611,3.5611,3.5611,3.5611,3.5611,3.5611,3.5611,3.563,3.5621,3.5636,3.5675,3.5675,3.5675,3.5675,3.5713,3.5752,3.5752,3.5713,3.5675,3.5675,3.5675,3.5675,3.5675,3.5713,3.5752,3.5752,3.583,3.5908,3.5908,3.5908,3.5908,3.5908,3.585,3.583,3.583,3.6064,3.6181,3.6181,3.7044,3.7434,3.7331,3.8213,3.8889,3.9358,3.8642,3.8722,0.0,0.0,0.0,2.4805,0.0,0.0,0.0,0.0,2.5005,0.0,0.0,0.0,0.0,0.0,0.0,2.6901,0.0,0.0,0.0,0.0,0.0,0.0,0.0,0.0,0.0,0.0,0.0,2.9383,2.9401,2.9495,2.9701,2.9701,2.9776,2.9908,2.9907,3.0001,3.0189,3.0282,3.0305,3.0308,3.0366,3.0404,3.0398,3.0403,3.0418,3.0418,3.0554,3.0593,3.0613,3.0671,3.069,3.069,3.069,3.0697,3.0709,3.0786,3.0799,3.0916,3.1797,3.3161,3.4675,3.546,3.5708,3.5683,3.5624,3.5605,3.5605,3.5605,3.5605,3.5605,3.5605,3.5605,3.5624,3.5683,3.5708,3.5733,3.585,3.5889,3.5889,3.5889,3.5889,3.5889,3.5889,3.5889,3.5889,3.5889,3.5889,3.5889,3.5889,3.5889,3.5889,3.5889,3.5908,3.5908,3.5908,3.5908,3.5908,3.5908,3.5908,3.5908,3.5908,3.6713,3.7161,3.7161,3.8004,3.8447,3.8449,3.9325,3.976,3.9779,3.9351,3.9623,0.0,0.0,2.377,2.4513,0.0,0.0,0.0,0.0,0.0,0.0,0.0,0.0,0.0,0.0,2.6816,2.6981,2.7344,0.0,0.0,0.0,0.0,0.0,0.0,0.0,0.0,0.0,0.0,2.9375,2.9506,2.9626,2.9701,2.9701,2.972,2.9776,2.9776,2.9814,2.987,2.9945,2.9973,3.0051,3.0147,3.0242,3.0333,3.0343,3.0364,3.0402,3.046,3.0472,3.0477,3.0496,3.0554,3.0632,3.0632,3.0651,3.071,3.0779,3.081,3.1013,3.2455,3.4052,3.5499,3.5752,3.583,3.583,3.5811,3.5791,3.5791,3.5791,3.5791,3.5791,3.5791,3.5791,3.5791,3.583,3.583,3.583,3.5889,3.5908,3.5908,3.5908,3.5908,3.5908,3.5908,3.5908,3.5908,3.5908,3.5908,3.5908,3.5908,3.5908,3.5908,3.5908,3.5908,3.5908,3.5908,3.5908,3.6142,3.6713,3.6752,3.7024,3.7595,3.7907,3.8057,3.8065,3.8922,3.9351,3.9364,4.0247,4.0656,4.0656,4.052,4.0559,2.3835,2.3596,0.0,2.4333,2.4275,0.0,2.4831,0.0,0.0,0.0,0.0,0.0,0.0,0.0,0.0,2.7133,2.7479,2.7736,0.0,2.7969,0.0,0.0,0.0,0.0,0.0,0.0,2.9016,2.926,2.9375,2.9495,0.0,0.0,2.9626,2.9701,2.9701,2.9701,2.9701,2.9776,2.9809,2.9855,3.0013,3.0147,3.0223,3.0242,3.0294,3.0333,3.0352,3.0362,3.0376,3.0395,3.0453,3.052,3.0525,3.0574,3.0678,3.076,3.1184,3.1934,3.337,3.4753,3.5908,3.5908,3.5908,3.5908,3.5908,3.5908,3.583,3.5519,3.5655,3.583,3.5519,3.5675,3.5908,3.5908,3.5908,3.5908,3.5908,3.5908,3.5908,3.5928,3.5947,3.5947,3.5947,3.5947,3.5928,3.5908,3.5908,3.5908,3.5908,3.5908,3.5908,3.5908,3.5908,3.6031,3.6348,3.637,3.6726,3.7615,3.7659,3.7913,3.8478,3.8793,3.8811,3.8507,3.9663,4.0111,3.9799,4.0676,4.111,4.111,4.111,4.1052]},{"header":{"parameterUnit":"m.s-1","parameterCategory":1,"la1":30.6,"la2":29.2853,"lo1":-89.7004,"lo2":-87.6739,"dy":0.0162,"dx":0.0183,"nx":112,"ny":82,"refTime":"2023-10-02T06:00:00:Z","depth":0,"parameterNumber":3,"parameterNumberName":"V-component_of_WINDS"},"data":[0.0,0.0,0.0,0.0,0.0,0.0,0.0,0.0,0.0,0.0,0.0,0.0,0.0,0.0,0.0,0.0,0.0,0.0,0.0,0.0,0.0,0.0,0.0,0.0,0.0,0.0,0.0,0.0,0.0,0.0,0.0,0.0,0.0,0.0,0.0,0.0,0.0,0.0,0.0,0.0,0.0,0.0,0.0,0.0,0.0,0.0,0.0,0.0,0.0,0.0,0.0,0.0,0.0,0.0,0.0,0.0,0.0,0.0,0.0,0.0,0.0,0.0,0.0,0.0,0.0,0.0,0.0,0.0,0.0,0.0,0.0,0.0,0.0,0.0,0.0,0.0,0.0,0.0,0.0,0.0,0.0,0.0,0.0,0.0,0.0,0.0,0.0,0.0,0.0,0.0,0.0,-3.7379,-3.7839,-3.7993,-3.7667,-3.7397,-3.7195,-3.7152,0.0,0.0,0.0,0.0,0.0,0.0,0.0,0.0,0.0,0.0,0.0,0.0,0.0,0.0,0.0,0.0,0.0,0.0,0.0,0.0,0.0,0.0,0.0,0.0,0.0,0.0,0.0,0.0,0.0,0.0,0.0,0.0,0.0,0.0,0.0,0.0,0.0,0.0,0.0,0.0,0.0,0.0,0.0,0.0,0.0,0.0,0.0,0.0,0.0,0.0,0.0,0.0,0.0,0.0,0.0,0.0,0.0,0.0,0.0,0.0,0.0,0.0,0.0,0.0,0.0,0.0,0.0,0.0,0.0,0.0,0.0,0.0,0.0,0.0,0.0,0.0,0.0,0.0,0.0,0.0,0.0,0.0,0.0,0.0,0.0,0.0,0.0,0.0,0.0,0.0,0.0,0.0,0.0,0.0,0.0,0.0,0.0,0.0,0.0,0.0,0.0,0.0,0.0,0.0,-3.7738,-3.8032,-3.818,-3.8277,-3.8346,-3.8029,-3.7995,-3.8249,0.0,0.0,0.0,0.0,0.0,0.0,0.0,0.0,0.0,0.0,0.0,0.0,0.0,0.0,0.0,0.0,0.0,0.0,0.0,0.0,0.0,0.0,0.0,0.0,0.0,0.0,0.0,0.0,0.0,0.0,0.0,0.0,0.0,0.0,0.0,0.0,0.0,0.0,0.0,0.0,0.0,0.0,0.0,0.0,0.0,0.0,0.0,0.0,0.0,0.0,0.0,0.0,0.0,0.0,0.0,0.0,0.0,0.0,0.0,0.0,0.0,0.0,0.0,0.0,0.0,0.0,0.0,0.0,0.0,0.0,0.0,0.0,0.0,0.0,0.0,0.0,0.0,0.0,0.0,0.0,0.0,0.0,0.0,0.0,0.0,0.0,0.0,0.0,0.0,0.0,0.0,0.0,0.0,0.0,0.0,0.0,0.0,0.0,0.0,0.0,0.0,0.0,0.0,-3.9528,-3.9976,-3.9989,-4.024,-4.0355,-4.02,-3.9858,-3.9768,-3.9905,-3.8829,0.0,0.0,0.0,0.0,0.0,0.0,0.0,0.0,0.0,0.0,0.0,0.0,0.0,0.0,0.0,0.0,0.0,0.0,0.0,0.0,0.0,0.0,0.0,0.0,0.0,0.0,0.0,0.0,0.0,0.0,0.0,0.0,0.0,0.0,0.0,0.0,0.0,0.0,0.0,0.0,0.0,0.0,0.0,0.0,0.0,0.0,0.0,0.0,0.0,0.0,0.0,0.0,0.0,0.0,0.0,0.0,0.0,0.0,0.0,0.0,0.0,0.0,0.0,0.0,0.0,0.0,0.0,0.0,0.0,0.0,0.0,0.0,0.0,0.0,0.0,0.0,0.0,0.0,0.0,0.0,0.0,0.0,0.0,0.0,0.0,0.0,0.0,0.0,0.0,0.0,0.0,0.0,0.0,0.0,0.0,0.0,0.0,0.0,0.0,0.0,0.0,0.0,-4.1434,-4.1698,-4.1595,-4.1961,-4.2065,-4.1744,-4.1471,-4.1311,-4.1336,-4.0535,0.0,0.0,0.0,0.0,0.0,0.0,0.0,0.0,0.0,0.0,0.0,0.0,0.0,0.0,0.0,0.0,0.0,0.0,0.0,0.0,0.0,0.0,0.0,0.0,0.0,0.0,0.0,0.0,0.0,0.0,0.0,0.0,0.0,0.0,0.0,0.0,0.0,0.0,0.0,0.0,0.0,0.0,0.0,0.0,0.0,0.0,0.0,0.0,0.0,0.0,0.0,0.0,0.0,0.0,0.0,0.0,0.0,0.0,0.0,0.0,0.0,0.0,0.0,0.0,0.0,0.0,0.0,0.0,0.0,0.0,0.0,0.0,0.0,0.0,0.0,0.0,0.0,0.0,0.0,0.0,0.0,0.0,0.0,0.0,0.0,0.0,0.0,0.0,0.0,0.0,0.0,0.0,0.0,0.0,0.0,0.0,0.0,0.0,0.0,0.0,0.0,0.0,-4.1623,-4.1595,-4.1855,-4.2058,-4.2159,-4.2065,-4.1927,-4.19,-4.2013,-4.1905,0.0,0.0,0.0,0.0,0.0,0.0,0.0,0.0,0.0,0.0,0.0,0.0,0.0,0.0,0.0,0.0,0.0,0.0,0.0,0.0,0.0,0.0,0.0,0.0,0.0,0.0,0.0,0.0,0.0,0.0,0.0,0.0,0.0,0.0,0.0,0.0,0.0,0.0,0.0,0.0,0.0,0.0,0.0,0.0,0.0,0.0,0.0,0.0,0.0,0.0,0.0,0.0,0.0,0.0,0.0,0.0,0.0,0.0,0.0,0.0,0.0,0.0,0.0,0.0,0.0,0.0,0.0,0.0,0.0,0.0,0.0,0.0,0.0,0.0,0.0,0.0,0.0,0.0,0.0,0.0,0.0,0.0,0.0,0.0,0.0,0.0,0.0,0.0,0.0,0.0,0.0,0.0,0.0,0.0,0.0,0.0,0.0,0.0,0.0,0.0,0.0,0.0,-4.357,-4.3498,0.0,-4.3756,-4.3825,-4.3724,-4.353,-4.3474,-4.3698,0.0,0.0,0.0,0.0,0.0,0.0,0.0,0.0,0.0,0.0,0.0,0.0,0.0,0.0,0.0,0.0,0.0,0.0,0.0,0.0,0.0,0.0,0.0,0.0,0.0,0.0,0.0,0.0,0.0,0.0,0.0,0.0,0.0,0.0,0.0,0.0,0.0,0.0,0.0,0.0,0.0,0.0,0.0,0.0,0.0,0.0,0.0,0.0,0.0,0.0,0.0,0.0,0.0,0.0,0.0,0.0,0.0,0.0,0.0,0.0,0.0,0.0,0.0,0.0,0.0,0.0,0.0,0.0,0.0,0.0,0.0,0.0,0.0,0.0,0.0,0.0,0.0,0.0,0.0,0.0,0.0,0.0,0.0,0.0,0.0,0.0,0.0,0.0,0.0,0.0,0.0,0.0,0.0,0.0,0.0,0.0,0.0,0.0,0.0,0.0,0.0,0.0,-4.4523,-4.4572,-4.4519,0.0,-4.4751,-4.4865,-4.4712,-4.4468,-4.444,-4.4693,0.0,0.0,0.0,0.0,0.0,0.0,0.0,0.0,0.0,0.0,0.0,0.0,0.0,0.0,0.0,0.0,0.0,0.0,0.0,0.0,0.0,0.0,0.0,0.0,0.0,0.0,0.0,0.0,0.0,0.0,0.0,0.0,0.0,0.0,0.0,0.0,0.0,0.0,0.0,0.0,0.0,0.0,0.0,0.0,0.0,0.0,0.0,0.0,0.0,0.0,0.0,0.0,0.0,0.0,0.0,0.0,0.0,0.0,0.0,0.0,0.0,0.0,0.0,0.0,0.0,0.0,0.0,0.0,0.0,0.0,0.0,0.0,0.0,0.0,0.0,0.0,0.0,0.0,0.0,0.0,0.0,0.0,0.0,0.0,0.0,0.0,0.0,0.0,0.0,0.0,0.0,0.0,0.0,0.0,0.0,0.0,0.0,0.0,0.0,0.0,0.0,0.0,-4.4565,-4.429,-4.4194,-4.4477,-4.4745,-4.4846,-4.4712,-4.4524,-4.4505,0.0,0.0,0.0,0.0,0.0,0.0,0.0,0.0,0.0,0.0,0.0,0.0,0.0,0.0,0.0,0.0,0.0,0.0,0.0,0.0,0.0,0.0,0.0,0.0,0.0,0.0,0.0,0.0,0.0,0.0,0.0,0.0,0.0,0.0,0.0,0.0,0.0,0.0,0.0,0.0,0.0,0.0,0.0,0.0,0.0,0.0,0.0,0.0,0.0,0.0,0.0,0.0,0.0,0.0,0.0,0.0,0.0,0.0,0.0,0.0,0.0,0.0,0.0,0.0,0.0,0.0,0.0,0.0,0.0,0.0,0.0,0.0,0.0,0.0,0.0,0.0,0.0,0.0,0.0,0.0,0.0,0.0,0.0,0.0,0.0,0.0,0.0,0.0,0.0,0.0,0.0,0.0,0.0,0.0,0.0,0.0,0.0,0.0,0.0,0.0,0.0,0.0,0.0,-4.5,-4.4419,-4.4184,-4.4726,-4.477,-4.4693,-4.4551,-4.4468,-4.4505,-4.477,0.0,0.0,0.0,0.0,0.0,0.0,0.0,0.0,0.0,0.0,0.0,0.0,0.0,0.0,0.0,0.0,0.0,0.0,0.0,0.0,0.0,0.0,0.0,0.0,0.0,0.0,0.0,0.0,0.0,0.0,0.0,0.0,0.0,0.0,0.0,0.0,0.0,0.0,0.0,0.0,0.0,0.0,0.0,0.0,0.0,0.0,0.0,0.0,0.0,0.0,0.0,0.0,0.0,0.0,0.0,0.0,0.0,0.0,0.0,0.0,0.0,0.0,0.0,0.0,0.0,0.0,0.0,0.0,0.0,0.0,0.0,0.0,0.0,0.0,0.0,0.0,0.0,0.0,0.0,0.0,0.0,0.0,0.0,0.0,0.0,0.0,0.0,0.0,0.0,0.0,0.0,0.0,0.0,0.0,0.0,0.0,0.0,0.0,0.0,0.0,0.0,0.0,-4.4953,-4.4465,-4.4202,-4.4613,-4.4667,-4.4659,-4.4515,-4.444,-4.4468,-4.4613,0.0,0.0,0.0,0.0,0.0,0.0,0.0,0.0,0.0,0.0,0.0,0.0,0.0,0.0,0.0,0.0,0.0,0.0,0.0,0.0,0.0,0.0,0.0,0.0,0.0,0.0,0.0,0.0,0.0,0.0,0.0,0.0,0.0,0.0,0.0,0.0,0.0,0.0,0.0,0.0,0.0,0.0,0.0,0.0,0.0,0.0,0.0,0.0,0.0,0.0,0.0,0.0,0.0,0.0,0.0,0.0,0.0,0.0,0.0,0.0,0.0,0.0,0.0,0.0,0.0,0.0,0.0,0.0,0.0,0.0,0.0,0.0,0.0,0.0,0.0,0.0,0.0,0.0,0.0,0.0,0.0,0.0,0.0,0.0,0.0,0.0,0.0,0.0,0.0,0.0,0.0,0.0,0.0,0.0,0.0,0.0,0.0,0.0,0.0,0.0,0.0,0.0,-4.4617,-4.4402,-4.4269,-4.4296,-4.4524,-4.4632,-4.4515,-4.444,-4.4411,-4.4383,0.0,0.0,0.0,0.0,0.0,0.0,0.0,0.0,0.0,0.0,0.0,0.0,0.0,0.0,0.0,0.0,0.0,0.0,0.0,0.0,0.0,0.0,0.0,0.0,0.0,0.0,0.0,0.0,0.0,0.0,0.0,0.0,0.0,0.0,0.0,0.0,0.0,0.0,0.0,0.0,0.0,0.0,0.0,0.0,0.0,0.0,0.0,0.0,0.0,0.0,0.0,0.0,0.0,0.0,0.0,0.0,0.0,0.0,0.0,0.0,-3.2046,0.0,0.0,0.0,0.0,0.0,0.0,0.0,0.0,0.0,0.0,0.0,0.0,0.0,0.0,0.0,0.0,0.0,0.0,0.0,0.0,0.0,0.0,0.0,0.0,0.0,0.0,0.0,0.0,0.0,0.0,0.0,0.0,0.0,0.0,0.0,0.0,0.0,0.0,0.0,0.0,0.0,-4.4624,-4.4184,-4.3949,-4.4269,-4.4449,-4.4542,-4.4515,-4.4487,-4.4458,-4.4411,-4.4314,0.0,0.0,0.0,0.0,0.0,0.0,0.0,0.0,0.0,0.0,0.0,0.0,0.0,0.0,0.0,0.0,0.0,0.0,0.0,0.0,0.0,0.0,0.0,0.0,0.0,0.0,0.0,0.0,0.0,0.0,0.0,0.0,0.0,0.0,0.0,0.0,0.0,0.0,0.0,0.0,0.0,0.0,0.0,0.0,0.0,0.0,0.0,0.0,0.0,0.0,0.0,0.0,0.0,0.0,0.0,0.0,0.0,0.0,0.0,0.0,-3.2747,0.0,0.0,0.0,0.0,0.0,0.0,0.0,0.0,0.0,0.0,0.0,0.0,0.0,0.0,0.0,0.0,0.0,0.0,0.0,0.0,0.0,0.0,0.0,0.0,0.0,0.0,0.0,0.0,0.0,0.0,0.0,0.0,0.0,0.0,0.0,0.0,0.0,0.0,0.0,0.0,-4.4857,-4.4421,-4.4199,-4.4467,-4.4496,-4.4515,-4.4515,-4.4515,-4.4487,-4.4411,-4.4344,0.0,0.0,0.0,0.0,0.0,0.0,0.0,0.0,0.0,0.0,0.0,0.0,0.0,0.0,0.0,0.0,0.0,0.0,0.0,0.0,0.0,0.0,0.0,0.0,0.0,0.0,0.0,0.0,0.0,0.0,0.0,0.0,0.0,0.0,0.0,0.0,0.0,0.0,0.0,0.0,0.0,0.0,0.0,0.0,0.0,0.0,0.0,0.0,0.0,0.0,0.0,0.0,0.0,-2.9001,-2.9548,-2.9783,-2.9889,-3.0362,-3.1282,-3.1793,-3.1829,-3.1676,0.0,0.0,0.0,0.0,0.0,0.0,0.0,0.0,0.0,0.0,0.0,0.0,0.0,0.0,0.0,0.0,0.0,0.0,0.0,0.0,0.0,0.0,0.0,0.0,0.0,-3.9912,-3.9808,0.0,0.0,0.0,0.0,0.0,0.0,0.0,0.0,0.0,0.0,0.0,0.0,-4.4972,-4.4693,-4.4496,-4.4587,-4.4551,-4.4515,-4.4515,-4.4515,-4.4487,-4.4411,-4.4344,-4.4255,0.0,0.0,0.0,0.0,0.0,0.0,0.0,0.0,0.0,0.0,0.0,0.0,0.0,0.0,0.0,0.0,0.0,0.0,0.0,0.0,0.0,0.0,0.0,0.0,0.0,0.0,0.0,0.0,0.0,0.0,0.0,0.0,-1.8913,-2.1823,0.0,0.0,0.0,0.0,0.0,0.0,0.0,0.0,0.0,0.0,0.0,0.0,0.0,-2.8064,-2.8041,-2.83,-2.8814,-2.9757,-2.7519,-2.7245,-2.8611,-2.8984,-2.9251,-2.9402,-3.0196,0.0,-3.1877,-3.2359,0.0,0.0,0.0,0.0,0.0,0.0,0.0,0.0,0.0,0.0,0.0,0.0,0.0,0.0,0.0,0.0,0.0,0.0,0.0,0.0,0.0,0.0,-3.7686,-3.85,-3.9377,-4.0489,0.0,-4.2149,-4.1837,-4.2427,-4.292,0.0,0.0,0.0,0.0,0.0,0.0,0.0,-4.4572,-4.443,-4.4279,-4.4181,-4.4364,-4.4515,-4.4515,-4.4515,-4.4487,-4.4411,-4.4344,-4.4255,-4.4184,-4.4085,0.0,0.0,0.0,0.0,0.0,0.0,0.0,0.0,0.0,0.0,0.0,0.0,0.0,0.0,0.0,0.0,0.0,0.0,0.0,0.0,0.0,0.0,0.0,0.0,0.0,0.0,0.0,0.0,0.0,-2.0067,-1.9929,-2.1743,-2.2805,-2.377,0.0,0.0,0.0,0.0,0.0,0.0,0.0,0.0,0.0,-2.9809,-2.9196,-2.8255,-2.676,-2.867,-2.9905,-3.062,-2.9829,-2.9793,-3.0535,-3.0735,-3.0781,-3.0803,-3.1235,-3.1609,-3.2096,-3.2263,-3.2552,-3.3045,0.0,0.0,0.0,0.0,-3.6235,-3.5495,-3.4259,-3.3883,0.0,0.0,0.0,0.0,0.0,0.0,0.0,0.0,0.0,0.0,0.0,0.0,0.0,-3.8933,-3.9511,-4.0631,-4.2509,-4.2578,-4.2428,0.0,-4.2886,-4.324,-4.393,0.0,0.0,0.0,0.0,0.0,-4.4546,-4.453,-4.4513,-4.443,-4.4449,-4.4515,-4.4515,-4.4515,-4.4487,-4.4458,-4.4383,-4.4344,-4.4314,-4.4266,-4.4306,0.0,0.0,0.0,0.0,0.0,0.0,0.0,0.0,0.0,0.0,0.0,0.0,0.0,0.0,0.0,0.0,0.0,0.0,0.0,0.0,0.0,0.0,0.0,0.0,0.0,0.0,0.0,0.0,-2.1859,-2.1567,-2.202,-2.313,-2.4429,0.0,0.0,0.0,0.0,0.0,0.0,-2.8745,-2.7835,-2.7766,-2.8787,-2.8775,-2.7871,-2.5915,-2.8393,-3.0206,-3.1274,-3.1911,-3.2168,-3.2212,-3.2179,-3.2177,-3.2182,-3.2209,-3.2209,-3.2169,-3.2236,-3.2212,-3.2327,-3.3561,-3.4564,-3.538,-3.6424,-3.6238,-3.5277,-3.3799,-3.3827,-3.4192,-3.3041,0.0,-3.4068,-3.5424,0.0,0.0,0.0,0.0,-3.8632,-3.9551,-3.9949,-4.0003,-3.9614,-3.9829,-4.063,-4.2612,-4.3072,-4.3069,0.0,-4.2978,-4.307,-4.3558,0.0,0.0,0.0,0.0,-4.465,-4.4777,-4.477,-4.4738,-4.4712,-4.4578,-4.4515,-4.4515,-4.4515,-4.4515,-4.4515,-4.4458,-4.4383,-4.4383,-4.4383,-4.4383,-4.4383,0.0,0.0,0.0,0.0,0.0,0.0,0.0,0.0,0.0,0.0,0.0,0.0,0.0,0.0,0.0,0.0,0.0,0.0,0.0,0.0,0.0,0.0,0.0,0.0,0.0,0.0,0.0,0.0,0.0,-2.3115,-2.4635,0.0,0.0,0.0,0.0,-2.4886,-2.5591,-2.6105,-2.6095,-2.6013,-2.603,-2.6107,-2.6073,-2.5992,-2.5905,-2.6043,-2.8198,-3.2165,-3.2192,-3.2231,-3.2209,-3.2196,-3.2182,-3.2182,-3.2204,-3.2191,-3.2182,-3.2169,-3.2191,-3.2214,-3.2291,-3.279,-3.3525,-3.4531,-3.5985,-3.6855,-3.3442,-3.4096,-3.5782,-3.2277,-3.3062,-3.5427,-3.5523,-3.5993,0.0,0.0,-3.8237,-3.9984,-4.0064,-4.0084,-4.0102,-4.0092,-4.0095,-4.0711,-4.2965,-4.3468,-4.345,0.0,-4.3178,-4.2902,-4.2922,0.0,-4.5058,-4.4512,-4.4586,-4.4825,-4.5213,-4.5043,-4.4821,-4.4712,-4.4578,-4.4515,-4.4515,-4.4515,-4.4515,-4.4515,-4.4458,-4.4383,-4.4383,-4.4344,-4.4344,-4.4383,-4.4383,0.0,0.0,0.0,0.0,0.0,0.0,0.0,0.0,0.0,0.0,0.0,0.0,0.0,0.0,0.0,0.0,0.0,0.0,0.0,0.0,0.0,0.0,0.0,0.0,0.0,0.0,0.0,0.0,-2.3209,-2.4729,0.0,-2.5939,-2.5924,-2.5793,-2.5431,-2.57,-2.592,-2.5881,-2.5864,-2.5858,-2.5861,-2.5934,-2.7242,-2.9949,-2.9424,-3.019,-3.2208,-3.2179,-3.2226,-3.2204,-3.2199,-3.2231,-3.2182,-3.2204,-3.1909,-3.1468,-3.2001,-3.2214,-3.2205,-3.2167,-3.2382,-3.2607,-3.2999,-3.3533,-3.393,-3.2653,-3.2862,-3.3794,-3.4361,-3.529,-3.6163,-3.6151,-3.6338,-3.6476,-3.6495,-3.8497,-4.0629,-4.062,-4.0375,-4.0197,-4.0533,-4.149,-4.2537,-4.3304,-4.3506,-4.3518,-4.3501,-4.3376,-4.33,-4.3287,-4.3754,-4.4197,-4.4371,-4.4562,-4.4757,-4.4903,-4.4908,-4.4846,-4.4693,-4.4578,-4.4515,-4.4515,-4.4515,-4.4515,-4.4515,-4.4487,-4.444,-4.444,-4.4458,-4.4458,-4.444,-4.444,-4.4524,0.0,0.0,0.0,0.0,0.0,0.0,0.0,0.0,0.0,0.0,0.0,0.0,0.0,0.0,0.0,0.0,0.0,0.0,0.0,0.0,0.0,0.0,0.0,0.0,0.0,0.0,-2.3844,-2.3176,-2.4519,-2.5221,-2.4577,-2.4535,-2.4872,-2.5852,-2.5935,-2.6185,-2.6787,-2.6767,-2.6748,-2.6794,-2.7561,-2.9229,-3.1811,-3.1535,-3.1504,-3.181,-3.1809,-3.1797,-3.1776,-3.2078,-3.2025,-3.1829,-3.2085,-3.1904,-3.1435,-3.1963,-3.2223,-3.2232,-3.2228,-3.2182,-3.2182,-3.2182,-3.216,-3.2311,-3.3317,-3.3662,-3.3981,-3.5857,-3.6478,-3.6505,-3.6503,-3.6521,-3.6492,-3.6479,-3.8489,-4.0652,-4.0831,-4.0827,-4.0918,-4.1268,-4.2477,-4.3498,-4.3503,-4.3505,-4.3497,-4.3497,-4.3499,-4.3497,-4.3498,-4.35,-4.3776,-4.458,-4.4749,-4.4783,-4.4802,-4.4821,-4.4815,-4.4712,-4.4578,-4.4515,-4.4515,-4.4515,-4.4515,-4.4515,-4.4515,-4.4515,-4.4515,-4.4515,-4.4515,-4.4515,-4.4515,-4.457,-4.4712,0.0,0.0,0.0,0.0,0.0,0.0,0.0,0.0,0.0,0.0,0.0,0.0,0.0,0.0,0.0,0.0,0.0,0.0,0.0,0.0,0.0,0.0,0.0,-2.1414,-2.2532,-2.3057,-2.309,-2.3887,-2.4471,-2.4522,-2.4501,-2.4914,-2.5806,-2.5847,-2.6635,-2.8327,-2.8526,-2.8557,-2.8554,-3.0894,-3.1808,-3.101,-3.1766,-3.175,-3.1022,-3.1022,-3.1043,-3.1023,-3.1783,-3.173,-3.1023,-3.1864,-3.2219,-3.2144,-3.2159,-3.2177,-3.2157,-3.216,-3.2169,-3.2214,-3.2228,-3.2283,-3.2737,-3.5521,-3.649,-3.6485,-3.6485,-3.6484,-3.6492,-3.6492,-3.6569,-3.6646,-3.6635,-3.8316,-4.0216,-4.0735,-4.1521,-4.2174,-4.2221,-4.2861,-4.3505,-4.3483,-4.3497,-4.3497,-4.3497,-4.3497,-4.3497,-4.3497,-4.349,-4.3911,-4.5125,-4.5055,0.0,-4.5004,-4.4808,-4.4712,-4.4712,-4.4578,-4.4515,-4.4515,-4.4515,-4.4515,-4.4515,-4.4515,-4.4515,-4.4515,-4.4515,-4.4515,-4.4515,-4.4496,-4.4551,-4.4712,0.0,0.0,0.0,0.0,0.0,0.0,0.0,0.0,0.0,0.0,0.0,0.0,0.0,0.0,0.0,0.0,0.0,0.0,0.0,0.0,0.0,0.0,-1.9468,-2.1469,-2.2539,-2.3106,-2.3095,-2.3967,-2.4512,-2.4495,-2.4467,-2.4586,-2.4851,-2.5518,-2.6147,-2.6564,-2.8937,-3.034,-3.0318,-3.0983,-3.1185,-3.1022,-3.1182,-3.1229,-3.0996,-3.1568,-3.1534,-3.104,-3.1243,-3.1189,-3.1015,-3.1885,-3.1871,-3.1361,-3.1346,-3.1348,-3.139,-3.1951,-3.2212,-3.2222,-3.2234,-3.3531,-3.54,-3.622,-3.6474,-3.652,-3.652,-3.6521,-3.6492,-3.6492,-3.773,-3.9102,-3.9136,-3.9693,-4.0397,-4.0595,-4.1263,-4.2017,-4.2376,-4.303,-4.3505,-4.3483,-4.3497,-4.3497,-4.3497,-4.3497,-4.3497,-4.3497,-4.349,-4.3911,-4.5125,-4.4858,0.0,-4.4943,-4.4808,-4.4712,-4.4712,-4.4578,-4.4515,-4.4515,-4.4515,-4.4515,-4.4515,-4.4515,-4.4515,-4.4515,-4.4515,-4.4515,-4.4515,-4.4605,-4.4659,0.0,0.0,0.0,0.0,0.0,0.0,0.0,0.0,0.0,0.0,0.0,0.0,0.0,0.0,0.0,0.0,0.0,0.0,0.0,0.0,0.0,0.0,-1.8757,-1.9452,-2.1396,-2.2522,-2.3096,-2.3113,-2.3589,-2.4091,-2.444,-2.4535,-2.4524,-2.4502,-2.5365,-2.6519,-2.7953,-2.9889,-3.0984,-3.1003,-3.1022,-3.1014,-3.0963,-3.0962,-3.1656,-3.2903,-3.3368,-3.3311,-3.2918,-3.2877,-3.2905,0.0,-3.3394,-3.3352,-3.2889,-3.2876,-3.2915,0.0,0.0,0.0,0.0,0.0,-3.5037,-3.6481,-3.6508,-3.6534,-3.6492,-3.6492,-3.6492,-3.6492,-3.6492,-3.7494,-3.8777,-3.9805,-4.0166,-4.0318,-4.0557,-4.1175,-4.1929,-4.2353,-4.2985,-4.3506,-4.3499,-4.3497,-4.3497,-4.3497,-4.3497,0.0,-4.3497,-4.3693,-4.4117,-4.4833,-4.4708,-4.4625,-4.4862,-4.4726,-4.4605,-4.4605,-4.457,-4.4515,-4.4515,-4.4515,0.0,0.0,0.0,-4.4515,-4.4515,-4.4515,0.0,0.0,0.0,-4.4505,-4.4605,0.0,0.0,0.0,-4.3312,-4.2715,0.0,0.0,0.0,0.0,0.0,0.0,0.0,0.0,0.0,0.0,0.0,0.0,0.0,0.0,0.0,0.0,-1.9191,-2.0038,-2.1789,-2.2823,-2.3458,-2.3665,-2.3719,-2.4064,-2.4841,-2.5027,-2.5137,-2.5076,-2.5867,-2.7735,-3.0815,0.0,0.0,0.0,0.0,-3.1168,-3.1532,-3.1537,-3.2877,-3.5511,-3.5499,-3.547,-3.5521,-3.547,-3.5525,-3.5521,-3.547,-3.5525,-3.5521,-3.547,-3.5502,-3.548,-3.5507,-3.4297,-3.2911,-3.5474,-3.6411,-3.6436,-3.6438,0.0,0.0,-3.6507,-3.6507,-3.6569,-3.6817,-3.6812,-3.716,-3.9478,-4.0083,-4.0182,-4.0491,-4.1174,-4.1853,-4.2115,-4.2846,-4.3497,-4.3497,-4.3497,-4.3497,-4.3497,-4.3479,-4.3497,-4.3497,-4.3949,-4.4345,-4.4389,-4.4587,-4.4739,-4.4693,-4.4578,-4.4515,-4.4515,0.0,0.0,-4.4515,-4.4515,-4.4515,-4.4515,-4.4515,-4.4515,-4.4515,-4.4515,-4.4515,-4.4515,-4.4277,-4.4258,-4.4515,-4.3924,-4.3639,-4.3606,-4.3605,-4.3259,0.0,0.0,0.0,0.0,0.0,0.0,0.0,0.0,0.0,0.0,0.0,0.0,0.0,0.0,0.0,-1.8789,-2.1418,-2.3487,-2.3917,-2.4771,-2.5892,-2.733,-2.7425,-2.7527,-2.7727,-2.8339,-2.8785,-2.8784,-2.8947,-2.9596,-3.0917,-3.1005,0.0,-3.0974,-3.097,-3.2157,-3.4612,-3.4663,-3.4907,-3.5463,0.0,0.0,-3.5502,-3.5517,-3.5517,-3.5502,-3.5517,-3.5517,-3.5502,-3.5517,-3.5487,-3.5478,-3.5469,-3.5243,-3.4964,-3.5479,-3.5706,-3.5785,-3.6283,-3.6503,-3.649,-3.649,-3.6491,-3.6832,-3.8798,-3.8691,0.0,-3.9676,-4.0096,-4.0138,-4.0322,-4.1065,-4.1853,-4.1997,-4.279,-4.3497,-4.3497,-4.3497,-4.3497,-4.3497,-4.3481,-4.3411,-4.3411,-4.3719,-4.4029,-4.436,-4.4391,-4.4477,-4.4667,-4.4578,-4.4515,-4.4515,-4.4515,-4.4515,-4.4515,-4.4515,-4.4515,-4.4515,-4.4515,-4.4515,-4.4515,-4.4515,-4.4515,-4.4515,-4.444,-4.444,-4.4515,-4.3755,-4.3442,-4.3587,-4.2743,-4.2128,0.0,0.0,0.0,0.0,0.0,0.0,0.0,0.0,0.0,0.0,0.0,-1.8796,0.0,0.0,-1.9397,-2.1364,-2.3232,-2.4533,-2.4533,-2.5274,-2.655,-2.8321,-2.8468,-2.8479,-2.8524,-2.8895,-2.9314,-2.9745,-2.9786,-2.996,-3.0381,-3.0403,-3.1122,-3.2663,-3.2678,-3.3452,-3.4905,-3.5333,-3.5294,-3.4916,-3.5307,-3.5516,-3.5533,-3.548,-3.551,-3.548,-3.548,-3.5513,-3.5483,-3.5492,-3.5499,-3.5504,-3.5494,-3.5489,-3.5478,-3.5479,-3.5488,-3.5586,-3.5849,-3.5976,-3.6041,-3.6382,-3.7343,-3.855,-3.9741,-3.9675,-3.9336,-3.9947,-4.0083,-4.0171,-4.0549,-4.1202,-4.1846,-4.2198,-4.2826,-4.3339,-4.3339,-4.3339,-4.3339,-4.3339,-4.3322,-4.3305,-4.3305,-4.3497,-4.3753,-4.411,-4.4344,-4.4524,-4.4578,-4.4524,-4.4515,-4.4515,-4.4515,-4.4515,-4.4515,-4.4487,-4.444,-4.444,-4.444,-4.4487,-4.4515,-4.4515,-4.4515,-4.4515,-4.4383,-4.4177,-4.3895,-4.3372,-4.2825,-4.23,-4.1779,-4.1525,0.0,0.0,0.0,0.0,0.0,0.0,0.0,0.0,-1.883,-1.8798,-1.8827,-1.8808,-1.883,-1.9389,-2.0962,-2.3994,-2.4472,-2.4533,-2.4532,-2.5189,-2.6111,-2.7598,-2.821,-2.8474,-2.8462,-2.8536,-2.8809,-2.9477,-2.9555,-2.9879,-3.0647,-3.0698,-3.1856,-3.4313,-3.4398,-3.4423,-3.4394,-3.5015,-3.494,-3.4209,-3.479,-3.4911,-3.4576,-3.4546,-3.4545,-3.4561,-3.4698,-3.4713,-3.479,-3.5307,-3.5483,-3.5499,-3.5484,-3.5488,-3.5507,-3.5494,-3.5494,-3.5533,-3.5507,-3.5589,-3.5872,-3.6894,-3.8349,-3.9812,-4.0047,-4.0087,-4.0104,-4.0074,-4.0068,-4.0204,-4.0802,-4.1338,-4.1839,-4.2414,-4.29,-4.3214,-4.3214,-4.3214,-4.3214,-4.3214,-4.3178,-4.3178,-4.3178,-4.3211,-4.3364,-4.3846,-4.4306,-4.456,-4.4515,-4.4515,-4.4515,-4.4487,-4.4487,-4.4487,-4.4458,-4.4411,-4.4383,-4.4383,-4.4383,-4.4411,-4.4487,-4.4487,-4.4439,-4.4271,-4.4034,-4.3642,-4.305,-4.267,-4.1986,-4.0995,-4.0881,-4.0965,-1.5655,-1.6907,-1.7326,-1.7326,-1.7311,-1.7289,0.0,0.0,-1.8798,-1.8751,-1.8784,-1.883,-1.8806,-2.1569,-2.3994,-2.4415,-2.4522,-2.454,-2.4511,-2.4586,-2.4714,-2.4902,-2.7044,-2.8479,-2.8497,-2.8505,-2.8499,-2.8623,-2.8673,-3.0203,-3.3698,-3.3903,-3.4063,-3.4389,-3.4411,-3.4418,-3.4405,-3.4516,-3.4151,-3.3425,-3.3531,-3.2676,-3.1161,-3.1131,-3.1131,-3.1205,-3.1694,-3.1946,-3.2136,-3.4516,-3.5508,-3.5521,-3.5492,-3.5492,-3.5473,-3.551,-3.5489,-3.5474,-3.5474,-3.5872,-3.6735,-3.8948,-3.917,-3.8723,-3.9748,-4.008,-4.0091,-4.0087,-4.0104,-4.0221,-4.0724,-4.1248,-4.1839,-4.2315,-4.2844,-4.3214,-4.3214,-4.3214,-4.3214,-4.3214,-4.316,-4.3104,-4.3104,-4.2648,-4.2616,-4.3721,-4.4048,-4.4258,-4.4468,-4.4515,-4.4487,-4.4411,-4.4411,-4.4401,-4.4314,-4.4314,-4.4314,-4.4314,-4.4373,-4.4411,-4.4411,-4.4487,-4.4158,-4.3444,-4.3398,-4.2986,-4.2149,-4.141,-4.1036,-4.0976,-4.0207,-4.0003,-1.6834,-1.7276,0.0,0.0,-1.7318,-1.7304,-1.7274,-1.8117,-1.883,-1.8772,-1.8835,-1.9438,-2.1722,-2.3408,-2.4472,0.0,-2.4537,-2.4485,-2.4498,-2.4534,-2.4514,-2.449,-2.7288,-2.8686,-2.7123,-2.7933,-2.9083,-3.057,-3.0629,-3.1352,-3.3059,-3.2518,-3.2174,-3.217,-3.2217,-3.2667,-3.3726,-3.3771,-3.3637,-3.3321,-3.3321,-3.2903,-3.2144,-3.2149,-3.2139,-3.2219,-3.2422,-3.2552,-3.2532,-3.2627,-3.2844,-3.3148,-3.3148,-3.3196,-3.3347,-3.491,-3.5493,-3.5493,-3.5493,-3.5553,-3.6011,-3.8758,-3.9062,-3.8541,-3.9599,-4.0027,-4.0086,-4.0121,-4.007,-4.0254,-4.1001,-4.141,-4.176,-4.2498,-4.25,-4.2323,-4.2323,-4.196,-4.1615,-4.1615,-4.1597,-4.1579,-4.1579,-4.1342,-4.1338,-4.1907,-4.2384,-4.2694,-4.2646,-4.2656,-4.2765,-4.2931,-4.3163,-4.3429,-4.3799,-4.4067,-4.4116,-4.3855,-4.4128,-4.4207,-4.3999,-4.3565,-4.3293,-4.3258,-4.2548,-4.1903,-4.1304,-4.0966,-4.0578,-4.0183,-3.9859,-3.9762,-1.7283,0.0,0.0,-1.7326,-1.7326,-1.7318,-1.7304,-1.79,-1.8365,-1.8378,-1.9282,-2.0944,-2.3919,-2.4543,-2.4508,-2.4537,-2.4537,-2.444,-2.4155,-2.4333,-2.484,-2.5876,-2.8255,-2.9096,-2.7145,-2.8304,-3.0011,-3.2018,-3.1612,-3.1226,-3.1197,-3.0471,-3.0347,-3.1061,-3.1125,-3.1723,-3.3033,-3.3075,-3.3162,-3.3275,-3.2505,-3.2163,-3.212,-3.2134,-3.2128,-3.2123,-3.2112,-3.2118,-3.2027,-3.0723,-3.0202,-3.0228,-3.0664,-3.1021,-3.1458,-3.3388,-3.4632,-3.5237,-3.4597,-3.4141,-3.4229,-3.671,-3.7405,-3.7444,-3.828,-3.8707,-3.8853,-3.8853,-3.9086,-3.9542,-4.0359,-4.0778,-4.1233,-4.2062,-4.1796,-4.1379,-4.1379,-4.0926,-4.051,-4.051,-4.0474,-4.0456,-4.0456,-4.0221,-4.0041,-4.0094,-4.0404,-4.0787,-4.107,-4.1156,-4.1264,-4.1517,-4.1812,-4.2151,-4.2619,-4.2996,-4.3047,-4.2708,-4.2996,-4.3161,-4.3028,-4.2355,-4.2106,-4.2314,-4.146,-4.0764,-4.0293,-4.0408,-4.0159,-3.9602,-3.9637,-3.967,-1.7333,-1.7326,-1.7326,-1.7326,-1.7326,-1.7318,-1.7304,-1.7357,-1.7323,-1.7363,-2.0381,-2.3242,-2.4283,-2.4523,-2.4467,-2.4456,-2.4456,-2.4201,-2.3268,-2.3896,-2.5738,-2.9212,-2.9707,-2.9757,0.0,-3.0413,-3.1267,-3.2126,-3.0021,-2.8679,-2.8712,-2.8706,-2.98,-3.2294,-3.2353,-3.24,-3.2458,-3.2415,-3.2737,-3.3259,-3.0528,-2.9237,-2.921,-2.9225,-2.9215,-2.9223,-2.9223,-2.923,-2.921,-2.919,-2.8269,-2.7112,-2.8614,-2.9746,-3.0553,-3.0621,-3.2485,-3.4611,-3.236,-3.1411,-3.1331,-3.2517,-3.363,-3.4644,-3.5235,-3.553,-3.5638,-3.5638,-3.6519,-3.7595,-3.8082,-3.9031,-3.9991,-4.0456,-4.0564,-4.0546,-4.0546,-4.0528,-4.051,-4.051,-4.0384,-4.0309,-4.0309,-3.9514,-3.8845,-3.8845,-3.8384,-3.8679,-4.051,-4.0643,-4.0611,-4.063,-4.0597,-4.0563,-4.0581,-4.0581,-4.0616,-4.0581,-4.0668,-4.0873,-4.1272,-4.0936,-4.0547,-4.0104,-4.0067,-3.9671,-3.8961,-3.9346,-3.9564,-3.9602,-3.9602,-3.9656,-1.7276,-1.7261,-1.7326,-1.7326,-1.7326,-1.7296,-1.7272,-1.7298,-1.8033,-2.0602,-2.2171,-2.3222,-2.3515,-2.359,-2.3607,-2.3607,-2.3551,-2.3471,-2.3172,-2.3331,-2.4916,-2.8491,-2.9431,0.0,0.0,0.0,0.0,-2.9032,-2.8343,-2.8635,-3.0458,-3.0884,-3.1501,-3.2364,-3.2416,-3.241,-3.2412,-3.1871,-3.174,-3.1873,-2.9685,-2.8653,-2.8639,-2.8635,-2.8632,-2.8664,-2.8947,-2.9088,-2.9104,-2.9115,-2.8768,-2.8381,-2.8914,-2.9312,-2.9593,-2.9571,-3.0612,-3.1895,-3.1118,-3.0779,-3.0923,-3.2643,-3.3614,-3.4237,-3.4985,-3.5258,-3.545,-3.5954,-3.6581,-3.7278,-3.8269,-3.8982,-3.958,-4.0047,-3.9766,-3.9372,-3.9372,-3.8959,-3.8582,-3.8582,-3.8527,-3.8491,-3.8491,-3.8239,-3.795,-3.78,-3.7737,-3.7936,-3.8562,-3.851,-3.856,-3.889,-3.9206,-3.957,-4.0053,-4.0348,-4.0366,-4.0127,-4.0366,-4.0455,-4.0348,-3.9752,-3.9496,-3.9607,-3.9095,-3.8724,-3.8511,-3.9129,-3.9301,-3.9082,-3.938,-3.9571,-1.7189,-1.7268,-1.7326,-1.7326,-1.7282,-1.7309,-1.7291,-1.8347,-2.0042,-2.257,-2.3094,-2.3066,-2.3105,-2.3144,-2.3085,-2.3073,-2.3093,-2.31,-2.3133,-2.4178,-2.5853,-2.821,-2.8344,-2.7656,0.0,0.0,0.0,-2.7139,-2.8065,-2.9392,-3.1101,-3.1768,-3.2107,-3.2105,-3.3019,-3.3058,-3.1965,-3.1461,-3.1193,-3.1183,-2.998,-2.9029,-2.8405,-2.8372,-2.8389,-2.842,-2.8732,-2.8857,-2.8858,-2.9013,-2.9077,-2.9122,-2.9123,-2.9106,-2.9114,-2.9118,-2.9468,-3.0043,-3.0367,-3.0513,-3.0733,-3.1968,-3.2533,-3.2846,-3.3328,-3.3734,-3.4141,-3.4609,-3.552,-3.65,-3.7292,-3.8076,-3.8766,-3.9073,-3.8756,-3.8381,-3.8381,-3.797,-3.7577,-3.7577,-3.7558,-3.7484,-3.7484,-3.7429,-3.7317,-3.722,-3.7279,-3.7392,-3.7413,-3.7261,-3.732,-3.7654,-3.7984,-3.8333,-3.8812,-3.9097,-3.9135,-3.8866,-3.9115,-3.9172,-3.906,-3.8463,-3.831,-3.8721,-3.8198,-3.8047,-3.8277,-3.8865,-3.9101,-3.9027,-3.9328,-3.9469,-1.6986,-1.7276,-1.7333,-1.7326,-1.7301,-1.7368,-1.7574,-2.0447,-2.3082,-2.3073,-2.3105,-2.3144,0.0,0.0,-2.3057,-2.3137,-2.3232,-2.3418,-2.3368,-2.6298,-2.8493,0.0,0.0,0.0,0.0,0.0,0.0,-2.658,0.0,-3.0618,-3.058,-3.114,-3.1393,-3.1303,-3.3909,-3.3974,-3.1165,-3.116,-3.1172,-3.1157,-3.1205,-3.0287,-2.8547,-2.8553,-2.8495,-2.84,-2.8389,-2.8403,-2.8451,-2.8904,-2.9061,-2.9061,-2.9077,-2.9092,-2.9106,-2.9114,-2.908,-2.9246,-3.0141,-3.0474,-3.0485,-3.0468,-3.0501,-3.0534,-3.0534,-3.1132,-3.1857,-3.1907,-3.3539,-3.529,-3.5324,-3.645,-3.7594,-3.7594,-3.7594,-3.7594,-3.7594,-3.7594,-3.7594,-3.7594,-3.741,-3.7297,-3.7297,-3.7143,-3.6987,-3.6987,-3.6987,-3.6987,-3.6987,-3.6987,-3.6987,-3.6987,-3.6987,-3.6987,-3.6987,-3.6987,-3.6987,-3.6987,-3.6987,-3.7147,-3.7469,-3.7185,-3.7147,-3.7469,-3.7505,-3.7703,-3.8147,-3.8499,-3.8894,-3.932,-3.9373,-3.9391,-1.7008,-1.7305,-1.7283,-1.7333,-1.7301,-1.8087,-2.0937,-2.2385,-2.3133,-2.3076,-2.3125,-2.3115,0.0,0.0,0.0,-2.312,-2.5379,0.0,-2.7162,-2.7951,0.0,-2.6318,0.0,-2.5289,-2.5324,-2.6812,0.0,0.0,-2.9647,-3.0616,-3.0587,-3.0743,-3.0138,-2.8641,-3.0701,-3.1435,-3.0712,-3.0668,-3.0692,-3.0683,-3.1014,-3.0942,-3.051,-3.0514,-2.9736,-2.8408,-2.8419,-2.8389,-2.8419,-2.8545,-2.8591,-2.8591,-2.8967,-2.9123,-2.9092,-2.909,-2.91,-2.9157,-2.9665,-2.9874,-3.0027,-3.0215,-3.0652,-3.1139,-3.1252,-3.1851,-3.2575,-3.3139,-3.4098,-3.5118,-3.5608,-3.6458,-3.7126,-3.7126,-3.7126,-3.7126,-3.7126,-3.7126,-3.7126,-3.7126,-3.7105,-3.7066,-3.7066,-3.7009,-3.6987,-3.6987,-3.6987,-3.6987,-3.6987,-3.6987,-3.6987,-3.6987,-3.6987,-3.6987,-3.6987,-3.6987,-3.6987,-3.6987,-3.6987,-3.7048,-3.7108,-3.7048,-3.7048,-3.7108,-3.7376,-3.745,-3.7319,-3.818,-3.8566,-3.8442,-3.9017,-3.9256,-1.6508,-1.6921,-1.7312,-1.7283,-1.7345,-1.8349,-2.2217,-2.3114,-2.3092,-2.3076,-2.3066,0.0,-2.252,0.0,0.0,0.0,0.0,0.0,-2.7428,-2.6645,-2.5633,0.0,-2.4253,0.0,-2.6153,-2.7369,-2.8238,0.0,-2.931,-2.9754,-2.9697,-2.9855,-2.9448,-2.8311,-2.9296,-2.989,-2.9891,-3.0277,-3.0491,-3.0485,-3.0782,-3.0915,-3.0898,-3.0871,-3.0298,-2.9339,0.0,-2.918,-2.8383,-2.8403,-2.8419,-2.8418,-2.8683,-2.8793,-2.8793,-2.8935,-2.8982,-2.8995,-2.9243,-2.9589,-3.006,-3.0417,-3.0782,-3.1202,-3.1585,-3.2266,-3.2922,-3.3332,-3.4172,-3.5047,-3.5596,-3.6266,-3.6829,-3.6987,-3.6987,-3.6987,-3.6987,-3.6987,-3.6987,-3.6987,-3.6908,-3.6869,-3.6908,-3.6869,-3.6886,-3.6886,-3.6886,-3.6886,-3.6886,-3.6948,-3.6987,-3.6987,-3.6987,-3.6987,-3.6987,-3.6987,-3.6987,-3.6987,-3.693,-3.6908,-3.6908,-3.6869,-3.6886,-3.6886,-3.7031,-3.7129,-3.7108,-3.7703,-3.808,-3.8231,-3.867,-3.8952,-1.5798,-1.6421,-1.7131,-1.7124,-1.7095,-1.7995,-2.1322,-2.2544,-2.2952,-2.2888,0.0,-2.2694,-2.1878,-2.1706,-2.2051,-2.2952,0.0,-2.7667,-2.6075,-2.4237,-2.3003,-2.3014,-2.3,-2.419,-2.724,-2.7488,-2.7789,-2.8389,-2.8799,-2.8886,-2.8598,-2.8862,-2.9027,-2.9098,-2.9108,-2.9088,-2.9111,-2.9907,-3.0326,-3.0288,-3.0297,-3.0375,-3.0492,-3.0497,-3.0504,-3.0504,0.0,0.0,-2.8659,-2.8688,-2.8732,-2.8732,-2.8491,-2.8385,-2.8446,-2.867,-2.8779,-2.8794,-2.8936,-2.9548,-3.029,-3.073,-3.0965,-3.1269,-3.1851,-3.2547,-3.3161,-3.3161,-3.4069,-3.5098,-3.5431,-3.5994,-3.6585,-3.6908,-3.6948,-3.6948,-3.6948,-3.6948,-3.6948,-3.6948,-3.6806,-3.6725,-3.6788,-3.6725,-3.6702,-3.6702,-3.6702,-3.6702,-3.6702,-3.6829,-3.6948,-3.6948,-3.6948,-3.6948,-3.6948,-3.6948,-3.6948,-3.6948,-3.6869,-3.6788,-3.6788,-3.6725,-3.6702,-3.6702,-3.6702,-3.6829,-3.7111,-3.7188,-3.7596,-3.8323,-3.8355,-3.8621,-1.573,-1.5927,-1.6021,-1.6062,-1.6026,-1.6202,-1.6921,-1.9571,0.0,0.0,-2.1937,-2.1863,-2.1738,-2.1697,-2.2013,-2.2916,0.0,0.0,0.0,0.0,-2.2961,0.0,0.0,0.0,0.0,0.0,0.0,0.0,0.0,-3.0242,-2.8536,-2.8462,-2.8682,-2.9075,-2.9108,-2.9121,-2.9114,-2.9265,-2.9335,-2.9339,-2.935,-2.974,-3.0506,-3.0495,-3.0484,-3.0491,-3.0574,0.0,-3.0145,-3.0128,-3.0355,-3.0543,-2.9014,-2.8405,-2.8417,-2.8591,-2.8638,-2.8732,-2.9418,-2.973,-2.9986,-3.0402,-3.1374,-3.2449,-3.2708,-3.334,-3.3906,-3.3906,-3.4591,-3.5328,-3.5419,-3.6028,-3.6684,-3.6742,-3.6725,-3.6725,-3.6725,-3.6725,-3.6725,-3.6725,-3.6725,-3.6702,-3.6742,-3.6702,-3.6702,-3.6702,-3.6702,-3.6702,-3.6702,-3.6742,-3.6725,-3.6725,-3.6725,-3.6725,-3.6725,-3.6725,-3.6725,-3.6725,-3.6725,-3.6742,-3.6742,-3.6702,-3.6702,-3.6702,-3.6702,-3.6742,-3.6806,-3.7052,-3.7414,-3.7911,-3.8194,-3.8548,-1.5038,-1.5356,-1.5777,-1.5838,-1.5778,-1.5799,-1.5812,0.0,0.0,0.0,-2.1717,-2.1743,-2.1688,0.0,0.0,0.0,0.0,0.0,0.0,0.0,0.0,0.0,0.0,0.0,0.0,0.0,0.0,0.0,0.0,-2.9024,-2.8023,-2.8269,-2.8522,-2.8745,-2.8763,-2.8873,-2.9092,-2.9091,-2.9104,-2.9114,-2.9109,-2.9339,-2.9758,-2.9766,-2.9756,-2.9821,-3.029,0.0,-2.8971,-2.898,-2.9438,-2.9975,-2.8607,-2.8108,-2.8073,-2.8225,-2.8565,-2.8969,-2.9438,-3.0076,-3.0818,-3.109,-3.1631,-3.2349,-3.2883,-3.3284,-3.3607,-3.3642,-3.4267,-3.4975,-3.5144,-3.5793,-3.6444,-3.6643,-3.6702,-3.6702,-3.6702,-3.6643,-3.6602,-3.6702,-3.6602,-3.6502,-3.6585,-3.6544,-3.6502,-3.6502,-3.6502,-3.6502,-3.6502,-3.6461,-3.652,-3.6702,-3.6702,-3.6702,-3.6702,-3.6702,-3.6702,-3.6702,-3.6643,-3.6602,-3.6602,-3.6544,-3.6502,-3.6502,-3.6502,-3.6502,-3.6502,-3.6655,-3.6978,-3.7396,-3.7755,-3.818,-1.4351,-1.4873,-1.551,-1.5504,-1.5504,-1.5478,-1.5455,-1.5444,0.0,-2.028,-2.1407,-2.1545,-2.1176,-2.1059,-2.1814,0.0,-2.5072,0.0,0.0,0.0,0.0,0.0,0.0,0.0,0.0,0.0,0.0,0.0,0.0,0.0,-2.7607,-2.8006,-2.8284,-2.8409,-2.84,-2.8574,-2.895,-2.8967,-2.8951,-2.8967,-2.906,-2.9121,-2.9088,-2.9082,-2.9093,-2.9138,-2.9872,0.0,0.0,-2.7442,-2.7922,-2.8654,-2.7967,-2.7716,-2.7791,-2.8084,-2.8601,-2.9225,-2.9598,-3.0535,-3.1535,-3.1781,-3.1933,-3.2148,-3.2833,-3.3058,-3.3112,-3.3203,-3.3848,-3.4513,-3.48,-3.5402,-3.5968,-3.6318,-3.6461,-3.6561,-3.6561,-3.6461,-3.6419,-3.652,-3.636,-3.6259,-3.636,-3.6318,-3.6216,-3.6216,-3.6216,-3.6216,-3.6216,-3.6191,-3.6251,-3.652,-3.6561,-3.6561,-3.6579,-3.6561,-3.6561,-3.6579,-3.6502,-3.6419,-3.6402,-3.6343,-3.6301,-3.6216,-3.6301,-3.6301,-3.6259,-3.6259,-3.6533,-3.6943,-3.7323,-3.7665,-1.4274,-1.437,-1.4465,-1.4447,-1.4441,-1.4441,-1.4429,0.0,-1.5324,-1.8443,-2.0491,-2.1116,-1.9397,-1.9052,-1.9115,-1.9411,-2.2359,-2.4285,0.0,0.0,0.0,0.0,0.0,0.0,0.0,0.0,0.0,0.0,0.0,0.0,-2.7584,-2.7635,-2.7879,-2.8366,-2.8424,-2.8444,-2.846,-2.8465,-2.8482,-2.8482,-2.8914,-2.9098,-2.9098,-2.9117,-2.9074,-2.9124,-2.9183,0.0,0.0,-2.6883,-2.7061,-2.7363,-2.7368,-2.7444,-2.769,-2.8454,-2.8843,-2.9173,-3.0441,-3.1051,-3.1343,-3.1956,-3.2446,-3.2819,-3.2881,-3.2897,-3.2897,-3.2951,-3.3678,-3.4431,-3.4431,-3.4847,-3.5266,-3.5311,-3.5722,-3.6062,-3.6062,-3.6062,-3.6062,-3.6062,-3.6062,-3.6019,-3.6062,-3.6019,-3.6019,-3.6019,-3.6019,-3.6019,-3.6019,-3.6019,-3.6019,-3.6062,-3.6062,-3.6122,-3.6225,-3.6105,-3.6122,-3.6225,-3.6208,-3.6165,-3.6062,-3.6216,-3.6216,-3.6019,-3.6216,-3.6276,-3.6208,-3.6208,-3.6367,-3.6746,-3.7058,-3.7059,-1.419,-1.4286,-1.428,-1.4274,-1.4274,-1.4274,-1.4274,0.0,-1.4684,-1.5812,-1.8109,-1.9769,-1.8915,-1.8792,-1.8624,-1.7969,-2.0269,-2.2007,-2.161,0.0,0.0,0.0,0.0,0.0,0.0,0.0,0.0,0.0,0.0,0.0,-2.7122,-2.7399,-2.768,-2.792,-2.7913,-2.8057,-2.8403,-2.8378,-2.8398,-2.8415,-2.859,-2.7955,-2.6619,-2.6618,-2.752,-2.907,-2.8142,0.0,0.0,-2.6878,-2.7019,-2.7218,-2.7223,-2.7303,-2.7416,-2.772,-2.8233,-2.8845,-2.9373,-2.997,-3.051,-3.0784,-3.0983,-3.1351,-3.24,-3.2718,-3.2718,-3.2843,-3.361,-3.4333,-3.4003,-3.4544,-3.5174,-3.5174,-3.5633,-3.6019,-3.6019,-3.6019,-3.6019,-3.6019,-3.6019,-3.6019,-3.6019,-3.6019,-3.6019,-3.6019,-3.6019,-3.6019,-3.6019,-3.5932,-3.5905,-3.5905,-3.5932,-3.6019,-3.6079,-3.6019,-3.6019,-3.6079,-3.6079,-3.6079,-3.6019,-3.6062,-3.6105,-3.6019,-3.6105,-3.6105,-3.6079,-3.6079,-3.5908,-3.5652,-3.602,-3.5964,-1.3426,-1.3721,-1.4027,-1.4238,-1.434,-1.434,0.0,0.0,-1.4315,-1.4264,-1.6662,-1.8676,-1.8365,-1.8319,-1.8117,-1.7374,-1.83,-1.9404,-2.0438,0.0,0.0,0.0,0.0,0.0,0.0,0.0,0.0,0.0,0.0,0.0,0.0,-2.7181,-2.7437,-2.7595,-2.762,-2.778,-2.8141,-2.8149,-2.8232,-2.8391,-2.8414,-2.7223,-2.4998,-2.5029,-2.6064,-2.7825,0.0,0.0,0.0,-2.6558,-2.6736,-2.6945,-2.6945,-2.7011,-2.7159,-2.735,-2.7861,-2.8525,-2.8666,-2.9199,-2.9803,-2.9856,-2.991,-3.0198,-3.1467,-3.2021,-3.2276,-3.2602,-3.3351,-3.3969,-3.3598,-3.4137,-3.48,-3.464,-3.5128,-3.565,-3.565,-3.5783,-3.5888,-3.5888,-3.5861,-3.5861,-3.5861,-3.5861,-3.5861,-3.5861,-3.5861,-3.5861,-3.5861,-3.5728,-3.5639,-3.5639,-3.5728,-3.5844,-3.5932,-3.5888,-3.5888,-3.5932,-3.5932,-3.5932,-3.5888,-3.5975,-3.5975,-3.5888,-3.5975,-3.5856,-3.5608,-3.5608,-3.5232,-3.4499,-3.4898,-3.4836,-1.1663,-1.2478,-1.3494,-1.4134,-1.4346,-1.4346,0.0,-1.4346,-1.4316,-1.4316,-1.6675,-1.8532,-1.7537,-1.732,-1.7319,-1.7327,-1.6225,-1.6694,-2.0091,0.0,0.0,0.0,0.0,0.0,0.0,0.0,0.0,0.0,0.0,0.0,0.0,-2.6828,-2.7039,-2.7556,-2.7619,-2.758,-2.7635,-2.761,-2.7879,-2.8412,-2.839,-2.7224,-2.5026,-2.5007,-2.5023,0.0,0.0,0.0,0.0,-2.5697,-2.5889,-2.6283,-2.6283,-2.6592,-2.7076,-2.7774,-2.8101,-2.8281,-2.8876,-2.9222,-2.9401,-2.9579,-2.9672,-2.9818,-2.9978,-3.0556,-3.1335,-3.2007,-3.2695,-3.3182,-3.3198,-3.3614,-3.3869,-3.3355,-3.407,-3.4816,-3.4816,-3.5224,-3.5622,-3.5622,-3.5566,-3.5492,-3.5492,-3.5492,-3.5492,-3.5492,-3.5492,-3.5492,-3.5492,-3.54,-3.5291,-3.5291,-3.5291,-3.5429,-3.5773,-3.5667,-3.5667,-3.5773,-3.5817,-3.5728,-3.5622,-3.5844,-3.5888,-3.5622,-3.5844,-3.5574,-3.4695,-3.4695,-3.4321,-3.3607,-3.3888,-3.3751,-1.1918,-1.3247,-1.4072,-1.4285,-1.3202,-1.2134,-1.2134,-1.2134,-1.2206,-1.2219,-1.2929,-1.4321,-1.68,-1.7286,-1.6825,-1.5319,-1.4743,-1.5339,0.0,0.0,0.0,0.0,0.0,0.0,0.0,0.0,0.0,0.0,0.0,0.0,0.0,-2.6346,-2.6876,-2.7078,-2.7395,-2.7607,-2.7584,-2.7595,-2.7695,-2.784,-2.7832,-2.6615,-2.4378,-2.4791,0.0,0.0,0.0,0.0,0.0,-2.5672,-2.592,-2.6042,-2.6042,-2.6258,-2.6553,-2.6755,-2.7055,-2.743,-2.7583,-2.7748,-2.7906,-2.7958,-2.801,-2.8137,-2.8621,-2.9539,-3.0472,-3.1093,-3.1442,-3.1813,-3.2154,-3.2694,-3.3161,-3.3002,-3.3443,-3.4103,-3.4431,-3.4673,-3.488,-3.5321,-3.5383,-3.5354,-3.5354,-3.5354,-3.5354,-3.5354,-3.4947,-3.4628,-3.4628,-3.413,-3.3812,-3.3812,-3.3812,-3.4231,-3.5391,-3.5412,-3.5412,-3.5475,-3.5475,-3.5194,-3.4673,-3.4745,-3.4492,-3.39,-3.397,-3.3895,-3.3633,-3.3633,-3.3203,-3.2479,-3.2293,-3.2132,-0.99,-1.1773,-1.3132,-1.3132,-1.2182,0.0,0.0,-1.1245,-1.1225,-1.1172,-1.1238,-1.1958,-1.4511,-1.4469,-1.3879,-1.3497,-1.342,-1.4241,0.0,0.0,0.0,0.0,0.0,0.0,0.0,0.0,0.0,0.0,0.0,0.0,0.0,-2.5716,-2.6099,-2.6117,-2.687,-2.7277,-2.7321,-2.7512,-2.7599,-2.7604,-2.7621,-2.6386,-2.4096,-2.4523,0.0,0.0,0.0,0.0,0.0,-2.53,-2.5564,-2.5619,-2.5743,-2.5893,-2.6136,-2.6136,-2.6312,-2.6568,-2.6568,-2.6712,-2.6841,-2.6893,-2.7063,-2.7307,-2.772,-2.8725,-2.9856,-3.0299,-3.0479,-3.0654,-3.1034,-3.1449,-3.1758,-3.1758,-3.2165,-3.2647,-3.321,-3.3452,-3.3818,-3.4347,-3.4454,-3.4347,-3.4163,-3.4117,-3.4054,-3.3787,-3.3565,-3.3375,-3.3251,-3.2854,-3.2635,-3.2696,-3.2635,-3.2999,-3.3988,-3.4301,-3.4454,-3.4454,-3.4454,-3.4236,-3.3812,-3.3795,-3.3577,-3.3108,-3.3004,-3.2871,-3.2689,-3.242,-3.1993,-3.1416,-3.1183,-3.0988,0.0,-0.8456,-1.0782,-1.0782,-1.0791,-1.0796,-1.0604,-1.0585,0.0,-1.0968,-1.0979,-1.1024,-1.099,-0.9598,-0.9164,-1.1481,-1.2085,0.0,0.0,0.0,0.0,0.0,0.0,0.0,0.0,0.0,0.0,0.0,0.0,0.0,0.0,-2.4991,-2.5025,-2.5025,-2.6108,-2.6707,-2.6808,-2.7291,-2.7558,-2.7521,-2.7559,-2.6313,-2.4081,-2.4103,0.0,0.0,0.0,0.0,0.0,-2.4734,-2.4948,-2.5174,-2.5369,-2.5592,-2.5839,-2.5839,-2.5893,-2.5893,-2.5893,-2.6042,-2.6297,-2.6404,-2.6788,-2.7115,-2.7115,-2.8127,-2.9322,-2.9522,-2.9659,-2.9689,-2.9834,-2.9917,-2.9963,-2.9963,-3.0299,-3.0829,-3.1292,-3.1819,-3.2377,-3.2857,-3.2813,-3.2635,-3.218,-3.2087,-3.1868,-3.1277,-3.1677,-3.1897,-3.1518,-3.1533,-3.1628,-3.1801,-3.1691,-3.1691,-3.1848,-3.2585,-3.3064,-3.3004,-3.3004,-3.2988,-3.2937,-3.2937,-3.2904,-3.2854,-3.2619,-3.2303,-3.1851,-3.1165,-3.0692,-3.0426,-3.0426,-3.0258,-0.3733,0.0,-0.702,-0.702,-0.701,-0.6614,0.0,0.0,0.0,0.0,0.0,-0.9238,-0.9199,-0.7951,-0.7017,-0.7645,-0.9771,-1.1676,0.0,0.0,0.0,0.0,0.0,0.0,0.0,0.0,0.0,0.0,0.0,0.0,0.0,-2.5011,-2.5015,-2.5003,-2.526,-2.5869,-2.6788,-2.6953,-2.6982,-2.6982,-2.7009,-2.5939,-2.412,-2.4079,0.0,0.0,0.0,0.0,-2.4439,-2.4593,-2.4677,-2.4734,-2.4905,-2.5131,-2.5397,-2.5536,-2.5688,-2.5893,-2.5893,-2.5948,-2.5988,-2.6056,-2.6258,-2.651,-2.651,-2.7059,-2.7743,-2.778,-2.8203,-2.8575,-2.8628,-2.8946,-2.9317,-2.9317,-2.9411,-2.9666,-3.0201,-3.0443,-3.0697,-3.1244,-3.1292,-3.1244,-3.1162,-3.1112,-3.1063,-3.0898,-3.0541,-3.0243,-3.0146,-2.9721,-2.9548,-2.9826,-2.9826,-2.9964,-3.0312,-3.1712,-3.2504,-3.2289,-3.2289,-3.1981,-3.1426,-3.141,-3.1132,-3.0577,-3.0517,-3.0451,-3.0332,-3.0152,-3.0027,-2.9968,-2.9968,-2.9941,-0.2917,-0.3667,-0.4428,-0.4428,-0.4426,-0.4145,-0.3126,0.0,0.0,0.0,0.0,-0.8484,-0.8037,-0.7049,-0.626,-0.6264,-0.8345,0.0,0.0,0.0,0.0,0.0,0.0,0.0,0.0,0.0,0.0,0.0,0.0,0.0,0.0,-2.2775,-2.304,-2.3684,-2.4564,-2.5293,-2.5966,-2.5952,-2.6272,-2.6778,-2.563,-2.461,-2.3644,-2.3618,-2.3819,0.0,0.0,0.0,-2.4274,-2.4434,-2.4478,-2.4492,-2.4664,-2.4835,-2.5005,-2.5131,-2.53,-2.5508,-2.5508,-2.5578,-2.5743,-2.5839,-2.5988,-2.615,-2.615,-2.6365,-2.6698,-2.7026,-2.7394,-2.7659,-2.7712,-2.7963,-2.8213,-2.8213,-2.8213,-2.8373,-2.894,-2.9042,-2.918,-2.9728,-2.9826,-2.9777,-2.9515,-2.9465,-2.9381,-2.9093,-2.8974,-2.8827,-2.8645,-2.8422,-2.8384,-2.8826,-2.867,-2.8701,-2.915,-3.0003,-3.0637,-3.0975,-3.0822,-3.0599,-3.0393,-3.0242,-2.9868,-2.9409,-2.9483,-2.9572,-2.9677,-2.9766,-2.9766,-2.9677,-2.9677,-2.9589,-0.2875,-0.2778,-0.2683,-0.2862,-0.2865,-0.2868,-0.2868,-0.2774,0.0,0.0,0.0,0.0,0.0,-0.5855,0.0,0.0,0.0,0.0,0.0,0.0,0.0,0.0,0.0,0.0,0.0,0.0,0.0,0.0,0.0,0.0,0.0,-2.011,-2.0638,-2.1836,-2.3389,-2.4372,-2.4571,-2.4563,-2.5091,-2.6068,-2.3981,-2.3005,-2.3094,-2.309,-2.3399,0.0,0.0,0.0,-2.4099,-2.4028,-2.4105,-2.4261,-2.4319,-2.4421,-2.4593,-2.4721,-2.4778,-2.4821,-2.4948,-2.5131,-2.5369,-2.5688,-2.5784,-2.5853,-2.5853,-2.5839,-2.6002,-2.6674,-2.6832,-2.6832,-2.6974,-2.7011,-2.7011,-2.7011,-2.7011,-2.71,-2.7515,-2.76,-2.775,-2.8192,-2.8288,-2.8143,-2.765,-2.76,-2.7429,-2.6937,-2.7291,-2.7464,-2.7233,-2.7327,-2.7635,-2.8158,-2.7799,-2.775,-2.8255,-2.8158,-2.8432,-2.9316,-2.9134,-2.918,-2.9572,-2.9196,-2.8919,-2.8904,-2.8966,-2.912,-2.9396,-2.9544,-2.956,-2.9396,-2.9396,-2.9259,-0.2875,-0.2243,-0.1793,-0.2691,-0.2873,-0.2873,-0.2873,-0.2238,-0.1786,0.0,0.0,0.0,0.0,0.0,0.0,0.0,0.0,0.0,0.0,0.0,0.0,0.0,0.0,0.0,0.0,0.0,0.0,0.0,0.0,0.0,0.0,-2.0084,-2.0198,-2.0392,-2.0682,-2.1385,-2.2604,-2.2652,-2.274,-2.289,-2.2496,-2.2608,-2.3105,-2.309,-2.3125,0.0,0.0,-2.3603,-2.4046,-2.31,-2.3267,-2.406,-2.3543,-2.3386,-2.3623,-2.4363,-2.4363,-2.4105,-2.4765,-2.4765,-2.4536,-2.5005,-2.53,-2.555,-2.555,-2.5702,-2.5893,-2.6056,-2.6056,-2.6056,-2.6111,-2.6111,-2.6111,-2.6111,-2.6111,-2.6111,-2.619,-2.619,-2.6244,-2.6297,-2.6351,-2.6297,-2.6244,-2.619,-2.6204,-2.6056,-2.615,-2.6204,-2.6165,-2.615,-2.6351,-2.6759,-2.6759,-2.6849,-2.7282,-2.699,-2.699,-2.7455,-2.7883,-2.8288,-2.8701,-2.811,-2.8094,-2.8904,-2.8352,-2.8367,-2.8936,-2.892,-2.892,-2.8936,-2.8936,-2.8889,-0.2061,-0.1792,-0.1519,-0.1943,-0.2116,-0.2117,-0.2115,-0.1743,-0.1382,0.0,0.0,0.0,0.0,0.0,0.0,0.0,0.0,0.0,0.0,0.0,0.0,0.0,0.0,0.0,0.0,0.0,0.0,0.0,0.0,0.0,0.0,0.0,-1.976,-2.0095,-2.0094,-2.0437,-2.1071,-2.109,-2.1436,-2.2212,-2.2177,-2.2347,-2.258,-2.2604,-2.2813,-2.3121,0.0,-2.3244,-2.3516,-2.2604,-2.2298,-2.2384,-2.2809,-2.2834,-2.2713,-2.3327,-2.3386,-2.3255,-2.3989,-2.4105,-2.393,-2.4176,-2.4593,-2.4975,-2.4593,-2.4878,-2.5286,-2.523,-2.5564,-2.5893,-2.5893,-2.5893,-2.5893,-2.5893,-2.5893,-2.5893,-2.5893,-2.5893,-2.5893,-2.5893,-2.5893,-2.5893,-2.5893,-2.5893,-2.5893,-2.5893,-2.5893,-2.5893,-2.5893,-2.5893,-2.6042,-2.6457,-2.6312,-2.6351,-2.6745,-2.6404,-2.6351,-2.6745,-2.7181,-2.7449,-2.7414,-2.7108,-2.7159,-2.76,-2.7312,-2.7363,-2.7879,-2.7879,-2.8042,-2.8301,-2.8301,-2.8462,-0.0089,-0.0089,-0.0,0.0173,0.0086,-0.0087,-0.0172,-0.0,0.0084,0.0,0.0,0.0,0.0,0.0,0.0,0.0,0.0,0.0,0.0,0.0,0.0,0.0,0.0,0.0,0.0,0.0,0.0,0.0,0.0,0.0,0.0,0.0,-1.9358,-1.9828,-1.9866,-1.9922,-2.0085,-2.0072,-2.083,-2.219,-2.2219,-2.2171,-2.2171,-2.2205,-2.2103,-2.1891,-2.1902,-2.2013,-2.2096,-2.1591,-2.0997,-2.0483,-2.1528,-2.1956,-2.1942,-2.2017,-2.2164,-2.247,-2.2965,-2.317,-2.3207,-2.3327,-2.3813,-2.4247,-2.3767,-2.4118,-2.4734,-2.462,-2.5061,-2.5619,-2.5619,-2.5674,-2.5674,-2.5674,-2.5674,-2.5674,-2.5674,-2.5674,-2.5674,-2.5674,-2.5674,-2.5674,-2.5674,-2.5674,-2.5674,-2.5674,-2.5674,-2.5674,-2.5674,-2.5674,-2.5784,-2.6082,-2.5825,-2.577,-2.6028,-2.577,-2.5715,-2.6028,-2.6534,-2.6745,-2.651,-2.6351,-2.6365,-2.6602,-2.6457,-2.6587,-2.7027,-2.7027,-2.7232,-2.76,-2.76,-2.7879,0.3853,0.3919,0.4072,0.4999,0.4536,0.3802,0.3468,0.404,0.0,0.4545,0.0,0.0,0.0,0.0,0.0,0.0,0.0,0.0,0.0,0.0,0.0,0.0,0.0,0.0,0.0,0.0,0.0,0.0,0.0,0.0,0.0,0.0,0.0,-1.9158,-1.9157,-1.9452,-2.0114,-2.0107,-2.082,-2.2206,-2.2226,-2.2197,-2.2185,-2.2183,-2.0778,-1.8348,-1.8365,-1.8764,-1.935,-1.9307,-1.9254,-1.923,-1.9318,-2.0258,-2.1413,-2.0563,-2.0843,-2.1717,-2.1885,-2.1957,-2.2063,-2.2531,-2.3148,-2.3636,-2.3636,-2.406,-2.462,-2.462,-2.4677,-2.4734,-2.4835,-2.4948,-2.5061,-2.5061,-2.5061,-2.5061,-2.5061,-2.5061,-2.5061,-2.5061,-2.5061,-2.5061,-2.5061,-2.5061,-2.5061,-2.5061,-2.5061,-2.5005,-2.4892,-2.5005,-2.5005,-2.4948,-2.4892,-2.4835,-2.4721,-2.4734,-2.4734,-2.4721,-2.5495,-2.615,-2.651,-2.5907,-2.6002,-2.6849,-2.6244,-2.619,-2.673,-2.673,-2.673,-2.6782,-2.6782,-2.6782,0.4972,0.4939,0.4826,0.5208,0.4964,0.0,0.0,0.4799,0.4991,0.4996,0.3989,0.0,0.0,0.0,0.0,0.0,0.0,0.0,0.0,0.0,0.0,0.0,0.0,0.0,0.0,0.0,0.0,0.0,0.0,0.0,0.0,0.0,0.0,-1.6321,-1.6333,-1.7309,-1.9468,-1.9889,-2.0367,-2.0864,-2.0871,-2.0453,-1.9576,-1.9608,-1.9976,-2.049,-1.8761,-1.8147,-1.842,-1.8905,-1.9104,-1.912,-1.9076,-2.0106,-2.1441,-2.0431,-2.0366,-2.07,-2.0739,-2.0682,-2.0676,-2.133,-2.2002,-2.2482,-2.2063,-2.2543,-2.3255,-2.3577,-2.3826,-2.4073,-2.4549,-2.4734,-2.4721,-2.4721,-2.4721,-2.4721,-2.4721,-2.4721,-2.4721,-2.4721,-2.4721,-2.4721,-2.4721,-2.4721,-2.4721,-2.4721,-2.4721,-2.4734,-2.4677,-2.4734,-2.4734,-2.4677,-2.4677,-2.4677,-2.462,-2.462,-2.462,-2.462,-2.4892,-2.5174,-2.5314,-2.5075,-2.5118,-2.5467,-2.5216,-2.5216,-2.5412,-2.5412,-2.5577,-2.5877,-2.5877,-2.6094,0.5274,0.5237,0.5038,0.4996,0.0,0.0,0.5382,0.5227,0.5085,0.5329,0.5404,0.0,0.0,0.0,0.0,0.0,0.0,0.0,0.0,0.0,0.0,0.0,0.0,0.0,0.0,0.0,0.0,0.0,0.0,0.0,0.0,0.0,0.0,0.0,-1.4624,-1.5575,-1.7653,-1.8125,-1.8594,-1.9066,-1.9096,-1.8583,-1.7664,-1.7666,-1.8828,-2.0784,-1.8822,-1.8026,-1.8065,-1.8539,-1.8859,-1.9081,-1.9075,-1.9768,-2.0738,-2.0041,-1.9866,-1.9965,-2.0041,-1.9954,-1.9857,-2.0322,-2.0933,-2.1428,-2.0944,-2.1428,-2.2163,-2.2531,-2.2786,-2.3088,-2.3505,-2.4118,-2.4563,-2.4305,-2.4434,-2.462,-2.462,-2.462,-2.462,-2.462,-2.462,-2.462,-2.462,-2.462,-2.462,-2.462,-2.462,-2.4563,-2.4492,-2.4376,-2.4189,-2.3872,-2.406,-2.406,-2.3813,-2.3813,-2.3813,-2.3813,-2.3813,-2.406,-2.4563,-2.462,-2.462,-2.462,-2.462,-2.462,-2.462,-2.462,-2.4778,-2.5133,-2.5133,-2.5342,0.4984,0.5028,0.4991,0.5034,0.0,0.0,0.6278,0.5637,0.524,0.6116,0.0,0.6264,0.0,0.0,0.0,0.0,0.0,0.0,0.0,0.0,0.0,0.0,0.0,0.0,0.0,0.0,0.0,0.0,0.0,0.0,0.0,0.0,0.0,0.0,-1.4601,-1.463,-1.4628,-1.4612,-1.5377,-1.6895,-1.6895,-1.6899,-1.6934,-1.6889,-1.7273,-1.7979,-1.7976,-1.8024,-1.7988,-1.7988,-1.8452,-1.9091,-1.9096,-1.9121,-1.909,-1.909,-1.9309,-1.9615,-1.9986,-1.9975,-1.9724,-1.9507,-1.9944,-2.059,-2.059,-2.1037,-2.1553,-2.1616,-2.1616,-2.1553,-2.1616,-2.3088,-2.4376,-2.3754,-2.4073,-2.4563,-2.4563,-2.4563,-2.4563,-2.4549,-2.4549,-2.462,-2.462,-2.462,-2.462,-2.462,-2.462,-2.4492,-2.4292,-2.3872,-2.3267,-2.2396,-2.2882,-2.2955,-2.2163,-2.2101,-2.2101,-2.2101,-2.2101,-2.2834,-2.4492,-2.4563,-2.4563,-2.4563,-2.4563,-2.4563,-2.4563,-2.4563,-2.4563,-2.462,-2.462,-2.462,0.5015,0.4985,0.0,0.5721,0.0,0.0,0.0,0.6106,0.0,0.0,0.0,0.0,0.0,0.0,0.0,0.0,0.0,0.0,0.0,0.0,0.0,0.0,0.0,0.0,0.0,0.0,0.0,0.0,0.0,0.0,0.0,0.0,0.0,0.0,-1.4363,-1.4601,-1.4577,-1.4608,-1.4803,-1.5317,-1.6412,-1.6927,-1.6904,-1.6899,-1.7055,-1.7276,-1.7755,-1.7988,-1.8008,-1.8017,-1.8414,-1.9085,-1.9091,-1.9127,-1.9116,-1.9075,-1.9187,-1.9243,-1.9341,-1.9341,-1.933,-1.9407,-1.9452,-1.9552,-1.9649,-1.9998,-2.0399,-2.0794,-2.0542,-2.0348,-2.1031,-2.1557,-2.1982,-2.2323,-2.2543,-2.2677,-2.2677,-2.2786,-2.2955,-2.3255,-2.3446,-2.3505,-2.3505,-2.3505,-2.3505,-2.3505,-2.3505,-2.3518,-2.3446,-2.2895,-2.247,-2.2163,-2.2347,-2.2347,-2.2101,-2.2101,-2.2101,-2.2101,-2.2101,-2.2347,-2.2834,-2.2847,-2.2847,-2.2847,-2.2847,-2.2847,-2.2847,-2.2847,-2.3088,-2.3505,-2.3505,-2.378,0.5029,0.5249,0.0,0.5774,0.6018,0.6268,0.6328,0.0,0.0,0.0,0.0,0.0,0.0,0.0,0.0,0.0,0.0,0.0,0.0,0.0,0.0,0.0,0.0,0.0,0.0,0.0,0.0,0.0,0.0,0.0,0.0,0.0,0.0,0.0,-1.3265,-1.4312,-1.4592,-1.4585,-1.4585,-1.4601,-1.5508,-1.6342,-1.6885,-1.689,-1.6913,-1.6964,-1.7676,-1.7988,-1.7979,-1.8027,-1.825,-1.8667,-1.8694,-1.8859,-1.9122,-1.9127,-1.9096,-1.9075,-1.9121,-1.911,-1.911,-1.9218,-1.9208,-1.911,-1.9208,-1.9351,-1.956,-1.9911,-1.9738,-1.9554,-2.014,-2.0193,-2.0253,-2.0762,-2.1346,-2.1753,-2.1753,-2.1865,-2.199,-2.2274,-2.2408,-2.247,-2.247,-2.247,-2.247,-2.247,-2.247,-2.2408,-2.2151,-2.1978,-2.1678,-2.1164,-2.1353,-2.1416,-2.1112,-2.1112,-2.1112,-2.1112,-2.1112,-2.1112,-2.1112,-2.1729,-2.2101,-2.2101,-2.2101,-2.2101,-2.2101,-2.2051,-2.2237,-2.2604,-2.2531,-2.2725,0.5015,0.0,0.0,0.5286,0.5684,0.0,0.0,0.0,0.0,0.0,0.0,0.0,0.0,0.0,0.0,0.0,0.0,0.0,0.0,0.0,0.0,0.0,0.0,0.0,0.0,0.0,0.0,0.0,0.0,0.0,0.0,0.0,0.0,-0.8679,-1.1488,-1.346,-1.4283,-1.4486,-1.4624,-1.4617,-1.4616,-1.5404,-1.6915,-1.6885,-1.6881,-1.6964,-1.7608,-1.792,-1.7979,-1.7969,-1.7997,-1.7997,-1.8035,-1.8395,-1.9018,-1.9034,-1.9014,-1.9091,-1.9106,-1.9085,-1.9085,-1.9085,-1.9085,-1.9075,-1.9085,-1.9075,-1.9075,-1.9075,-1.9075,-1.9075,-1.9075,-1.9075,-1.9145,-1.935,-2.0422,-2.1365,-2.1365,-2.1428,-2.1428,-2.1491,-2.1491,-2.1491,-2.1491,-2.1491,-2.1491,-2.1491,-2.1491,-2.1302,-2.0655,-2.1112,-2.0933,-1.9736,-2.0161,-2.0279,-1.9671,-1.9605,-1.9605,-1.9605,-1.9605,-1.9605,-1.9605,-2.1049,-2.1854,-2.1854,-2.1854,-2.1854,-2.1854,-2.1753,-2.169,-2.1753,-2.1616,-2.1553,0.5002,0.5162,0.0,0.0,0.615,0.6283,0.0,0.0,0.0,0.0,0.0,0.0,0.0,0.0,0.0,0.0,0.0,0.0,0.0,0.0,0.0,0.0,0.0,0.0,0.0,0.0,0.0,0.0,0.0,0.0,0.0,0.0,0.0,-0.7743,-0.9061,-1.0417,-1.1803,-1.3682,-1.4613,0.0,-1.4577,-1.5392,-1.6929,-1.6878,-1.6881,-1.6904,-1.7051,-1.7496,-1.7988,-1.8027,-1.8008,-1.7988,-1.8007,-1.8075,-1.824,-1.821,-1.8627,-1.9096,-1.9075,-1.9075,-1.9075,-1.9075,-1.9111,-1.9081,-1.9132,-1.9081,-1.9075,-1.9127,-1.9106,-1.9075,-1.9075,-1.9075,-1.9121,-1.9125,-1.9486,-1.9781,-1.9781,-1.9922,-2.0172,-2.0526,-2.0719,-2.0846,-2.0846,-2.0846,-2.0846,-2.0846,-2.0846,-2.0782,-2.059,-2.0291,-1.9922,-1.9605,-1.9736,-1.9726,-1.9605,-1.9605,-1.9605,-1.9605,-1.9605,-1.9605,-1.9605,-1.9922,-2.0107,-2.0107,-2.0107,-2.0107,-2.0107,-2.0118,-2.0366,-2.0846,-2.0846,-2.1101,0.5038,0.0,0.0,0.6053,0.0,0.6836,0.0,0.0,0.0,0.0,0.0,0.0,0.0,0.0,0.0,0.0,0.0,0.0,0.0,0.0,0.0,0.0,0.0,0.0,0.0,0.0,0.0,0.0,0.0,0.0,0.0,-0.7332,-0.7522,-0.75,-0.826,-0.9135,-0.9973,-1.1965,-1.2949,-1.2928,-1.4027,-1.4632,-1.4737,-1.6201,-1.6079,-1.4755,-1.6228,-1.711,-1.7505,-1.7827,-1.7966,-1.8017,-1.7987,-1.7996,-1.7977,-1.7998,-1.8222,-1.8564,-1.86,-1.8569,-1.8569,-1.8569,-1.8549,-1.8617,-1.9008,-1.8869,-1.8546,-1.8586,-1.8664,-1.8731,-1.8731,-1.8798,-1.8808,-1.8808,-1.9008,-1.9208,-1.9208,-1.9274,-1.9396,-1.9704,-1.9824,-1.9901,-1.9901,-1.9901,-1.9901,-1.9901,-1.9901,-1.9901,-1.9901,-1.9584,-1.9341,-1.9341,-1.9341,-1.9341,-1.9341,-1.9341,-1.9341,-1.9341,-1.9341,-1.9341,-1.9341,-1.9341,-1.9407,-1.9605,-1.9605,-1.9605,-1.9605,-1.9473,-1.966,-1.9966,-1.9901,-2.0096,0.609,0.0,0.6225,0.6972,0.7163,0.0,0.0,0.0,0.0,0.0,0.0,0.0,0.0,0.0,0.0,0.0,0.0,0.0,0.0,0.0,0.0,0.0,0.0,0.0,0.0,0.0,0.0,0.0,0.0,0.0,-0.5914,-0.6589,-0.6936,-0.6958,-0.7928,-0.8617,-0.8842,-1.0137,-1.0947,-1.1109,-1.3064,-1.3359,-1.2203,-1.4863,-1.4712,-1.2428,-1.5031,-1.6085,-1.6193,-1.7346,-1.753,-1.7018,-1.7165,-1.7202,-1.7235,-1.7209,-1.7555,-1.8036,-1.8027,-1.8017,-1.7978,-1.7997,-1.7978,-1.8123,-1.8765,-1.8492,-1.8016,-1.8035,-1.822,-1.8395,-1.8472,-1.8472,-1.8482,-1.8482,-1.8741,-1.9008,-1.9008,-1.9008,-1.9075,-1.8998,-1.9008,-1.9075,-1.9065,-1.9075,-1.9075,-1.9075,-1.9075,-1.9075,-1.9075,-1.9075,-1.9065,-1.8931,-1.8931,-1.8931,-1.8931,-1.8798,-1.8787,-1.8931,-1.8798,-1.8721,-1.8721,-1.8721,-1.8854,-1.9131,-1.9264,-1.9407,-1.9539,-1.9208,-1.9142,-1.9274,-1.9142,-1.9075,0.0,0.0,1.0343,0.0,1.0466,1.0563,0.0,0.0,0.0,0.0,0.0,0.0,0.0,0.0,0.0,0.0,0.0,0.0,0.0,0.0,0.0,0.0,0.0,0.0,0.0,0.0,0.0,0.0,0.0,0.0,-0.4489,-0.4674,-0.4718,-0.4703,-0.6615,-0.8196,-0.9395,-0.9574,-1.0201,-1.1119,-1.1434,-1.1434,-1.127,-1.2393,-1.2719,-1.2349,-1.2711,-1.2913,-1.3106,-1.5899,-1.5488,-1.3145,-1.3807,-1.4128,-1.412,-1.4097,-1.5774,-1.8035,-1.8011,-1.8016,-1.8018,-1.8007,-1.7998,-1.7997,-1.8144,-1.8094,-1.8035,-1.825,-1.8405,-1.8482,-1.8647,-1.8569,-1.8482,-1.8482,-1.8549,-1.8549,-1.8549,-1.8751,-1.8808,-1.8607,-1.8741,-1.8875,-1.9075,-1.9075,-1.9075,-1.9075,-1.9075,-1.9075,-1.9075,-1.9075,-1.8865,-1.824,-1.8172,-1.8172,-1.8172,-1.755,-1.7482,-1.8104,-1.756,-1.7207,-1.7207,-1.7207,-1.7207,-1.7276,-1.7901,-1.8519,-1.9142,-1.8519,-1.8519,-1.9142,-1.9142,-1.9075,1.1097,1.1112,1.1068,0.0,1.1756,1.2571,0.0,0.0,0.0,0.0,0.0,0.0,0.0,0.0,0.0,0.0,0.0,0.0,0.0,0.0,0.0,0.0,0.0,0.0,0.0,0.0,0.0,0.0,0.0,-0.1942,-0.4175,-0.4298,-0.4308,-0.4279,-0.5235,-0.6007,-0.6603,-0.85,-0.9708,-1.0224,-1.0218,-1.0206,-1.02,-1.059,-1.1318,-1.2312,-1.2277,-1.2298,-1.2422,-1.3737,-1.376,-1.3001,-1.3336,-1.3497,-1.3531,-1.3521,-1.4364,-1.5754,-1.7441,-1.6888,-1.5453,-1.5513,-1.6609,-1.7978,-1.8035,-1.7977,-1.8008,-1.8125,-1.8203,-1.8252,-1.8311,-1.8282,-1.8252,-1.8223,-1.8203,-1.8223,-1.8251,-1.8414,-1.8607,-1.8472,-1.8724,-1.8957,-1.8916,-1.9003,-1.9101,-1.9101,-1.9106,-1.909,-1.909,-1.9114,-1.8694,-1.7684,-1.706,-1.6798,-1.706,-1.6724,-1.6724,-1.7001,-1.6724,-1.6585,-1.6585,-1.6585,-1.6585,-1.6585,-1.707,-1.755,-1.7901,-1.755,-1.756,-1.7901,-1.7901,-1.8104,0.0,0.0,1.1715,1.1692,1.258,1.3637,0.0,0.0,0.0,0.0,0.0,0.0,0.0,0.0,0.0,0.0,0.0,0.0,0.0,0.0,0.0,0.0,0.0,0.0,0.0,0.0,0.0,0.0,0.0,-0.0737,-0.3098,-0.323,-0.356,-0.4292,-0.4278,-0.4326,-0.4303,-0.706,-0.8477,-0.8487,-0.8487,-0.8482,-0.8467,-0.8462,-0.9291,-1.0844,-1.1567,-1.1867,-1.188,-1.1866,-1.2396,-1.3222,-1.3388,-1.3506,-1.3469,-1.3504,-1.3467,-1.3825,-1.6093,-1.5392,-1.3472,-1.3502,-1.5006,-1.6972,-1.776,-1.7703,-1.7394,-1.7394,-1.7684,-1.7967,-1.7983,-1.7418,-1.6863,-1.6875,-1.7427,-1.7989,-1.7978,-1.8163,-1.8357,-1.8444,-1.862,-1.8785,-1.865,-1.8826,-1.8934,-1.8934,-1.893,-1.8784,-1.8409,-1.8369,-1.8031,-1.7082,-1.6123,-1.5677,-1.5685,-1.572,-1.5816,-1.6026,-1.5816,-1.5745,-1.5745,-1.5745,-1.5745,-1.5745,-1.6026,-1.6376,-1.6724,-1.6585,-1.6585,-1.6724,-1.6724,-1.707,0.0,1.3398,0.0,1.3396,0.0,0.0,0.0,0.0,0.0,0.0,0.0,0.0,0.0,0.0,0.0,0.0,0.0,0.0,0.0,0.0,0.0,0.0,0.0,0.0,0.0,0.0,0.0,0.0,0.0,0.067,-0.0201,-0.0201,-0.1475,-0.4244,-0.4303,-0.4287,-0.4323,-0.5166,-0.5625,-0.5632,-0.5632,-0.5632,-0.5632,-0.5607,-0.6002,-0.6828,-0.9519,-1.0673,-1.0667,-1.0679,-1.1374,-1.247,-1.3194,-1.3509,-1.3517,-1.3498,-1.3491,-1.3524,-1.3673,-1.3626,-1.3487,-1.3528,-1.3641,-1.4285,-1.7156,-1.6988,-1.5824,-1.5824,-1.689,-1.7995,-1.7986,-1.5912,-1.3706,-1.3706,-1.5921,-1.8008,-1.8016,-1.8018,-1.8115,-1.8458,-1.8271,-1.8134,-1.8458,-1.8487,-1.8556,-1.8556,-1.8498,-1.8002,-1.6639,-1.6473,-1.6386,-1.6315,-1.5794,-1.5021,-1.408,-1.4124,-1.4482,-1.5196,-1.4625,-1.4194,-1.4194,-1.4194,-1.4194,-1.4194,-1.4194,-1.4903,-1.6306,-1.5613,-1.5613,-1.6298,-1.6298,-1.6376,0.0,0.0,0.0,1.3525,1.3509,0.0,0.0,0.0,0.0,0.0,0.0,0.0,0.0,0.0,0.0,0.0,0.0,0.0,0.0,0.0,0.0,0.0,0.0,0.0,0.0,0.0,0.0,0.0,0.0,0.0,0.0134,0.0,-0.0469,-0.1475,-0.3364,-0.4512,-0.5033,-0.5282,-0.5404,-0.5397,-0.5397,-0.5401,-0.5408,-0.5384,-0.5771,-0.6441,-0.7432,-0.8953,-1.046,-0.8617,-0.9231,-1.1243,-1.151,-1.211,-1.2804,-1.3297,-1.3521,-1.3491,-1.3513,-1.352,-1.3512,-1.3484,-1.3475,-1.3701,-1.4753,-1.4705,-1.4269,-1.4269,-1.4697,-1.5105,-1.5078,-1.4347,-1.3504,-1.3504,-1.4356,-1.5143,-1.5097,-1.6632,-1.8052,-1.818,-1.6515,-1.5791,-1.7815,-1.818,-1.7539,-1.5591,-1.5309,-1.5076,-1.4561,-1.449,-1.4497,-1.448,-1.4312,-1.4049,-1.3636,-1.368,-1.3848,-1.4065,-1.3848,-1.3702,-1.3702,-1.3702,-1.3702,-1.3702,-1.3185,-1.3608,-1.4903,-1.4625,-1.4625,-1.4903,-1.4903,-1.5117,1.4303,0.0,0.0,0.0,0.0,0.0,0.0,0.0,0.0,0.0,0.0,0.0,0.0,0.0,0.0,0.0,0.0,0.0,0.0,0.0,0.0,0.0,0.0,0.0,0.0,0.0,0.0,0.0,0.0,0.0,0.154,0.1476,0.1006,0.0,-0.188,-0.3228,-0.3964,-0.4909,-0.5379,-0.5372,-0.5372,-0.5376,-0.5382,-0.4414,-0.474,-0.6086,-0.6334,-0.7461,-0.9026,-0.7179,-0.7494,-0.9268,-1.0233,-1.1051,-1.1791,-1.234,-1.2734,-1.3133,-1.3432,-1.347,-1.3506,-1.3506,-1.3513,-1.3519,-1.347,-1.3498,-1.3504,-1.3504,-1.3498,-1.3477,-1.3526,-1.3498,-1.3492,-1.3492,-1.3512,-1.3479,-1.3482,-1.5046,-1.6475,-1.6528,-1.4844,-1.4144,-1.6175,-1.6466,-1.5831,-1.3782,-1.3494,-1.3504,-1.3504,-1.3506,-1.3492,-1.3492,-1.3521,-1.347,-1.347,-1.3162,-1.2928,-1.2928,-1.306,-1.2973,-1.2673,-1.2973,-1.2973,-1.2673,-1.215,-1.2291,-1.3098,-1.3397,-1.3622,-1.392,-1.392,-1.4129,0.0,0.0,0.0,0.0,0.0,0.0,0.0,0.0,0.0,0.0,0.0,0.0,0.0,0.0,0.0,0.0,0.0,0.0,0.0,0.0,0.0,0.0,0.0,0.0,0.0,0.0,0.0,0.0,0.0,0.43,0.43,0.4308,0.2956,0.0067,0.0,-0.0335,-0.1072,-0.3897,-0.5259,-0.5259,-0.5259,-0.5259,-0.5189,-0.2407,-0.2609,-0.5326,-0.5988,-0.6284,-0.6355,-0.6379,-0.6387,-0.6645,-0.9409,-1.0501,-1.0447,-1.0485,-1.1166,-1.2281,-1.3135,-1.3439,-1.3448,-1.3462,-1.3521,-1.3499,-1.3499,-1.3499,-1.3499,-1.3492,-1.3492,-1.3492,-1.3492,-1.3492,-1.3492,-1.3492,-1.3492,-1.3492,-1.3492,-1.3517,-1.3517,-1.3487,-1.3491,-1.3517,-1.3487,-1.3509,-1.3509,-1.3509,-1.3484,-1.3492,-1.3499,-1.3492,-1.3492,-1.3499,-1.3506,-1.3483,-1.3402,-1.2392,-1.1857,-1.1864,-1.2109,-1.1929,-1.1111,-1.1855,-1.1929,-1.1111,-1.1111,-1.1111,-1.1111,-1.1855,-1.2673,-1.3492,-1.3492,-1.3492,1.6232,0.0,0.0,0.0,0.0,0.0,0.0,0.0,0.0,0.0,0.0,0.0,0.0,0.0,0.0,0.0,0.0,0.0,0.0,0.0,0.0,0.0,0.0,0.0,0.0,0.0,0.0,0.0,0.4686,0.4295,0.43,0.4303,0.2954,0.0067,0.0,-0.0336,-0.1072,-0.1877,-0.2278,-0.2274,-0.2274,-0.2277,-0.228,-0.1471,-0.1538,-0.228,-0.2474,-0.3739,-0.569,-0.6195,-0.6375,-0.6494,-0.7288,-0.7564,-0.755,-0.7539,-0.7773,-0.8495,-1.1559,-1.2662,-1.2755,-1.3338,-1.3535,-1.347,-1.347,-1.347,-1.347,-1.3528,-1.3521,-1.3514,-1.3499,-1.3492,-1.3492,-1.3492,-1.3492,-1.3492,-1.3492,-1.3513,-1.3469,-1.3506,-1.3484,-1.3476,-1.3506,-1.3506,-1.3535,-1.3528,-1.3514,-1.3521,-1.3513,-1.3462,-1.3521,-1.3513,-1.3476,-1.258,-1.025,-0.9793,-1.0054,-1.1273,-1.1007,-1.1087,-1.1689,-1.1502,-1.1335,-1.1111,-1.0513,-1.0513,-1.1111,-1.1335,-1.1855,-1.2673,-1.32,-1.3492,0.0,0.0,0.0,0.0,0.0,0.0,1.7978,1.7013,0.0,0.0,0.0,0.0,0.0,0.0,0.0,0.0,0.0,0.0,0.0,0.0,0.0,0.0,0.0,0.0,0.0,0.0,0.0,0.5051,0.453,0.4278,0.43,0.43,0.3558,0.1878,0.0604,-0.0335,-0.1072,-0.1072,-0.1072,-0.1072,-0.1072,-0.1072,-0.1074,-0.1072,-0.1072,-0.1074,-0.1071,-0.2209,-0.4092,-0.448,-0.5335,-0.6392,-0.6392,-0.6375,-0.6424,-0.639,-0.6384,-0.6742,-0.9059,-1.005,-1.0581,-1.2419,-1.2966,-1.297,-1.2998,-1.2991,-1.297,-1.2984,-1.3233,-1.3483,-1.3483,-1.3469,-1.3535,-1.3535,-1.3535,-1.3535,-1.3535,-1.3535,-1.3513,-1.3506,-1.3528,-1.3484,-1.3484,-1.3513,-1.3483,-1.3534,-1.2392,-1.197,-1.329,-1.3498,-1.3483,-1.3467,-1.2317,-1.0703,-0.8881,-0.867,-0.908,-1.0051,-0.9788,-0.9943,-1.0547,-1.0929,-1.0767,-1.0132,-0.9609,-0.9609,-1.0132,-1.0438,-1.1037,-1.1781,-1.2305,-1.2526,0.0,0.0,0.0,0.0,0.0,0.0,1.8092,1.8002,1.7913,0.0,0.0,0.0,0.0,0.0,0.0,0.0,0.0,0.0,0.0,0.0,0.0,0.0,0.0,0.0,0.0,0.9479,0.8187,0.5111,0.4512,0.4328,0.4295,0.43,0.43,0.43,0.1809,0.0134,-0.0469,-0.0603,-0.0604,-0.0605,-0.0941,-0.1076,-0.1076,-0.1076,-0.1076,-0.1076,-0.1074,-0.1475,-0.208,-0.2143,-0.3678,-0.5962,-0.6304,-0.637,-0.6424,-0.6424,-0.6422,-0.6403,-0.6367,-0.6869,-0.7979,-1.0822,-1.1776,-1.1825,-1.2214,-1.2032,-1.1745,-1.1795,-1.2296,-1.2879,-1.2907,-1.2893,-1.2798,-1.2798,-1.2879,-1.2961,-1.2961,-1.2961,-1.2993,-1.298,-1.3271,-1.341,-1.2998,-1.298,-1.2961,-1.2974,-1.0542,-0.9729,-1.2628,-1.2968,-1.2961,-1.2974,-1.0374,-0.8708,-0.8713,-0.868,-0.8708,-0.8708,-0.867,-0.8666,-0.8708,-1.0046,-1.0127,-0.8703,-0.8703,-0.8703,-0.8703,-0.9539,-1.0293,-1.0962,-1.1037,-1.1111,0.0,0.0,0.0,0.0,0.0,0.0,1.8077,1.739,1.672,0.0,0.0,0.0,0.0,0.0,0.0,0.0,0.0,0.0,0.0,0.0,0.0,0.0,0.0,0.0,0.0,0.9473,0.9232,0.8565,0.5858,0.4326,0.4268,0.4289,0.43,0.43,0.3766,0.3362,0.3228,0.269,0.2356,0.2356,0.0,-0.1076,-0.1076,-0.1076,-0.1076,-0.1076,-0.1075,-0.1209,-0.1344,-0.195,-0.2546,-0.3268,-0.5509,-0.6402,-0.6398,-0.6378,-0.6386,-0.6427,-0.6386,-0.6888,-0.7619,-0.8198,-0.8412,-0.89,-1.1527,-1.0524,-0.8416,-0.8412,-0.8557,-0.8786,-0.9435,-0.9185,-0.8702,-0.8702,-0.9185,-0.9665,-0.9665,-0.9665,-0.9659,-0.9628,-1.1745,-1.2675,-1.0107,-0.9638,-0.9665,-0.9648,-0.912,-0.8946,-0.9562,-0.9606,-0.9665,-0.9648,-0.91,-0.8722,-0.8685,-0.8722,-0.8665,-0.8665,-0.8679,-0.8679,-0.8665,-0.8975,-0.9042,-0.8703,-0.8703,-0.8703,-0.8703,-0.9539,-0.9992,-1.0143,-1.0812,-1.1111,0.0,0.0,0.0,1.7963,0.0,0.0,0.0,1.7677,1.7247,0.0,0.0,0.0,0.0,0.0,0.0,0.0,0.0,0.0,0.0,0.0,0.0,0.0,0.0,0.0,0.0,0.9204,0.8986,0.8967,0.7353,0.5807,0.4392,0.4273,0.4287,0.43,0.4306,0.4102,0.3763,0.336,0.3228,0.3165,0.1746,0.1074,0.1076,0.1076,0.0269,-0.1076,-0.1076,-0.1076,-0.1143,-0.148,-0.1678,-0.1808,-0.3623,-0.4295,-0.4287,-0.4276,-0.5223,-0.6414,-0.6435,-0.6662,-0.704,-0.7363,-0.7505,-0.7778,-0.9413,-0.877,-0.7487,-0.7479,-0.7471,-0.7622,-0.8023,-0.7782,-0.7466,-0.7466,-0.7787,-0.8098,-0.8094,-0.809,-0.809,-0.809,-0.9387,-1.0111,-0.8915,-0.8699,-0.8727,-0.8685,-0.8737,-0.8732,-0.8685,-0.8675,-0.868,-0.8708,-0.8722,-0.8737,-0.8679,-0.8698,-0.8141,-0.693,-0.6857,-0.6857,-0.6842,-0.8047,-0.8688,-0.8674,-0.8674,-0.8665,-0.8727,-0.9108,-0.9327,-0.9311,-0.9685,-0.9894,0.0,0.0,0.0,0.0,0.0,1.8074,0.0,0.0,0.0,1.8089,0.0,0.0,0.0,0.0,0.0,0.0,0.0,0.0,0.0,0.0,0.0,0.0,0.0,0.0,0.0,0.8884,0.8474,0.8533,0.8516,0.7508,0.5259,0.459,0.4331,0.4292,0.4295,0.4025,0.3418,0.342,0.3357,0.3226,0.3226,0.323,0.3167,0.3167,0.195,-0.0269,-0.0269,-0.0269,-0.0269,-0.0269,-0.0605,-0.1143,-0.188,-0.221,-0.2203,-0.2202,-0.3613,-0.5603,-0.5569,-0.594,-0.6493,-0.7298,-0.7534,-0.7524,-0.7476,-0.7484,-0.7484,-0.7484,-0.7484,-0.7484,-0.7484,-0.7484,-0.7484,-0.7488,-0.7492,-0.7488,-0.7484,-0.7484,-0.7484,-0.7484,-0.75,-0.7731,-0.8371,-0.8484,-0.8444,-0.8444,-0.8444,-0.8444,-0.8444,-0.8462,-0.8236,-0.759,-0.7516,-0.7525,-0.7525,-0.7529,-0.681,-0.5137,-0.4977,-0.4972,-0.4969,-0.6945,-0.7992,-0.7992,-0.7992,-0.7983,-0.7957,-0.8481,-0.8721,-0.8684,-0.8684,-0.8714,0.0,0.0,0.0,0.0,1.9246,0.0,0.0,0.0,1.8107,1.8107,0.0,0.0,0.0,0.0,0.0,0.0,0.0,0.0,0.0,0.0,0.0,0.0,0.0,0.0,0.0,0.0,0.8511,0.8517,0.8489,0.837,0.8022,0.5639,0.4309,0.4328,0.427,0.4284,0.4164,0.4172,0.3837,0.3226,0.3226,0.3226,0.3228,0.3228,0.3025,0.2686,0.2693,0.2695,0.2695,0.2695,0.121,-0.1143,-0.1883,-0.222,-0.2217,-0.2209,-0.2407,-0.2676,-0.2679,-0.4309,-0.6489,-0.7262,-0.7488,-0.7508,-0.7488,-0.7484,-0.7484,-0.7484,-0.7484,-0.7484,-0.7484,-0.7484,-0.7488,-0.7512,-0.7521,-0.7525,-0.7471,-0.7475,-0.7475,-0.7475,-0.748,-0.7545,-0.7654,-0.7667,-0.7602,-0.7602,-0.7602,-0.7602,-0.7602,-0.7602,-0.6479,-0.3486,-0.3175,-0.3175,-0.3175,-0.3184,-0.374,-0.4921,-0.5015,-0.5015,-0.4999,-0.5297,-0.5446,-0.5446,-0.5446,-0.5446,-0.5443,-0.76,-0.8727,-0.8737,-0.8737,-0.8679,0.0,0.0,0.0,0.0,0.0,0.0,1.8081,0.0,1.8084,0.0,0.0,0.0,0.0,0.0,0.0,0.0,0.0,0.0,0.0,0.0,0.0,0.0,0.0,0.0,0.0,0.0,0.0,0.0,0.8528,0.8484,0.8505,0.7396,0.6732,0.6758,0.5124,0.4317,0.4326,0.387,0.3538,0.3203,0.3207,0.3213,0.322,0.322,0.3222,0.3226,0.323,0.323,0.323,0.323,0.2487,0.1343,0.1075,-0.0336,-0.222,-0.2217,-0.2216,-0.2218,-0.218,-0.2951,-0.4012,-0.4428,-0.593,-0.7467,-0.7533,-0.7529,-0.7529,-0.7529,-0.7529,-0.7529,-0.7529,-0.7529,-0.7533,-0.7467,-0.6025,-0.4598,-0.4606,-0.4608,-0.4608,-0.4608,-0.4611,-0.4611,-0.46,-0.4598,-0.4598,-0.4598,-0.4598,-0.4598,-0.4598,-0.46,-0.4053,-0.2643,-0.2492,-0.2496,-0.2496,-0.2499,-0.2815,-0.3522,-0.3524,-0.3522,-0.3519,-0.3513,-0.3587,-0.3587,-0.3559,-0.358,-0.3572,-0.4563,-0.5213,-0.5416,-0.8135,-0.9471,1.8082,0.0,0.0,0.0,0.0,0.0,0.0,0.0,0.0,0.0,0.0,0.0,0.0,0.0,0.0,0.0,0.0,0.0,0.0,0.0,0.0,0.0,0.0,0.0,0.0,0.0,0.0,0.849,0.8495,0.8511,0.8489,0.8489,0.8505,0.8472,0.6523,0.5439,0.545,0.4926,0.4461,0.4056,0.4066,0.4077,0.409,0.348,0.3213,0.3218,0.3222,0.3224,0.3224,0.3226,0.3226,0.3226,0.3232,0.1613,-0.0873,-0.1816,-0.2221,-0.223,-0.2215,-0.2214,-0.229,-0.2461,-0.4139,-0.6122,-0.6119,-0.6119,-0.6119,-0.6119,-0.6119,-0.6119,-0.6119,-0.6119,-0.6119,-0.6122,-0.4295,-0.2492,-0.2495,-0.2495,-0.2495,-0.2495,-0.2497,-0.25,-0.25,-0.2497,-0.2495,-0.2495,-0.2495,-0.2495,-0.2495,-0.2497,-0.25,-0.25,-0.2506,-0.2511,-0.2511,-0.2511,-0.2511,-0.2511,-0.2507,-0.2506,-0.2506,-0.2522,-0.253,-0.253,-0.2509,-0.2536,-0.261,-0.2588,-0.2719,-0.3011,-0.6466,-0.8054,0.0,0.0,0.0,2.0266,0.0,0.0,0.0,0.0,1.8084,0.0,0.0,0.0,0.0,0.0,0.0,1.3929,0.0,0.0,0.0,0.0,0.0,0.0,0.0,0.0,0.0,0.0,0.0,0.8495,0.85,0.8527,0.8517,0.8517,0.8468,0.8505,0.8435,0.8391,0.8372,0.8327,0.7626,0.6304,0.6316,0.6324,0.6254,0.4138,0.3197,0.3197,0.3211,0.3215,0.3218,0.3224,0.3226,0.3226,0.3226,0.3159,0.2619,-0.0941,-0.2221,-0.223,-0.2223,-0.2319,-0.2501,-0.248,-0.2575,-0.2652,-0.2647,-0.2646,-0.2646,-0.2646,-0.2646,-0.2646,-0.2646,-0.2646,-0.2647,-0.2652,-0.2575,-0.2499,-0.2507,-0.251,-0.251,-0.251,-0.251,-0.251,-0.251,-0.251,-0.251,-0.251,-0.251,-0.251,-0.251,-0.251,-0.251,-0.251,-0.2511,-0.2511,-0.2511,-0.2511,-0.2511,-0.2511,-0.2511,-0.2511,-0.2511,-0.2487,-0.2517,-0.2517,-0.2491,-0.2604,-0.2857,-0.2922,-0.2867,-0.2869,-0.3097,-0.3118,0.0,0.0,1.8239,1.881,0.0,0.0,0.0,0.0,0.0,0.0,0.0,0.0,0.0,0.0,1.4258,1.36,1.3485,0.0,0.0,0.0,0.0,0.0,0.0,0.0,0.0,0.0,0.0,1.0547,0.9303,0.8495,0.8517,0.8517,0.8522,0.8468,0.8468,0.8479,0.8495,0.8516,0.7821,0.6388,0.6408,0.6428,0.6378,0.5624,0.5286,0.5292,0.5302,0.4486,0.3203,0.3205,0.3211,0.322,0.322,0.3222,0.2822,-0.0336,-0.1749,-0.2237,-0.2341,-0.2456,-0.2482,-0.25,-0.2506,-0.2506,-0.2504,-0.2503,-0.2503,-0.2503,-0.2503,-0.2503,-0.2503,-0.2503,-0.2503,-0.2506,-0.2506,-0.2506,-0.251,-0.2511,-0.2511,-0.2511,-0.2511,-0.2511,-0.2511,-0.2511,-0.2511,-0.2511,-0.2511,-0.2511,-0.2511,-0.2511,-0.2511,-0.2511,-0.2511,-0.2511,-0.2511,-0.2511,-0.2527,-0.2487,-0.2489,-0.2508,-0.2464,-0.2485,-0.2578,-0.2745,-0.2807,-0.2838,-0.2925,-0.2903,-0.2932,-0.2932,-0.2922,-0.2925,2.072,1.9888,0.0,1.9011,1.8543,0.0,1.8124,0.0,0.0,0.0,0.0,0.0,0.0,0.0,0.0,1.3602,1.3477,1.3528,0.0,1.2379,0.0,0.0,0.0,0.0,0.0,0.0,1.1284,1.0578,0.9262,0.8527,0.0,0.0,0.8495,0.8517,0.8517,0.8517,0.8517,0.8468,0.8057,0.7167,0.6654,0.6408,0.6424,0.6428,0.637,0.6378,0.6382,0.5627,0.4337,0.4339,0.4348,0.4289,0.3478,0.3213,0.2954,0.1141,-0.068,-0.2233,-0.2407,-0.2506,-0.2511,-0.2511,-0.2511,-0.2511,-0.2511,-0.2511,-0.2506,-0.2484,-0.2493,-0.2506,-0.2484,-0.2495,-0.2511,-0.2511,-0.2511,-0.2511,-0.2511,-0.2511,-0.2511,-0.2512,-0.2514,-0.2514,-0.2514,-0.2514,-0.2512,-0.2511,-0.2511,-0.2511,-0.2511,-0.2511,-0.2511,-0.2511,-0.2511,-0.2125,-0.119,-0.1111,-0.1523,-0.2465,-0.2056,-0.1655,-0.1176,-0.1101,-0.1695,-0.2862,-0.286,-0.2893,-0.287,-0.2933,-0.2875,-0.2875,-0.2875,-0.2871]}]]